[[{"header":{"parameterUnit":"m.s-1","parameterCategory":1,"la1":30.6,"la2":28.766,"lo1":-90.7593,"lo2":-88.6598,"dy":0.0162,"dx":0.0183,"nx":116,"ny":114,"refTime":"2024-06-10T00:00:00:Z","depth":0,"parameterNumber":2,"parameterNumberName":"U-component_of_WINDS"},"data":[0.0,0.0,0.0,0.0,0.0,0.0,0.0,0.0,0.0,0.0,0.0,0.0,0.0,0.0,0.0,0.0,0.0,0.0,0.0,0.0,0.0,0.0,0.0,0.0,0.0,0.0,0.0,0.0,0.0,0.0,0.0,0.0,0.0,0.0,0.0,0.0,0.0,0.0,0.0,0.0,0.0,0.0,0.0,0.0,0.0,0.0,0.0,0.0,0.0,0.0,0.0,0.0,0.0,0.0,0.0,0.0,0.0,0.0,0.0,0.0,0.0,0.0,0.0,0.0,0.0,0.0,0.0,0.0,0.0,0.0,0.0,0.0,0.0,0.0,0.0,0.0,0.0,0.0,0.0,0.0,0.0,0.0,0.0,0.0,0.0,0.0,0.0,0.0,0.0,0.0,0.0,0.0,0.0,0.0,0.0,0.0,0.0,0.0,0.0,0.0,0.0,0.0,0.0,0.0,0.0,0.0,0.0,0.0,0.0,0.0,0.0,0.0,0.0,0.0,0.0,0.0,0.0,0.0,0.0,0.0,0.0,0.0,0.0,0.0,0.0,0.0,0.0,0.0,0.0,0.0,0.0,0.0,0.0,0.0,0.0,0.0,0.0,0.0,0.0,0.0,0.0,0.0,0.0,0.0,0.0,0.0,0.0,0.0,0.0,0.0,0.0,0.0,0.0,0.0,0.0,0.0,0.0,0.0,0.0,0.0,0.0,0.0,0.0,0.0,0.0,0.0,0.0,0.0,0.0,0.0,0.0,0.0,0.0,0.0,0.0,0.0,0.0,0.0,0.0,0.0,0.0,0.0,0.0,0.0,0.0,0.0,0.0,0.0,0.0,0.0,0.0,0.0,0.0,0.0,0.0,0.0,0.0,0.0,0.0,0.0,0.0,0.0,0.0,0.0,0.0,0.0,0.0,0.0,0.0,0.0,0.0,0.0,0.0,0.0,0.0,0.0,0.0,0.0,0.0,0.0,0.0,0.0,0.0,0.0,0.0,0.0,0.0,0.0,0.0,0.0,0.0,0.0,0.0,0.0,0.0,0.0,0.0,0.0,0.0,0.0,0.0,0.0,0.0,0.0,0.0,0.0,0.0,0.0,0.0,0.0,0.0,0.0,0.0,0.0,0.0,0.0,0.0,0.0,0.0,0.0,0.0,0.0,0.0,0.0,0.0,0.0,0.0,0.0,0.0,0.0,0.0,0.0,0.0,0.0,0.0,0.0,0.0,0.0,0.0,0.0,0.0,0.0,0.0,0.0,0.0,0.0,0.0,0.0,0.0,0.0,0.0,0.0,0.0,0.0,0.0,0.0,0.0,0.0,0.0,0.0,0.0,0.0,0.0,0.0,0.0,0.0,0.0,0.0,0.0,0.0,0.0,0.0,0.0,0.0,0.0,0.0,0.0,0.0,0.0,0.0,0.0,0.0,0.0,0.0,0.0,0.0,0.0,0.0,0.0,0.0,0.0,0.0,0.0,0.0,0.0,0.0,0.0,0.0,0.0,0.0,0.0,0.0,0.0,0.0,0.0,0.0,0.0,0.0,0.0,0.0,0.0,0.0,0.0,0.0,0.0,0.0,0.0,0.0,0.0,0.0,0.0,0.0,0.0,0.0,0.0,0.0,0.0,0.0,0.0,0.0,0.0,0.0,0.0,0.0,0.0,0.0,0.0,0.0,0.0,0.0,0.0,0.0,0.0,0.0,0.0,0.0,0.0,0.0,0.0,0.0,0.0,0.0,0.0,0.0,0.0,0.0,0.0,0.0,0.0,0.0,0.0,0.0,0.0,0.0,0.0,0.0,0.0,0.0,0.0,0.0,0.0,0.0,0.0,0.0,0.0,0.0,0.0,0.0,0.0,0.0,0.0,0.0,0.0,0.0,0.0,0.0,0.0,0.0,0.0,0.0,0.0,0.0,0.0,0.0,0.0,0.0,0.0,0.0,0.0,0.0,0.0,0.0,0.0,0.0,0.0,0.0,0.0,0.0,0.0,0.0,0.0,0.0,0.0,0.0,0.0,0.0,0.0,0.0,0.0,0.0,0.0,0.0,0.0,0.0,0.0,0.0,0.0,0.0,0.0,0.0,0.0,0.0,0.0,0.0,0.0,0.0,0.0,0.0,0.0,0.0,0.0,0.0,0.0,0.0,0.0,0.0,0.0,0.0,0.0,0.0,0.0,0.0,0.0,0.0,0.0,0.0,0.0,0.0,0.0,0.0,0.0,0.0,0.0,0.0,0.0,0.0,0.0,0.0,0.0,0.0,0.0,0.0,0.0,0.0,0.0,0.0,0.0,0.0,0.0,0.0,0.0,0.0,0.0,0.0,0.0,0.0,0.0,0.0,0.0,0.0,0.0,0.0,0.0,0.0,0.0,0.0,0.0,0.0,0.0,0.0,0.0,0.0,0.0,0.0,0.0,0.0,0.0,0.0,0.0,0.0,0.0,0.0,0.0,0.0,0.0,0.0,0.0,0.0,0.0,0.0,0.0,0.0,0.0,0.0,0.0,0.0,0.0,0.0,0.0,0.0,0.0,0.0,0.0,0.0,0.0,0.0,0.0,0.0,0.0,0.0,0.0,0.0,0.0,0.0,0.0,0.0,0.0,0.0,0.0,0.0,0.0,0.0,0.0,0.0,0.0,0.0,0.0,0.0,0.0,0.0,0.0,0.0,0.0,0.0,0.0,0.0,0.0,0.0,0.0,0.0,0.0,0.0,0.0,0.0,0.0,0.0,0.0,0.0,0.0,0.0,0.0,0.0,0.0,0.0,0.0,0.0,0.0,0.0,0.0,0.0,0.0,0.0,0.0,0.0,0.0,0.0,0.0,0.0,0.0,0.0,0.0,0.0,0.0,0.0,0.0,0.0,0.0,0.0,0.0,0.0,0.0,0.0,0.0,0.0,0.0,0.0,0.0,0.0,0.0,0.0,0.0,0.0,0.0,0.0,0.0,0.0,0.0,0.0,0.0,0.0,0.0,0.0,0.0,0.0,0.0,0.0,0.0,0.0,0.0,0.0,0.0,0.0,0.0,0.0,0.0,0.0,0.0,0.0,0.0,0.0,0.0,0.0,0.0,0.0,0.0,0.0,0.0,0.0,0.0,0.0,0.0,0.0,0.0,0.0,0.0,0.0,0.0,0.0,0.0,0.0,0.0,0.0,0.0,0.0,0.0,0.0,0.0,0.0,0.0,0.0,0.0,0.0,0.0,0.0,0.0,0.0,0.0,0.0,0.0,0.0,0.0,0.0,0.0,0.0,0.0,0.0,0.0,0.0,0.0,0.0,0.0,0.0,0.0,0.0,0.0,0.0,0.0,0.0,0.0,0.0,0.0,0.0,0.0,0.0,0.0,0.0,0.0,0.0,0.0,0.0,0.0,0.0,0.0,0.0,0.0,0.0,0.0,0.0,0.0,0.0,0.0,0.0,0.0,0.0,0.0,0.0,0.0,0.0,0.0,0.0,0.0,0.0,0.0,0.0,0.0,0.0,0.0,0.0,0.0,0.0,0.0,0.0,0.0,0.0,0.0,0.0,0.0,0.0,0.0,0.0,0.0,0.0,0.0,0.0,0.0,0.0,0.0,0.0,0.0,0.0,0.0,0.0,0.0,0.0,0.0,0.0,0.0,0.0,0.0,0.0,0.0,0.0,0.0,0.0,0.0,0.0,0.0,0.0,0.0,0.0,0.0,0.0,0.0,0.0,0.0,0.0,0.0,0.0,0.0,0.0,0.0,0.0,0.0,0.0,0.0,0.0,0.0,0.0,0.0,0.0,0.0,0.0,0.0,0.0,0.0,0.0,0.0,0.0,0.0,0.0,0.0,0.0,0.0,0.0,0.0,0.0,0.0,0.0,0.0,0.0,0.0,0.0,0.0,0.0,0.0,0.0,0.0,0.0,0.0,0.0,0.0,0.0,0.0,0.0,0.0,0.0,0.0,0.0,0.0,0.0,0.0,0.0,0.0,0.0,0.0,0.0,0.0,0.0,0.0,0.0,0.0,0.0,0.0,0.0,0.0,0.0,0.0,0.0,0.0,0.0,0.0,0.0,0.0,0.0,0.0,0.0,0.0,0.0,0.0,0.0,0.0,0.0,0.0,0.0,0.0,0.0,0.0,0.0,0.0,0.0,0.0,0.0,0.0,0.0,0.0,0.0,0.0,0.0,0.0,0.0,0.0,0.0,0.0,0.0,0.0,0.0,0.0,0.0,0.0,0.0,0.0,0.0,0.0,0.0,0.0,0.0,0.0,0.0,0.0,0.0,0.0,0.0,0.0,0.0,0.0,0.0,0.0,0.0,0.0,0.0,0.0,0.0,0.0,0.0,0.0,0.0,0.0,0.0,0.0,0.0,0.0,0.0,0.0,0.0,0.0,0.0,0.0,0.0,0.0,0.0,0.0,0.0,0.0,0.0,0.0,0.0,0.0,0.0,0.0,0.0,0.0,0.0,0.0,0.0,0.0,0.0,0.0,0.0,0.0,0.0,0.0,0.0,0.0,0.0,0.0,0.0,0.0,0.0,0.0,0.0,0.0,0.0,0.0,0.0,0.0,0.0,0.0,0.0,0.0,0.0,0.0,0.0,0.0,0.0,0.0,0.0,0.0,0.0,0.0,0.0,0.0,0.0,0.0,0.0,0.0,0.0,0.0,0.0,0.0,0.0,0.0,0.0,0.0,0.0,0.0,0.0,0.0,0.0,0.0,0.0,0.0,0.0,0.0,0.0,0.0,0.0,0.0,0.0,0.0,0.0,0.0,0.0,0.0,0.0,0.0,0.0,0.0,0.0,0.0,0.0,0.0,0.0,0.0,0.0,0.0,0.0,0.0,0.0,0.0,0.0,0.0,0.0,0.0,0.0,0.0,0.0,0.0,0.0,0.0,0.0,0.0,0.0,0.0,0.0,0.0,0.0,0.0,0.0,0.0,0.0,0.0,0.0,0.0,0.0,0.0,0.0,0.0,0.0,0.0,0.0,0.0,0.0,0.0,0.0,0.0,0.0,0.0,0.0,0.0,0.0,0.0,0.0,0.0,0.0,0.0,0.0,0.0,0.0,0.0,0.0,0.0,0.0,0.0,0.0,0.0,0.0,0.0,0.0,0.0,0.0,0.0,0.0,0.0,0.0,0.0,0.0,0.0,0.0,0.0,0.0,0.0,0.0,0.0,0.0,0.0,0.0,0.0,0.0,0.0,0.0,0.0,0.0,0.0,0.0,0.0,0.0,0.0,0.0,0.0,0.0,0.0,0.0,0.0,0.0,0.0,0.0,0.0,0.0,0.0,0.0,0.0,0.0,0.0,0.0,0.0,0.0,0.0,0.0,0.0,0.0,0.0,0.0,0.0,0.0,0.0,0.0,0.0,0.0,0.0,0.0,0.0,0.0,0.0,0.0,0.0,0.0,0.0,0.0,0.0,0.0,0.0,0.0,0.0,0.0,0.0,0.0,0.0,0.0,0.0,0.0,0.0,0.0,0.0,0.0,0.0,0.0,0.0,0.0,0.0,0.0,0.0,0.0,0.0,0.0,0.0,0.0,0.0,0.0,0.0,0.0,0.0,0.0,0.0,0.0,0.0,0.0,0.0,0.0,0.0,0.0,0.0,0.0,0.0,0.0,0.0,0.0,0.0,0.0,0.0,0.0,0.0,0.0,0.0,0.0,0.0,0.0,0.0,0.0,0.0,0.0,0.0,0.0,0.0,0.0,0.0,0.0,0.0,0.0,0.0,0.0,0.0,0.0,0.0,0.0,0.0,0.0,0.0,0.0,0.0,0.0,0.0,0.0,0.0,0.0,0.0,0.0,0.0,0.0,0.0,0.0,0.0,0.0,0.0,0.0,0.0,0.0,0.0,0.0,0.0,0.0,0.0,0.0,0.0,0.0,0.0,0.0,0.0,0.0,0.0,0.0,0.0,0.0,0.0,0.0,0.0,0.0,0.0,0.0,0.0,0.0,0.0,0.0,0.0,0.0,0.0,0.0,0.0,0.0,0.0,0.0,0.0,0.0,0.0,0.0,0.0,0.0,0.0,0.0,0.0,0.0,0.0,0.0,0.0,0.0,0.0,0.0,0.0,0.0,0.0,0.0,0.0,0.0,0.0,0.0,0.0,0.0,0.0,0.0,0.0,0.0,1.6933,0.0,0.0,0.0,0.0,0.0,0.0,0.0,0.0,0.0,0.0,0.0,0.0,0.0,0.0,0.0,0.0,0.0,0.0,0.0,0.0,0.0,0.0,0.0,0.0,0.4993,0.5175,0.5587,0.525,0.5163,0.5553,0.0,0.0,0.0,0.0,0.0,0.5514,0.5901,0.6678,0.7887,0.9619,1.1577,1.3684,1.2862,1.1821,1.066,0.0,0.0,0.0,0.0,0.0,0.0,0.0,0.0,0.0,0.0,0.0,0.0,0.0,0.0,0.0,0.0,0.0,0.0,0.0,0.0,0.0,0.0,0.0,0.0,0.0,0.0,0.0,0.0,0.0,0.0,0.0,0.0,0.0,0.0,0.0,0.0,0.0,0.0,0.0,0.0,0.0,0.0,0.0,0.0,0.0,0.0,0.0,0.0,0.0,0.0,0.0,0.0,0.0,0.0,0.0,0.0,0.0,0.0,0.0,0.0,0.0,0.0,0.0,0.0,0.0,0.0,0.0,0.0,0.0,0.0,0.0,1.8386,0.0,0.0,0.0,0.0,0.0,0.0,0.0,0.0,0.0,0.0,0.0,0.0,0.0,0.0,0.0,0.0,0.0,0.0,0.0,0.0,0.0,0.5134,0.5213,0.523,0.5629,0.6651,0.5943,0.5773,0.6583,0.5891,0.0,0.0,0.0,0.5666,0.6396,0.6626,0.7818,1.0001,1.1607,1.4036,1.7174,1.7997,1.7283,1.5299,1.4179,0.0,0.0,0.0,0.0,0.0,0.0,0.0,0.0,0.0,0.0,0.0,0.0,0.0,0.0,0.0,0.0,0.0,0.0,0.0,0.0,0.0,0.0,0.0,0.0,0.0,0.0,0.0,0.0,0.0,0.0,0.0,0.0,0.0,0.0,0.0,0.0,0.0,0.0,0.0,0.0,0.0,0.0,0.0,0.0,0.0,0.0,0.0,0.0,0.0,0.0,0.0,0.0,0.0,0.0,0.0,0.0,0.0,0.0,0.0,0.0,0.0,0.0,0.0,0.0,2.3147,2.3965,2.3917,2.429,2.4814,2.2652,2.1745,2.1658,0.0,0.0,0.0,0.0,0.0,0.0,0.0,0.0,0.0,0.0,0.0,0.0,0.0,0.0,0.0,0.0,0.0,0.0,0.0,0.0,0.5353,0.6044,0.6138,0.6756,0.8329,0.7677,0.7509,0.8315,0.761,0.0,0.0,0.7098,0.7114,0.7247,0.8605,0.9782,1.0766,1.5367,1.8625,2.056,2.0916,2.0946,2.0578,1.8265,1.7167,1.69,0.0,0.0,0.0,0.0,0.0,0.0,0.0,0.0,0.0,0.0,0.0,0.0,0.0,0.0,0.0,0.0,0.0,0.0,0.0,0.0,0.0,0.0,0.0,0.0,0.0,0.0,0.0,0.0,0.0,0.0,0.0,0.0,0.0,0.0,0.0,0.0,0.0,0.0,0.0,0.0,0.0,1.4584,1.3995,0.0,0.0,0.0,0.0,0.0,0.0,0.0,0.0,0.0,0.0,0.0,0.0,0.0,0.0,2.3296,2.3601,2.4584,2.621,2.6212,2.6656,2.745,2.7435,2.7462,2.7486,2.7082,0.0,2.2704,2.2308,0.0,0.0,0.0,0.0,0.0,0.0,0.0,0.0,0.0,0.0,0.0,0.0,0.0,0.0,0.0,0.0,0.0,0.0,0.0,0.0,0.0,0.8127,0.9244,1.1411,1.1188,1.1081,1.1472,1.0256,0.9126,0.8216,0.7706,0.7891,0.8781,0.9899,1.1979,1.5058,1.8802,2.1299,2.2626,2.3343,2.374,2.3792,2.2668,2.1097,1.9172,1.7045,0.0,0.0,0.0,0.0,0.0,0.0,0.0,0.0,0.0,0.0,0.0,0.0,0.0,0.0,0.0,0.0,0.0,0.0,0.0,0.0,0.0,0.0,0.0,0.0,0.0,0.0,0.0,0.0,0.0,0.0,0.0,0.0,0.0,0.0,0.0,0.0,0.0,0.0,0.0,1.4173,1.5916,1.5592,1.6695,1.6959,0.0,0.0,0.0,0.0,0.0,0.0,0.0,0.0,0.0,2.195,2.2969,2.4399,2.6292,2.6383,2.6848,2.7639,2.758,2.7757,2.8105,2.7971,2.7923,2.7874,2.7819,2.6887,2.5356,2.4504,2.2671,2.0346,0.0,0.0,0.0,0.0,0.0,1.9104,0.0,0.0,0.0,0.0,0.0,0.0,0.0,0.0,0.0,0.0,0.0,0.0,0.9637,1.0697,1.2288,1.4821,1.4545,1.4266,0.0,1.2512,1.0822,0.9403,0.8764,0.9002,1.0188,1.1743,1.4749,1.9249,2.1419,2.3004,2.3992,2.4903,2.5359,2.5452,2.549,2.4083,2.1582,1.9834,1.8222,0.0,0.0,0.0,0.0,0.0,0.0,0.0,0.0,0.0,0.0,0.0,0.0,0.0,0.0,0.0,0.0,0.0,0.0,0.0,0.0,0.0,0.0,0.0,0.0,0.0,0.0,0.0,0.0,0.0,0.0,0.0,0.0,0.0,0.0,0.0,0.0,0.0,0.0,1.5526,1.7392,1.7643,1.8975,1.9348,0.0,0.0,0.0,0.0,0.0,0.0,2.0458,2.1608,2.304,2.479,2.5529,2.6622,2.812,2.813,2.825,2.8524,2.8461,2.8541,2.8733,2.855,2.8467,2.8464,2.8352,2.8079,2.7618,2.6314,2.4816,2.3296,2.2571,2.1639,2.0707,2.0807,2.1461,2.2355,0.0,0.0,0.0,0.0,0.0,0.0,0.0,0.0,0.0,0.0,0.0,0.9627,1.2148,1.3804,1.571,1.8159,1.6904,1.5979,0.0,0.0,1.1958,1.1119,1.1049,1.1023,1.1041,1.4773,1.8389,2.181,2.2772,2.3769,2.4762,2.5118,2.5293,2.5322,2.5441,2.5409,2.5124,2.3371,2.2088,2.0812,0.0,0.0,0.0,0.0,0.0,0.0,0.0,0.0,0.0,0.0,0.0,0.0,0.0,0.0,0.0,0.0,0.0,0.0,0.0,0.0,0.0,0.0,0.0,0.0,0.0,0.0,0.0,0.0,0.0,0.0,0.0,0.0,0.0,0.0,0.0,0.0,0.0,0.0,0.0,2.0215,2.1108,0.0,0.0,0.0,0.0,2.1381,2.1442,2.252,2.4934,2.5076,2.5888,2.7632,2.7798,2.7965,2.8188,2.8193,2.861,2.9433,2.9362,2.9725,3.046,3.0327,3.0274,3.0263,2.9999,2.9406,2.8563,2.7665,2.6673,2.5691,2.5391,2.4746,2.3988,2.4324,2.4308,2.4214,0.0,0.0,0.0,0.0,0.0,0.5101,0.5097,0.5568,0.6436,0.7831,0.9414,1.1588,0.0,1.6346,1.827,2.0821,2.089,2.0382,1.9381,0.0,1.5499,1.367,1.2542,1.2892,1.4842,1.8217,2.0864,2.278,2.364,2.4323,2.4804,2.5099,2.5253,2.5303,2.5359,2.5418,2.542,2.4242,2.3184,2.2106,1.9514,1.6785,0.0,0.0,0.0,0.0,0.0,0.0,0.0,0.0,0.0,0.0,0.0,0.0,0.0,0.0,0.0,0.0,0.0,0.0,0.0,0.0,0.0,0.0,0.0,0.0,0.0,0.0,0.0,0.0,0.0,0.0,0.0,0.0,0.0,0.0,0.0,0.0,0.0,2.1246,2.2554,0.0,0.0,2.323,2.3835,2.4062,2.5096,2.6113,2.703,2.7051,2.759,2.8759,2.8817,2.9156,2.9799,2.9803,2.9954,3.026,3.016,3.0247,3.0471,3.0292,3.0147,3.0011,2.9869,2.9438,2.8814,2.8535,2.7661,2.647,2.6243,2.5734,2.5198,2.5296,2.5376,2.5409,0.0,0.0,0.0,0.0,0.5104,0.5105,0.5102,0.5843,0.7004,0.8673,1.0793,1.3424,1.6788,1.8739,2.0722,2.297,2.3097,2.2341,2.0727,0.0,1.6699,1.4549,1.3912,1.5192,1.8559,2.0645,2.2334,2.3598,2.4481,2.5024,2.5213,2.5431,2.5711,2.602,2.5523,2.5678,2.6251,2.5382,2.4488,2.3537,2.1856,1.9636,1.7041,0.0,0.0,0.0,0.0,0.0,0.0,0.0,0.0,0.0,0.0,0.0,0.0,0.0,0.0,0.0,0.0,0.0,0.0,0.0,0.0,0.0,0.0,0.0,0.0,0.0,0.0,0.0,0.0,0.0,0.0,0.0,0.0,0.0,0.0,0.0,2.1672,2.2535,2.4113,2.488,2.4215,2.5455,2.6262,2.6159,2.7239,2.8009,2.8251,2.8332,2.875,2.9589,2.968,3.0015,3.0599,3.0664,3.0667,3.0598,3.049,3.0383,3.0297,3.0346,3.0118,2.9697,2.9756,2.9434,2.8865,2.8652,2.8015,2.7163,2.7177,2.6874,2.6402,2.6231,2.6282,2.6406,0.0,0.0,0.0,0.5104,0.5109,0.5091,0.5104,0.5862,0.7046,0.8713,1.1801,1.5114,1.8467,2.0967,2.3013,2.4557,2.3243,2.1577,1.9838,1.7472,1.5413,1.3825,1.5309,1.7944,2.1723,2.1906,2.2769,2.4412,2.5263,2.5814,2.6,2.6176,2.6692,2.7442,2.6017,2.6313,2.7843,2.6987,2.6188,2.5337,2.3686,2.2431,2.1086,0.0,0.0,0.0,0.0,0.0,0.0,0.0,0.0,0.0,0.0,0.0,0.0,0.0,0.0,0.0,0.0,0.0,0.0,0.0,0.0,0.0,0.0,0.0,0.0,0.0,0.0,0.0,0.0,0.0,0.0,0.0,0.0,0.0,2.0269,2.191,2.3368,2.4265,2.5807,2.6757,2.6639,2.7302,2.7707,2.7636,2.7716,2.8091,2.8797,2.9043,2.9488,3.0178,3.0482,3.0584,3.0432,3.0632,3.0653,3.0452,3.0367,3.026,3.0176,3.0669,3.0396,2.9569,2.9811,2.9533,2.8832,2.8055,2.7789,2.7897,2.8291,2.8165,2.7694,2.7165,2.7109,2.7181,0.0,0.0,0.5093,0.509,0.5096,0.5099,0.5097,0.6371,0.7924,0.9559,1.2626,1.5931,1.9228,2.1097,2.2756,2.4396,2.3477,2.2129,2.0522,0.0,1.8173,1.7202,1.9257,2.0904,2.1911,2.3095,2.3964,2.4479,2.5385,2.5897,2.6029,2.6821,2.735,2.7559,2.7305,2.7458,2.7883,2.7634,2.7451,2.7189,2.6105,2.4389,2.2304,0.0,0.0,0.0,0.0,0.0,0.0,0.0,0.0,0.0,0.0,0.0,0.0,0.0,0.0,0.0,0.0,0.0,0.0,0.0,0.0,0.0,0.0,0.0,0.0,0.0,0.0,0.0,0.0,0.0,0.0,0.0,0.0,2.1673,2.2068,2.3033,2.4281,2.58,2.6334,2.6757,2.7216,2.8007,2.8441,2.8328,2.8931,2.9336,2.9464,3.0144,3.0398,3.0062,3.121,3.1637,3.1205,3.1634,3.1806,3.1689,3.1298,3.1146,3.124,3.0904,3.0665,3.0515,3.0602,2.9916,2.8723,2.8551,2.7886,2.6989,2.7255,2.7126,2.6821,2.6486,2.6133,2.5762,0.0,0.5107,0.5093,0.5093,0.5098,0.5101,0.5101,0.6571,0.8406,1.0352,1.3182,1.6229,1.9462,2.0816,2.2009,2.331,2.2298,2.1208,2.0303,1.954,1.9393,1.9985,2.1357,2.2378,2.2949,2.3927,2.463,2.4999,2.5553,2.6218,2.7013,2.7286,2.7856,2.8588,2.802,2.8211,2.8931,2.8557,2.8434,2.8464,2.7961,2.6648,2.4855,2.359,2.2144,2.0546,1.8553,1.6774,1.5181,1.4126,0.0,0.0,0.0,0.0,0.0,0.0,0.0,0.0,0.0,0.0,0.0,0.0,0.0,0.0,0.0,0.0,0.0,0.0,0.0,0.0,0.0,0.0,0.0,0.0,2.2464,2.3709,2.4117,2.4613,2.5305,2.6303,2.7028,2.7555,2.7928,2.8685,2.9117,2.8949,2.9718,2.9963,2.9439,3.0622,3.0825,2.9728,3.1157,3.1648,3.1083,3.1616,3.1843,3.178,3.1411,3.125,3.1304,3.1339,3.1115,0.0,3.1027,3.0379,2.9123,2.8618,2.7894,0.0,0.0,0.0,0.0,0.0,2.5566,2.4938,0.0,0.5109,0.5094,0.5094,0.5099,0.5102,0.5102,0.6578,0.853,1.085,0.0,1.6174,1.9237,2.0284,2.1042,2.1694,2.0404,1.9587,0.0,0.0,1.9825,2.2129,2.2319,2.2996,2.4321,2.4464,2.4925,2.5744,2.5835,2.6746,2.8406,2.7766,2.8388,2.9935,2.8507,2.8804,3.0328,2.9552,2.9267,2.9338,2.9332,2.8763,2.773,2.6179,2.4968,2.3847,2.184,1.9608,1.7519,1.6967,0.0,0.0,0.0,0.0,0.0,0.0,0.0,0.0,0.0,0.0,0.0,0.0,0.0,0.0,0.0,0.0,0.0,0.0,0.0,0.0,0.0,0.0,0.0,0.0,2.4143,2.5378,2.6122,2.6351,2.6436,2.6447,2.7723,2.8635,2.8688,2.9359,2.9664,2.9392,3.0169,3.0187,2.9099,0.0,0.0,0.0,0.0,3.1213,3.0639,3.1174,3.1409,3.1393,3.1232,3.1101,3.101,3.1809,3.1575,3.0548,3.1229,3.0861,2.9726,2.8595,2.7938,2.7573,2.7131,2.6674,2.6234,2.6032,2.5419,0.0,0.0,0.5093,0.51,0.51,0.5104,0.5107,0.5107,0.658,0.8325,1.0105,1.3054,1.5946,1.8452,1.9871,2.0704,2.0839,1.9939,1.9427,0.0,0.0,2.1282,2.3005,2.3694,2.4178,2.453,2.4613,2.5073,2.5951,2.666,2.7501,2.8496,2.9057,2.9521,2.9902,2.9722,2.9841,3.0222,3.0119,3.0121,3.0166,3.022,2.9313,2.7855,2.7477,2.7051,2.6427,2.4409,2.3232,2.2191,1.943,1.8361,1.7863,1.6046,0.0,0.0,0.0,0.0,0.0,0.0,0.0,0.0,0.0,0.0,0.0,0.0,0.0,0.0,0.0,0.0,0.0,0.0,0.0,0.0,2.4324,2.538,2.6233,2.6962,2.7524,2.7883,2.7894,2.8035,2.8427,2.9156,2.9855,2.9972,2.9299,3.0373,3.0524,2.9314,3.065,0.0,2.9994,3.1314,3.1846,3.1401,3.1982,3.2402,3.2655,0.0,0.0,3.2007,3.1953,3.1706,3.1317,3.1598,3.1038,2.9841,2.9593,2.8622,2.7186,2.6808,2.6393,2.5989,2.6177,2.6131,2.5923,0.5093,0.5098,0.5101,0.5101,0.5105,0.5108,0.5108,0.6214,0.7766,0.9798,1.1852,1.403,1.6354,1.7265,1.7671,1.7607,1.8068,0.0,0.0,2.0916,2.2313,2.3845,2.429,2.4528,2.4594,2.4679,2.5311,2.6599,2.6618,2.7466,2.9063,2.908,2.9358,2.9857,3.0,3.0118,3.0215,3.0311,3.0359,3.0394,3.0439,2.9927,2.9151,2.9105,2.8664,2.7915,2.6791,2.5411,2.384,2.2173,2.0818,1.9681,1.879,1.806,1.7252,0.0,0.0,0.0,0.0,0.0,0.0,0.0,0.0,0.0,0.0,0.0,0.0,0.0,0.0,2.0689,0.0,0.0,2.4062,2.607,2.6648,2.7074,2.7744,2.839,2.8648,2.8297,2.8459,2.8783,2.9209,2.9484,2.9513,2.9171,3.0275,3.0487,2.941,3.0885,3.117,2.9951,3.115,3.162,3.1091,3.162,3.2021,3.2179,3.1989,3.1892,3.1896,3.189,3.162,3.1179,3.1524,3.1151,3.0195,2.9573,2.8329,2.6859,2.6902,2.6483,2.5916,2.6061,2.6001,2.5878,0.5102,0.5103,0.5102,0.5101,0.5105,0.5108,0.511,0.585,0.7151,0.9271,1.0562,1.2055,1.4049,1.4586,1.4766,0.0,0.0,0.0,1.9714,2.1396,2.2984,2.4442,2.4513,2.4543,2.4607,2.4861,2.5716,2.7248,2.6761,2.7595,2.9608,2.8987,2.9078,2.9808,2.995,3.0085,3.0215,3.0323,3.0398,3.041,3.0417,3.0406,3.041,3.0417,2.9826,2.8901,2.8357,2.6708,2.4709,2.4174,2.273,2.1161,2.1041,2.0253,1.9192,1.8312,1.7587,0.0,0.0,0.0,0.0,0.0,0.0,0.0,0.0,0.0,1.8956,1.9592,2.11,2.278,2.4301,2.4627,2.539,2.7585,2.7845,2.7975,2.859,2.9081,2.9147,2.8538,2.8836,2.9089,2.9067,2.9033,2.901,2.9082,3.0125,3.0356,2.9503,3.0905,3.113,2.973,3.0636,3.0955,3.0535,3.0976,3.1278,3.1452,3.1524,3.1504,3.1428,3.1637,3.13,3.0584,3.101,3.0891,3.0285,2.9189,2.7993,2.6946,2.7179,2.6775,2.6006,2.6101,2.5959,2.576,0.0,0.5108,0.5106,0.5102,0.5105,0.511,0.5093,0.5834,0.6781,0.7822,0.9915,1.1657,1.256,1.3933,1.4837,1.495,1.5971,1.7536,1.9743,2.151,2.3076,2.4442,2.4545,2.4607,2.4692,2.551,2.6397,2.7388,2.8051,2.8839,2.9699,2.971,2.9763,2.9808,2.9984,3.0133,3.0196,3.0279,3.0348,3.041,3.046,3.0458,3.041,3.0479,3.0259,2.9722,2.7886,2.7086,2.65,2.4056,2.3204,2.293,2.1532,2.1073,2.0755,1.9356,0.0,1.8815,1.8776,1.9413,1.9858,1.9031,1.9459,2.0056,0.0,0.0,2.2244,2.2288,2.3679,2.5168,2.6139,2.6342,2.6871,2.8492,2.8752,2.896,2.9647,2.9645,2.9531,2.9457,2.8993,2.8761,2.898,2.9174,2.9203,2.9109,3.0149,3.0456,2.9722,3.0212,3.0236,2.9605,2.987,3.0091,3.0328,3.0657,3.1083,3.1579,3.1709,3.1504,3.1061,3.1128,3.0673,2.975,2.9705,2.9677,2.9589,2.9087,2.8498,2.7911,2.7743,2.7164,2.6504,2.685,2.685,2.6696,0.0,0.5108,0.5104,0.5102,0.5105,0.511,0.5093,0.5405,0.5947,0.6829,0.7812,0.8739,0.952,1.0668,1.1584,1.2164,1.4452,1.6792,1.8999,2.1254,2.3118,2.4487,2.4626,2.4719,2.487,2.5726,2.6584,2.7462,2.8297,2.9071,2.9822,2.9953,2.9988,2.9943,3.0174,3.026,3.0266,3.0375,3.0439,3.0458,3.0447,3.0447,3.0409,2.9877,2.9632,2.9378,2.7967,2.674,0.0,0.0,2.3669,2.2886,2.2823,2.2183,2.1346,2.0734,2.056,0.0,2.172,2.1958,2.1914,0.0,2.2326,2.2635,2.2564,2.306,2.3675,2.408,2.4793,2.5592,2.6397,2.6568,2.7098,0.0,2.881,2.8997,2.9533,2.9512,2.9412,2.9353,2.8494,2.8094,2.8603,2.8595,2.8472,2.8293,2.8853,2.9059,2.8745,2.9287,2.9433,2.9021,2.9424,2.9633,2.9601,2.9951,3.0251,3.0543,3.0699,3.0658,3.0435,3.0377,2.9995,2.9425,2.9136,2.9028,2.8982,2.8591,2.8046,2.7363,2.6916,2.6297,2.5701,2.6147,2.6133,2.5823,0.0,0.5109,0.5103,0.5101,0.5105,0.5108,0.5091,0.5092,0.5325,0.5965,0.6253,0.6722,0.7529,0.8389,0.925,1.0113,1.3161,1.5983,1.8182,2.0716,2.2798,2.4268,2.4588,2.4808,2.5006,2.6064,2.6928,2.7573,2.8654,2.9446,2.9981,3.0155,3.0188,3.0113,3.0344,3.0423,3.0404,3.0492,3.054,3.052,3.0471,3.0509,3.0442,2.9505,2.8898,2.8394,2.7381,2.6132,0.0,0.0,2.3606,2.2692,2.3161,2.2508,2.1596,2.159,2.1755,2.2139,2.3081,2.3308,0.0,2.3971,2.4335,2.4542,2.4501,2.4461,2.459,2.5086,2.5282,2.5582,2.6327,2.6512,2.7026,2.8517,2.8674,2.8783,2.926,2.9293,2.9177,2.8873,2.8013,2.7538,2.7762,2.7627,2.7537,2.7648,2.7741,2.7874,2.8104,2.8352,2.8517,2.8554,2.8828,2.8946,2.8982,2.9364,2.9633,2.9793,2.9853,2.9793,2.9673,2.9255,2.8904,2.8591,2.8288,2.8143,2.8046,2.7685,2.7166,2.652,2.6028,2.5453,2.4991,2.5204,2.5092,2.4851,0.0,0.0,0.5107,0.5102,0.5101,0.5101,0.5102,0.5106,0.5111,0.5135,0.5877,0.6736,0.7597,0.8417,0.9251,1.0122,1.2629,1.5125,1.7478,1.9892,2.1952,2.3549,2.4384,2.4861,2.4994,2.6746,2.7707,2.78,2.9514,3.0302,3.0203,3.0462,3.0501,3.0388,3.053,3.0591,3.0586,3.0599,3.0595,3.0607,3.0591,3.064,3.0578,2.9655,2.8293,2.6728,2.5655,0.0,0.0,2.3288,2.2765,2.2721,2.1847,2.1599,0.0,2.16,2.2158,2.2589,2.1867,0.0,2.4166,2.4179,2.4826,2.5447,2.5464,2.5359,2.5243,2.5209,2.5201,2.545,2.6266,2.6412,2.688,2.8377,2.8435,2.8521,2.9119,2.9209,2.8892,2.8033,2.7728,2.7242,0.0,2.626,2.6636,2.7552,2.7181,2.7362,2.8356,2.7458,2.7404,2.8383,2.7845,2.7938,2.867,2.909,2.947,2.9793,2.9689,2.9329,2.8794,2.7685,2.7056,2.6782,2.6782,2.6692,2.6563,2.6283,2.604,2.5795,2.5258,2.5005,2.4892,2.4163,2.4034,2.4292,0.0,0.0,0.0,0.5107,0.5104,0.5104,0.511,0.5109,0.5092,0.5097,0.535,0.0,0.0,0.0,0.0,0.0,1.0865,1.3378,1.5721,1.825,2.0404,2.2076,2.2947,2.3688,2.4322,2.6063,2.7245,2.78,2.9589,3.043,3.0409,3.0535,3.0582,3.053,3.0642,3.0664,3.0673,3.0678,3.0671,3.0659,3.0613,3.0619,3.0403,2.8351,2.7195,2.6242,0.0,0.0,2.1984,2.134,2.1168,2.1224,2.1477,0.0,2.1697,2.2191,2.2188,2.2281,2.3572,0.0,2.4316,2.4803,2.5174,2.5414,2.5312,2.5243,2.5168,2.5203,2.5153,2.5225,2.55,2.5964,2.661,2.7471,2.7848,2.8207,2.874,2.8646,2.8283,2.7594,2.6896,0.0,0.0,0.0,0.0,2.6566,2.6057,2.6007,2.6633,2.6363,2.638,2.6872,2.707,2.745,2.8107,2.8414,2.8779,2.9227,2.8904,2.8338,2.761,2.7093,2.6534,2.5957,2.6201,2.6254,2.6147,2.5892,2.5425,2.4827,2.4483,2.3787,2.3015,2.2774,2.2592,2.2531,0.0,0.0,0.0,0.0,0.0,0.0,0.0,0.0,0.0,0.0,0.0,0.0,0.0,0.0,0.0,0.0,0.0,1.1856,1.3965,1.6218,1.8253,2.0009,2.087,2.1739,2.2668,2.4392,2.5528,2.6043,2.7851,2.8741,2.876,2.9135,2.9302,2.9337,2.9674,2.984,2.9844,2.9811,2.9812,2.9773,2.9418,2.9255,2.8984,2.6659,2.5368,0.0,0.0,0.0,1.8993,1.9669,2.0071,2.0465,2.1347,2.2058,2.2489,2.2211,2.2297,2.2802,2.423,2.4399,2.4346,2.5099,2.5293,2.5245,2.5057,2.4993,2.4975,2.5006,2.4772,2.4537,2.4582,2.498,2.5588,2.6425,2.7026,2.768,2.8438,2.8272,2.7814,2.7023,2.6069,2.5345,0.0,0.0,0.0,2.5431,2.534,2.537,2.5495,2.517,2.5175,2.5756,2.5732,2.6109,2.6819,2.7136,2.7603,2.8286,2.7735,2.71,2.6409,2.5972,2.5439,2.491,2.5022,2.5022,2.4953,2.4741,2.4284,2.369,2.3361,2.2713,2.1928,2.1803,2.1553,2.1302,0.0,0.0,0.0,0.0,0.0,0.0,0.0,0.0,0.0,0.0,0.0,0.0,0.0,0.0,0.0,0.0,0.0,0.0,1.2252,1.3879,1.5584,1.7414,1.8212,1.9098,2.0159,2.1837,2.2743,2.283,2.4598,2.5469,2.5481,2.6388,2.6822,2.6893,2.7723,2.8124,2.8164,2.8086,2.8066,2.7985,2.7108,2.6726,2.6451,2.4608,0.0,0.0,0.0,0.0,1.6448,1.8307,1.9542,0.0,0.0,2.2848,2.3741,2.1798,2.2633,2.4105,2.386,2.3995,2.4392,2.5123,2.5187,2.5037,2.4766,2.4689,2.4663,2.4674,2.4024,2.3512,0.0,0.0,2.3896,2.53,2.6015,2.6877,2.8204,2.8076,2.7434,0.0,0.0,0.0,0.0,0.0,0.0,2.4143,0.0,2.5297,2.4963,2.3998,2.391,2.5003,2.4081,2.4077,2.5133,2.5457,2.6148,2.7167,2.6361,2.5755,2.5287,2.4452,2.3884,2.3518,2.3374,2.3195,2.3088,2.2919,2.2677,2.2298,2.1939,2.1678,2.1428,2.1049,2.0794,2.0602,0.0,0.0,0.0,0.0,0.0,0.0,0.0,0.0,0.0,0.0,0.0,0.0,0.0,0.0,0.0,0.0,0.0,0.0,1.038,1.2079,1.3566,1.4748,1.5648,1.6849,1.8398,1.9505,2.0687,2.1934,2.3082,2.3662,2.3676,2.3959,2.4433,2.5078,2.5293,2.5737,2.6288,2.6278,2.6252,2.6174,0.0,2.4764,2.4444,0.0,0.0,0.0,0.0,0.0,0.0,0.0,0.0,0.0,0.0,2.2888,2.3223,2.3195,0.0,2.5029,2.486,2.5418,2.592,2.5351,2.5122,2.4972,2.4817,2.4534,2.4309,2.4197,2.3575,2.3024,0.0,0.0,0.0,2.4321,2.4908,0.0,2.6899,2.7168,0.0,2.5634,0.0,2.4233,2.2804,2.3149,0.0,0.0,2.3023,2.3736,2.4451,2.4044,2.3981,2.4433,2.4532,2.4902,2.5476,2.593,2.6347,2.6669,2.6147,2.5398,2.45,2.4079,2.3458,2.2714,2.2919,2.2907,2.2725,2.2421,2.1842,2.1141,2.0685,2.0246,1.9814,1.9135,1.9354,1.9791,0.0,0.0,0.0,0.0,0.0,0.0,0.0,0.0,0.0,0.0,0.0,0.0,0.0,0.0,0.0,0.0,0.0,0.0,0.0,1.0018,1.1175,1.2458,1.3081,1.4065,1.5493,1.6407,1.7343,1.8315,0.0,0.0,2.0234,2.0639,2.1273,2.2127,2.25,2.2906,2.3324,2.3295,0.0,0.0,0.0,0.0,0.0,0.0,0.0,0.0,0.0,0.0,0.0,0.0,0.0,2.134,2.2825,2.3581,2.387,2.3719,0.0,2.5755,2.5176,2.5791,2.6381,2.5435,2.5049,2.4823,2.4487,2.3907,2.3392,2.3213,2.2269,0.0,2.1625,2.1484,0.0,0.0,0.0,0.0,2.6508,2.6831,2.6437,0.0,2.4498,0.0,2.2193,2.2548,2.2558,0.0,2.2541,2.3188,2.36,2.3183,2.316,2.3654,2.3591,2.3825,2.4557,2.5177,2.5467,2.5494,2.5022,2.4385,2.3559,2.3267,2.2702,2.2123,0.0,2.1939,2.1678,2.1026,2.044,1.9857,1.9323,1.888,1.8566,1.8027,1.8307,1.8808,0.0,0.0,0.0,0.0,0.0,0.0,0.0,0.0,0.0,0.0,0.0,0.0,0.0,0.0,0.0,0.0,0.0,0.0,0.0,0.0,0.0,1.0471,1.0749,1.1364,1.238,1.321,1.3726,1.3901,0.0,0.0,0.0,0.0,0.0,0.0,0.0,0.0,0.0,0.0,0.0,0.0,0.0,0.0,0.0,0.0,0.0,0.0,0.0,0.0,0.0,0.0,2.0471,2.2451,2.3587,2.4591,2.5075,2.3922,2.4936,2.6224,2.5234,2.5786,2.6442,2.5562,2.5158,2.4768,2.397,2.3105,2.235,2.1927,0.0,1.9747,2.0083,2.0261,2.0895,2.252,0.0,2.5262,2.6392,2.6558,2.6133,2.4946,2.3827,2.2743,2.1602,2.1575,2.1591,2.1663,2.2648,2.3062,2.2652,2.2097,2.2141,2.2896,2.2086,2.2147,2.3088,2.3741,2.4034,2.3949,2.3551,2.3135,2.264,2.2211,2.1812,2.1498,0.0,0.0,2.0353,1.9278,1.8803,1.8552,1.8007,1.7696,1.7501,1.7235,1.7451,1.7862,0.0,0.0,0.0,0.0,0.0,0.0,0.0,0.0,0.0,0.0,0.4527,0.453,0.0,0.0,0.0,0.0,0.0,0.0,0.0,0.0,0.0,0.857,0.9356,1.0246,1.1255,1.1546,1.2079,0.0,0.0,0.0,0.0,0.0,0.0,0.0,0.0,0.0,0.0,0.0,0.0,0.0,0.0,0.0,0.0,0.0,0.0,0.0,0.0,0.0,0.0,0.0,1.9799,2.2871,2.4336,2.5289,2.5674,2.4749,2.5227,2.6058,2.5915,2.6605,2.7134,2.6314,2.5988,2.5412,2.3653,2.277,0.0,0.0,1.9876,1.9278,1.9312,1.9781,2.048,2.1494,2.2794,2.4034,2.4993,2.53,2.5078,0.0,2.3546,0.0,0.0,0.0,0.0,0.0,0.0,0.0,2.2127,2.2099,2.2221,2.2404,2.2128,2.2177,2.2444,2.2724,2.2834,2.2628,2.247,2.2163,2.1791,2.1164,2.0805,2.056,0.0,0.0,1.936,1.8624,1.8098,1.7744,1.694,1.6655,1.6742,1.6061,1.6533,1.7413,0.0,0.0,0.0,0.0,0.0,0.0,0.0,0.4549,0.4459,0.4364,0.4346,0.4323,0.4308,0.4198,0.412,0.0,0.0,0.0,0.0,0.0,0.0,0.0,0.0,0.9511,1.0097,0.0,0.0,0.0,0.0,0.0,0.0,0.0,0.0,0.0,0.0,0.0,0.0,0.0,0.0,0.0,0.0,0.0,0.0,0.0,0.0,0.0,0.0,0.0,0.0,0.0,1.7631,2.0354,2.2816,2.361,2.3702,2.3876,2.4452,2.5151,2.5578,2.6445,2.7047,2.6201,2.6012,2.5464,2.3195,0.0,0.0,0.0,1.8382,1.8012,1.7827,1.8953,0.0,2.1143,2.2489,2.3717,2.4672,2.5194,0.0,2.377,2.3777,0.0,0.0,0.0,0.0,0.0,0.0,0.0,2.1989,2.2033,2.1715,2.0991,2.1318,2.1381,2.1118,2.1221,2.1095,2.0726,2.0546,2.03,1.9976,1.9727,1.9541,1.9365,1.8824,0.0,1.7893,1.7328,1.683,1.6255,1.5677,1.548,1.548,1.4991,1.5542,1.6437,0.0,0.0,0.0,0.0,0.0,0.0,0.0,0.4409,0.4328,0.4271,0.4195,0.4152,0.4131,0.4034,0.3927,0.0,0.0,0.0,0.0,0.0,0.0,0.0,0.0,0.0,0.0,0.0,0.0,0.0,0.0,0.0,0.0,0.0,0.0,0.0,0.0,0.0,0.0,0.0,0.0,0.0,0.0,0.0,0.0,0.0,0.0,0.0,0.0,0.0,0.0,0.0,1.5084,1.6909,1.9727,2.0985,2.1568,2.2473,2.3206,2.3934,2.4913,2.5838,2.6377,2.5726,2.5719,2.5148,2.252,2.1096,0.0,1.7434,1.688,1.6718,1.6459,1.81,1.977,0.0,2.199,2.3288,2.4224,2.483,2.4716,0.0,2.3782,0.0,0.0,0.0,0.0,0.0,0.0,0.0,0.0,2.1257,2.0568,1.9465,2.0019,1.9998,1.9357,1.9467,1.927,1.8772,1.8583,1.8382,1.8113,1.8257,1.8277,1.8162,1.7677,0.0,0.0,1.6,1.5508,1.4939,1.4673,1.4569,1.4497,1.4274,1.4697,1.5463,0.0,0.0,0.0,0.0,0.0,0.0,0.0,0.4252,0.4198,0.4123,0.4068,0.3992,0.3943,0.3869,0.3795,0.0,0.0,0.0,0.0,0.0,0.0,0.0,0.0,0.0,0.0,0.0,0.0,0.0,0.0,0.0,0.0,0.0,0.0,0.0,0.0,0.0,0.0,0.0,0.0,0.0,0.0,0.0,0.0,0.0,0.0,0.0,0.0,0.0,0.0,0.0,0.0,1.3462,1.4819,1.7881,2.1094,2.1229,0.0,0.0,2.4274,2.4878,2.5029,2.5136,2.5259,2.4538,2.1373,0.0,1.906,1.6184,1.5853,1.6044,1.5903,1.7469,1.8886,1.9247,2.0591,2.1892,2.2768,2.3109,2.3227,2.3137,0.0,0.0,0.0,0.0,0.0,0.0,0.0,0.0,0.0,1.9069,1.8345,1.8335,1.8045,1.7775,1.7366,1.7678,1.7532,1.7005,1.7005,1.7005,1.6945,1.7051,1.707,1.7001,0.0,0.0,0.0,1.511,1.4701,1.4279,1.4498,1.4497,1.4425,1.4353,1.4497,1.4776,0.0,0.0,0.0,0.0,0.0,0.0,0.4113,0.4104,0.4072,0.4051,0.3985,0.3913,0.3855,0.3749,0.3648,0.3582,0.0,0.0,0.0,0.0,0.0,0.0,0.0,0.0,0.0,0.0,0.0,0.0,0.0,0.0,0.0,0.0,0.0,0.0,0.0,0.0,0.0,0.0,0.0,0.0,0.0,0.0,0.0,0.0,0.0,0.0,0.0,0.0,0.0,0.0,0.0,0.0,1.1522,1.3373,0.0,0.0,1.9352,2.0476,2.2524,2.357,2.4108,2.4237,2.4379,2.362,2.0255,0.0,1.7548,1.4483,1.3991,1.4187,1.4368,1.6152,1.7789,1.846,1.9942,2.1316,2.2043,2.2957,2.3312,0.0,0.0,0.0,0.0,0.0,0.0,0.0,0.0,0.0,0.0,1.684,1.6305,1.6035,1.5974,1.5992,1.5948,1.5852,1.5553,1.5122,1.4925,1.4783,1.4791,1.4577,1.4657,1.4807,0.0,0.0,0.0,1.4196,1.4101,1.3915,1.3708,1.355,1.3477,1.3258,1.3404,1.3775,0.0,0.0,0.0,0.0,0.0,0.3949,0.3941,0.3942,0.3943,0.3965,0.3913,0.3862,0.3803,0.3672,0.3528,0.345,0.3327,0.0,0.0,0.0,0.0,0.0,0.0,0.0,0.0,0.0,0.0,0.0,0.0,0.0,0.0,0.0,0.0,0.0,0.0,0.0,0.0,0.0,0.0,0.0,0.0,0.0,0.0,0.0,0.0,0.0,0.0,0.0,0.0,0.0,0.0,0.0,0.0,0.0,0.0,0.0,1.687,1.8126,2.0085,2.1283,2.1972,2.1958,2.1982,2.1249,1.8136,1.6868,1.5536,1.2637,1.2197,1.2513,1.2958,1.4637,1.6291,1.7311,1.8947,2.0295,2.0868,2.2131,2.2696,0.0,0.0,0.0,0.0,0.0,0.0,0.0,0.0,0.0,0.0,1.4371,1.403,1.4132,1.4068,1.4076,1.4171,1.3882,1.3506,1.3055,1.2778,1.2718,1.2712,1.2492,1.2663,1.31,0.0,0.0,0.0,1.3353,1.3317,1.3397,1.2966,1.2746,1.2673,1.2378,1.2599,1.3046,0.0,0.0,0.0,0.0,0.0,0.0,0.3796,0.3803,0.3825,0.3899,0.3847,0.3803,0.3794,0.3618,0.3444,0.3323,0.3177,0.0,0.0,0.0,0.0,0.0,0.0,0.0,0.0,0.0,0.0,0.7211,0.7412,0.0,0.0,0.0,0.0,0.0,0.0,0.0,0.0,0.0,0.0,0.0,0.0,0.0,0.0,0.0,0.0,0.0,0.0,0.0,0.0,0.0,0.0,0.0,0.0,0.0,0.9274,1.2555,1.4372,1.5625,1.7066,1.7786,1.8124,1.7899,1.7663,1.6904,1.4735,1.3933,1.2984,1.0702,1.0717,1.1305,1.1908,1.3065,1.4328,1.5532,1.7313,1.8625,1.8885,2.0081,0.0,0.0,0.0,0.0,0.0,0.0,0.0,0.0,0.0,0.0,0.0,0.0,1.131,1.3041,1.2398,1.197,1.1749,1.1694,1.1397,1.0858,1.0858,1.0858,1.0858,1.1007,1.1449,0.0,0.0,0.0,0.0,1.239,1.2224,1.2599,1.2599,1.2452,1.2305,1.2305,1.2452,1.2599,0.0,0.0,0.0,0.0,0.0,0.0,0.0,0.3703,0.3748,0.3756,0.3748,0.3718,0.3665,0.3525,0.3378,0.3246,0.3109,0.0,0.0,0.0,0.0,0.0,0.0,0.0,0.0,0.0,0.5891,0.6438,0.6646,0.6812,0.0,0.0,0.0,0.0,0.0,0.0,0.0,0.0,0.0,0.0,0.0,0.0,0.0,0.0,0.0,0.0,0.0,0.0,0.0,0.0,0.0,0.0,0.0,0.0,0.0,0.879,1.1097,0.0,1.4285,1.5171,1.5811,1.5708,1.5571,1.4941,1.2965,1.2025,1.1087,0.9271,0.891,0.9322,1.0609,1.1575,1.3048,1.5693,1.6987,1.8025,0.0,0.0,0.0,0.0,0.0,0.0,0.0,0.0,0.0,0.0,0.0,0.0,0.0,0.0,1.0421,1.1093,1.0875,1.0726,1.0708,1.0571,1.019,0.9578,0.9593,0.9442,0.9135,0.9367,0.0,0.0,0.0,0.0,0.0,1.0685,1.1099,1.2077,1.1099,1.0875,1.1037,1.0726,1.072,1.0743,0.0,0.0,0.0,0.0,0.0,0.0,0.0,0.3544,0.3592,0.3622,0.3606,0.3576,0.3531,0.3407,0.3268,0.313,0.301,0.0,0.0,0.0,0.0,0.0,0.0,0.0,0.0,0.4513,0.5089,0.5797,0.5993,0.6171,0.6294,0.6404,0.649,0.0,0.0,0.0,0.0,0.0,0.0,0.0,0.0,0.0,0.0,0.0,0.0,0.0,0.0,0.0,0.0,0.0,0.0,0.0,0.0,0.0,0.0,0.0,0.8191,1.0242,1.1362,1.2238,1.2788,1.264,1.2381,1.1808,1.0261,0.948,0.88,0.7669,0.7534,0.8065,0.9445,1.0383,1.1817,1.4472,1.5768,0.0,0.0,0.0,0.0,0.0,0.0,0.0,0.0,0.0,0.0,0.0,0.0,0.0,0.0,0.0,0.8908,0.868,0.915,0.9301,0.9205,0.914,0.8604,0.7757,0.8075,0.7927,0.7387,0.7548,0.0,0.0,0.0,0.0,0.0,0.9557,1.0051,1.1099,0.9976,0.9679,0.9922,0.9616,0.9514,0.9483,0.0,0.0,0.0,0.0,0.0,0.0,0.0,0.3319,0.3391,0.3459,0.3407,0.3374,0.3357,0.325,0.3133,0.2985,0.0,0.0,0.0,0.0,0.0,0.0,0.0,0.0,0.0,0.3721,0.4242,0.5222,0.5442,0.5611,0.5749,0.583,0.5837,0.5837,0.5834,0.0,0.0,0.0,0.0,0.0,0.0,0.0,0.0,0.0,0.0,0.0,0.0,0.0,0.0,0.0,0.0,0.0,0.0,0.0,0.0,0.0,0.0,0.0,0.0,0.9081,0.934,0.8993,0.8523,0.7899,0.6986,0.6577,0.0,0.5988,0.6586,0.744,0.8422,0.9402,1.0625,1.2296,1.391,0.0,0.0,0.0,0.0,0.0,0.0,0.0,0.0,0.0,0.0,0.0,0.0,0.0,0.0,0.0,0.0,0.6146,0.7165,0.7629,0.7306,0.7468,0.6853,0.5544,0.6398,0.6321,0.5547,0.5783,0.0,0.0,0.0,0.0,0.0,0.868,0.8993,0.9669,0.9069,0.8851,0.887,0.8824,0.8704,0.8607,0.0,0.0,0.0,0.0,0.0,0.0,0.0,0.0,0.0,0.0,0.31,0.3077,0.3026,0.299,0.2917,0.0,0.0,0.0,0.0,0.0,0.0,0.0,0.0,0.0,0.0,0.3329,0.3804,0.4453,0.4914,0.5195,0.5271,0.5337,0.5308,0.5213,0.5156,0.4818,0.0,0.0,0.0,0.0,0.0,0.0,0.0,0.0,0.0,0.0,0.0,0.2523,0.0,0.0,0.0,0.0,0.0,0.0,0.0,0.0,0.4905,0.5371,0.5662,0.0,0.7518,0.7138,0.6773,0.6336,0.0,0.5393,0.533,0.5301,0.5964,0.6731,0.7483,0.8323,0.9627,1.179,0.0,0.0,0.0,0.0,0.0,0.0,0.0,0.0,0.0,0.0,0.0,0.0,0.0,0.0,0.0,0.0,0.0,0.5004,0.4844,0.4919,0.5154,0.5306,0.5154,0.4693,0.5165,0.5249,0.4862,0.5721,0.0,0.0,0.0,0.0,0.7022,0.6528,0.7084,0.8237,0.7476,0.748,0.7791,0.7521,0.7285,0.7221,0.0,0.0,0.0,0.0,0.0,0.0,0.0,0.0,0.0,0.0,0.0,0.0,0.0,0.0,0.0,0.0,0.0,0.0,0.0,0.0,0.0,0.0,0.0,0.241,0.2749,0.3114,0.3553,0.407,0.4592,0.4892,0.4912,0.4962,0.4883,0.4697,0.426,0.3791,0.0,0.0,0.0,0.0,0.0,0.0,0.0,0.0,0.0,0.0,0.1798,0.1856,0.0,0.2037,0.2215,0.2438,0.0,0.0,0.0,0.0,0.4225,0.4597,0.451,0.5207,0.591,0.5572,0.5213,0.4825,0.4317,0.4236,0.4307,0.4447,0.5114,0.5823,0.6324,0.7011,0.0,0.0,0.0,0.0,0.0,0.0,0.0,0.0,0.0,0.0,0.0,0.0,0.0,0.0,0.0,0.0,0.0,0.0,0.0,0.0,0.3604,0.3759,0.4226,0.4142,0.375,0.2971,0.3281,0.3049,0.2347,0.3125,0.0,0.0,0.0,0.0,0.4686,0.4924,0.5467,0.6079,0.5622,0.5622,0.5938,0.5689,0.5568,0.5604,0.0,0.0,0.0,0.0,0.0,0.0,0.0,0.0,0.0,0.0,0.0,0.0,0.0,0.0,0.0,0.0,0.0,0.0,0.0,0.0,0.0,0.0,0.0,0.2344,0.2612,0.3011,0.3409,0.3801,0.4384,0.4673,0.4655,0.4646,0.4495,0.4203,0.3384,0.2796,0.0,0.0,0.0,0.0,0.0,0.0,0.0,0.0,0.0,0.0,0.0,0.0,0.0,0.1469,0.167,0.1916,0.2066,0.0,0.0,0.0,0.0,0.0,0.4013,0.4275,0.4486,0.4301,0.3927,0.3508,0.3277,0.3255,0.3328,0.3456,0.406,0.0,0.0,0.5576,0.0,0.0,0.0,0.0,0.0,0.0,0.0,0.0,0.0,0.0,0.0,0.0,0.0,0.0,0.0,0.0,0.0,0.0,0.0,0.0,0.2511,0.2901,0.3363,0.3125,0.2265,0.0938,0.1014,0.0468,-0.0547,-0.0469,0.0,0.0,0.0,0.0,0.2425,0.36,0.399,0.3834,0.399,0.399,0.4077,0.4,0.4073,0.4284,0.0,0.0,0.0,0.0,0.0,0.0,0.0,0.0,0.0,0.0,0.0,0.0,0.0,0.0,0.0,0.0,0.0,0.0,0.0,0.0,0.0,0.0,0.2292,0.2286,0.2278,0.2944,0.3324,0.3398,0.4161,0.4504,0.4443,0.4394,0.4068,0.3521,0.2885,0.2426,0.2139,0.0,0.0,0.0,0.0,0.0,0.0,0.0,0.0,0.0,0.0,0.0,0.0,0.1025,0.1227,0.1452,0.1692,0.0,0.0,0.0,0.0,0.0,0.3124,0.3183,0.3318,0.3493,0.3279,0.3008,0.2904,0.2806,0.2695,0.255,0.0,0.0,0.0,0.4118,0.4591,0.0,0.0,0.0,0.0,0.0,0.0,0.0,0.0,0.0,0.0,0.0,0.0,0.0,0.0,0.0,0.0,0.0,0.0,0.0,0.0,-0.0078,0.0157,0.0626,0.0313,-0.0859,-0.133,-0.1643,-0.1876,-0.3137,-0.361,0.0,0.0,0.0078,0.0547,0.1879,0.2585,0.2817,0.3288,0.3679,0.3832,0.3847,0.4058,0.429,0.0,0.0,0.0,0.0,0.0,0.0,0.0,0.0,0.0,0.0,0.0,0.0,0.0,0.0,0.0,0.0,0.0,0.0,0.0,0.0,0.0,0.2132,0.2132,0.2161,0.2201,0.2924,0.3299,0.3299,0.4034,0.4382,0.4338,0.3973,0.3549,0.3062,0.2589,0.2193,0.1818,0.1486,0.0,0.0,0.0,0.0,0.0,0.0,0.0,0.0,0.0,0.0,0.0,0.0,0.0851,0.1025,0.1338,0.0,0.0,0.0,0.0,0.0,0.2609,0.2747,0.2848,0.2435,0.2185,0.1952,0.1718,0.1514,0.1387,0.129,0.0,0.0,0.0,0.0,0.0,0.0,0.0,0.0,0.0,0.0,0.0,0.0,0.0,0.0,0.0,0.0,0.0,0.0,0.0,0.0,0.0,0.0,0.0,0.0,0.0,-0.1096,-0.1801,-0.1957,-0.2113,-0.2033,-0.2741,-0.3132,-0.3365,-0.4077,-0.4316,-0.3999,0.0,-0.1487,-0.0861,0.0313,0.1175,0.1882,0.2118,0.2352,0.2429,0.2429,0.2527,0.2553,0.0,0.0,0.0,0.0,0.0,0.0,0.0,0.0,0.0,0.0,0.0,0.0,0.0,0.0,0.0,0.0,0.0,0.0,0.0,0.0,0.1917,0.193,0.1948,0.203,0.2173,0.2881,0.3245,0.3245,0.3912,0.4179,0.405,0.3493,0.3046,0.2686,0.2376,0.1995,0.1591,0.1391,0.1131,0.0,0.0,0.0,0.0,0.0,0.0,0.0,0.0,0.0,0.0,0.0,0.0,0.0,0.0,0.0,0.0,0.1712,0.2021,0.2263,0.2153,0.236,0.2391,0.1353,0.1105,0.096,0.0449,0.0127,-0.0043,-0.0175,0.0,0.0,0.0,0.0,0.0,0.0,0.0,0.0,0.0,0.0,0.0,0.0,0.0,0.0,0.0,0.0,0.0,0.0,0.0,0.0,0.0,0.0,0.0,0.0,0.0,0.0,-0.2898,-0.3684,-0.3841,-0.3288,-0.3761,-0.4231,-0.4543,-0.4462,-0.4309,-0.4077,-0.3446,-0.2898,-0.235,-0.1097,-0.0157,0.0628,0.1021,0.1021,0.0943,0.0943,0.1021,0.0864,0.0,0.0,0.0,0.0,0.0,0.0,0.0,0.0,0.0,0.0,0.0,0.0,0.0,0.0,0.0,0.0,0.0,0.0,0.0,0.0,0.1662,0.1723,0.1782,0.1914,0.21,0.2765,0.3114,0.3114,0.3724,0.3807,0.3359,0.2955,0.2637,0.2425,0.214,0.1872,0.1576,0.1375,0.1099,0.0799,0.0,0.0,0.0,0.0,0.0,0.0,0.0,0.0,0.0,0.0,0.0,0.0,0.0,0.0,0.1088,0.1371,0.1554,0.1665,0.1651,0.17,0.1546,0.0543,0.0405,0.0341,-0.06,-0.1036,-0.1382,-0.1825,0.0,0.0,0.0,0.0,0.0,0.0,0.0,0.0,0.0,0.0,0.0,0.0,0.0,0.0,0.0,0.0,0.0,0.0,0.0,0.0,0.0,0.0,0.0,0.0,0.0,0.0,-0.3061,-0.3608,-0.4155,-0.4859,-0.4701,-0.4779,-0.4937,-0.4779,-0.4779,-0.4859,-0.4628,-0.455,-0.4545,-0.2198,-0.1413,-0.1489,0.0078,0.0236,-0.0236,-0.0,0.0079,-0.0,0.0,0.0,0.0,0.0,0.0,0.0,0.0,0.0,0.0,0.0,0.0,0.0,0.0,0.0,0.0,0.0,0.0,0.0,0.0,0.0,0.1314,0.1389,0.141,0.1485,0.1601,0.2303,0.2742,0.2914,0.3271,0.322,0.2794,0.2519,0.2263,0.2022,0.1869,0.1673,0.141,0.1208,0.099,0.0794,0.06,0.0,0.0,0.0,0.0,0.0,0.0,0.0,0.0,0.0,0.0135,0.0292,0.0427,0.0584,0.0729,0.0961,0.1138,0.1303,0.1331,0.1206,0.0922,0.031,-0.0203,-0.0693,-0.111,-0.1775,-0.2505,-0.3033,-0.3066,0.0,0.0,0.0,0.0,0.0,0.0,0.0,0.0,0.0,0.0,0.0,0.0,0.0,0.0,0.0,0.0,0.0,0.0,0.0,0.0,0.0,0.0,0.0,0.0,0.0,0.0,-0.3841,-0.4309,-0.4621,-0.4779,-0.4937,-0.5018,-0.4937,-0.4937,-0.5018,-0.4862,-0.4706,-0.447,-0.3688,-0.2433,-0.102,-0.0393,-0.0628,-0.1335,-0.1493,-0.1415,-0.1257,0.0,0.0,0.0,0.0,0.0,0.0,0.0,0.0,0.0,0.0,0.0,0.0,0.0,0.0,0.0,0.0,0.0,0.0,0.0841,0.0889,0.0954,0.1035,0.1057,0.1101,0.1147,0.1662,0.2106,0.2477,0.2634,0.2574,0.2293,0.2013,0.1803,0.1673,0.1582,0.1427,0.1185,0.0983,0.0806,0.063,0.0427,0.0337,0.0,0.0,0.0,0.0,0.0,0.0,0.0,0.0,-0.0067,0.0135,0.0247,0.0337,0.0436,0.0632,0.0809,0.0946,0.0985,0.0655,0.0222,-0.0118,-0.0914,-0.1557,-0.1552,-0.2305,-0.3081,-0.3477,-0.3543,-0.3363,-0.2693,0.0,0.0,0.0,0.0,0.0,0.0,0.0,0.0,0.0,0.0,0.0,0.0,0.0,0.0,0.0,0.0,0.0,0.0,0.0,0.0,0.0,0.0,0.0,-0.3373,-0.409,-0.4411,-0.4411,-0.4761,-0.4937,-0.5018,-0.4937,-0.4937,-0.4859,-0.4781,-0.4548,-0.4233,-0.4318,-0.3141,-0.1413,-0.1256,-0.1649,-0.2358,-0.228,-0.2123,-0.1963,0.0,0.0,0.0,0.0,0.0,0.0,0.0,0.0,0.0,0.0,0.0,0.0,0.0,0.0,0.0,0.0,0.0,0.0,0.0502,0.0502,0.0559,0.0693,0.0762,0.0796,0.0796,0.0867,0.1188,0.1795,0.1866,0.1894,0.1876,0.1415,0.1274,0.1388,0.1252,0.1116,0.0983,0.0781,0.0537,0.027,0.0067,-0.0,0.0,0.0,0.0,0.0,0.0,0.0,0.0,0.0,-0.027,-0.009,-0.0022,0.009,0.0232,0.0349,0.0503,0.0584,0.0523,-0.0,-0.0561,-0.0862,-0.1651,-0.2322,-0.198,-0.2609,-0.3199,-0.3074,-0.3255,-0.3574,-0.4125,0.0,0.0,0.0,0.0,0.0,0.0,0.0,0.0,0.0,0.0,0.0,0.0,0.0,0.0,0.0,0.0,0.0,0.0,0.0,0.0,0.0,0.0,0.0,-0.3928,-0.4323,-0.4528,-0.453,-0.4642,-0.4779,-0.5018,-0.4779,-0.4701,-0.4698,-0.4311,-0.4233,-0.4384,-0.3925,-0.3536,-0.3062,-0.2668,-0.2826,-0.3142,-0.2043,-0.1885,-0.2196,0.0,0.0,0.0,0.0,0.0,0.0,0.0,0.0,0.0,0.0,0.0,0.0,0.0,0.0,0.0,0.0,0.0,0.0,0.029,0.0335,0.0357,0.0346,0.0457,0.0513,0.0513,0.0444,0.0755,0.1441,0.1367,0.1215,0.0991,0.0842,0.0799,0.0847,0.0892,0.0851,0.0696,0.0402,0.0067,-0.0268,-0.0379,-0.0446,0.0,0.0,0.0,0.0,0.0,0.0,0.0,0.0,0.0,0.0,-0.0292,-0.0187,-0.0075,0.0027,0.0116,0.0154,-0.0035,-0.0498,0.0,-0.2598,0.0,0.0,0.0,-0.3812,-0.4545,0.0,-0.5104,-0.4753,-0.5064,0.0,0.0,0.0,0.0,0.0,0.0,0.0,0.0,0.0,0.0,0.0,0.0,0.0,0.0,0.0,0.0,0.0,0.0,0.0,0.0,0.0,0.0,0.0,-0.3561,-0.4395,-0.4604,-0.431,-0.479,-0.5005,-0.5018,-0.4779,-0.4779,-0.4937,-0.4781,-0.4623,-0.4307,-0.3608,-0.3295,-0.3292,-0.2902,-0.2981,-0.3294,-0.2668,-0.2591,-0.2826,0.0,0.0,0.0,0.0,0.0,0.0,0.0,0.0,0.0,0.0,-0.0022,0.0,0.0,0.0,0.0,0.0,0.0,0.0,0.0,0.0078,0.01,0.0078,0.0189,0.0245,0.0245,0.0133,0.0292,0.0701,0.0675,0.0512,0.0239,0.0268,0.0246,0.0201,0.0334,0.0335,0.0224,-0.0067,-0.0379,-0.0714,-0.0825,-0.0892,-0.0892,0.0,0.0,0.0,0.0,0.0,0.0,0.0,0.0,0.0,-0.045,-0.0357,-0.0285,-0.0322,-0.0373,-0.0429,-0.0652,-0.1035,0.0,-0.2941,-0.3017,-0.3171,-0.4487,0.0,0.0,0.0,0.0,-0.5406,-0.5607,0.0,0.0,0.0,0.0,0.0,0.0,0.0,0.0,0.0,0.0,0.0,0.0,0.0,0.0,0.0,0.0,0.0,0.0,0.0,0.0,0.0,0.0,0.0,-0.4082,-0.4605,-0.4837,-0.4691,-0.5005,-0.5319,-0.5476,-0.4932,-0.4779,-0.4859,-0.4704,-0.4467,-0.4231,-0.3686,-0.3606,-0.3759,-0.3372,-0.3528,-0.3839,-0.3448,-0.3372,-0.3374,0.0,0.0,0.0,0.0,0.0,0.0,0.0,0.0,0.0,0.0,-0.0022,0.0,0.0,0.0,0.0,0.0,0.0,0.0,0.0,0.0,-0.02,-0.0145,-0.0078,-0.0044,-0.0056,-0.0122,-0.0189,-0.0245,-0.0103,-0.0133,-0.0337,-0.026,-0.0307,-0.0427,-0.0313,-0.0312,-0.0401,-0.0624,-0.0847,-0.1094,-0.1274,-0.1319,-0.1252,-0.1161,0.0,0.0,0.0,0.0,0.0,0.0,0.0,0.0,-0.0562,-0.0502,-0.0478,-0.0632,-0.0837,-0.1027,-0.123,-0.1569,-0.197,-0.2483,-0.3029,0.0,-0.5589,-0.5147,-0.4669,-0.5873,0.0,0.0,0.0,0.0,0.0,0.0,0.0,0.0,0.0,0.0,0.0,0.0,0.0,0.0,0.0,0.0,0.0,0.0,0.0,0.0,0.0,0.0,0.0,0.0,0.0,0.0,-0.5087,-0.5014,-0.515,0.0,-0.5415,-0.5693,-0.6163,-0.524,-0.4776,-0.4779,-0.4389,-0.4235,-0.4235,-0.4155,-0.4311,-0.4384,-0.4075,-0.4309,-0.4701,-0.4314,-0.4079,-0.3997,0.0,0.0,0.0,0.0,0.0,0.0,0.0,0.0,0.0,0.0,0.0,0.0,0.0,0.0,0.0,0.0,0.0,0.0,0.0,0.0,-0.0457,-0.049,-0.0424,-0.0413,-0.0468,-0.0593,-0.0626,-0.0593,-0.0405,-0.0418,-0.0607,-0.05,-0.0539,-0.0721,-0.0673,-0.0806,-0.1027,-0.1388,-0.1566,-0.1648,-0.1784,-0.1784,-0.1648,-0.1491,-0.1316,0.0,0.0,0.0,0.0,0.0,0.0,0.0,-0.0849,-0.0815,-0.0774,-0.0663,-0.0776,-0.095,-0.115,-0.1789,0.0,0.0,-0.4827,-0.5575,-0.5848,-0.6111,-0.6523,-0.7391,0.0,0.0,0.0,0.0,0.0,0.0,0.0,0.0,0.0,0.0,0.0,0.0,0.0,0.0,0.0,0.0,0.0,0.0,0.0,0.0,0.0,0.0,0.0,0.0,0.0,-0.4957,-0.4691,-0.5127,-0.5339,0.0,-0.577,-0.6059,-0.6163,-0.5622,-0.547,-0.5628,-0.5392,-0.516,-0.501,-0.4851,-0.4849,-0.4849,-0.4929,-0.5165,-0.5335,-0.5034,-0.493,-0.4943,0.0,0.0,0.0,0.0,0.0,0.0,0.0,0.0,0.0,0.0,0.0,0.0,0.0,0.0,0.0,0.0,0.0,0.0,0.0,0.0,-0.0615,-0.0648,-0.0648,-0.0659,-0.0695,-0.0792,-0.0845,-0.0845,-0.0769,-0.0739,-0.0743,-0.0712,-0.0711,-0.0766,-0.0854,-0.1029,-0.1274,-0.1632,-0.1854,-0.1964,-0.2118,-0.2136,-0.2022,-0.1862,-0.1711,-0.1585,-0.1471,0.0,0.0,0.0,0.0,0.0,0.0,0.0,-0.0923,-0.0837,-0.0853,-0.1017,-0.1254,0.0,0.0,-0.4281,0.0,-0.6308,-0.6577,-0.7212,-0.7812,0.0,0.0,0.0,0.0,0.0,0.0,0.0,0.0,0.0,0.0,0.0,0.0,0.0,0.0,0.0,0.0,0.0,0.0,0.0,0.0,0.0,0.0,0.0,0.0,0.0,-0.5027,-0.4989,-0.5051,-0.5265,-0.5623,-0.6065,-0.6364,-0.663,-0.6784,-0.6325,-0.6089,-0.6012,-0.5857,-0.5625,-0.5392,-0.516,-0.5082,-0.5162,-0.5243,-0.5476,-0.5727,-0.5943,-0.5826,-0.5581,0.0,0.0,0.0,0.0,0.0,0.0,0.0,0.0,0.0,0.0,0.0,0.0,0.0,0.0,0.0,0.0,0.0,0.0,0.0,-0.0759,-0.0759,-0.0748,-0.0818,-0.0851,-0.0851,-0.0933,-0.0995,-0.1038,-0.1143,-0.103,-0.0695,-0.0796,-0.0776,-0.0674,-0.0864,-0.1086,-0.1321,-0.1673,-0.1938,-0.2144,-0.2359,-0.242,-0.235,-0.2237,-0.2132,-0.2026,-0.1957,-0.1891,-0.1825,-0.1799,0.0,0.0,0.0,0.0,-0.107,-0.1016,-0.1052,-0.1134,-0.1392,0.0,-0.2859,-0.4459,-0.566,0.0,-0.7311,-0.8089,-0.8697,0.0,0.0,0.0,0.0,0.0,0.0,0.0,0.0,0.0,0.0,0.0,0.0,0.0,0.0,0.0,0.0,0.0,0.0,0.0,0.0,0.0,0.0,0.0,-0.5425,-0.5359,-0.5052,-0.5116,-0.5572,-0.5467,-0.5905,-0.6779,-0.6942,-0.7249,-0.7561,-0.7099,-0.671,-0.6395,-0.6247,-0.6015,-0.578,-0.5392,-0.5318,-0.5398,-0.5476,-0.5709,-0.6116,-0.661,-0.6579,-0.625,0.0,0.0,0.0,0.0,0.0,0.0,0.0,0.0,0.0,0.0,-0.0211,-0.0324,-0.039,-0.0457,0.0,0.0,0.0,0.0,-0.0951,0.0,0.0,-0.0962,-0.102,-0.1064,-0.1064,-0.1177,-0.1226,-0.1177,-0.1475,-0.1158,-0.028,-0.0523,-0.0598,-0.0542,-0.0674,-0.0955,-0.1321,-0.1718,-0.2026,-0.2289,-0.2546,-0.2654,-0.2654,-0.2632,-0.2611,-0.2589,-0.2519,-0.2459,-0.2359,-0.2198,-0.2048,0.0,0.0,0.0,0.0,-0.1148,-0.1223,-0.1338,-0.1339,0.0,-0.3812,0.0,-0.5969,-0.6936,0.0,0.0,0.0,0.0,0.0,0.0,0.0,0.0,0.0,0.0,0.0,0.0,0.0,0.0,0.0,0.0,0.0,0.0,0.0,0.0,0.0,0.0,0.0,0.0,0.0,-0.5686,-0.5418,-0.5156,-0.5209,-0.5352,-0.5572,-0.5857,-0.6307,-0.6998,-0.7483,-0.7723,-0.7804,-0.8025,-0.7868,-0.7326,-0.7103,-0.6795,-0.6483,-0.6257,-0.6022,-0.5864,-0.6103,-0.6335,-0.6518,-0.6887,-0.7138,-0.7282,0.0,0.0,0.0,0.0,0.0,0.0,0.0,0.0,0.0,0.0,0.0,-0.0324,-0.039,-0.049,0.0,0.0,0.0,0.0,-0.1097,-0.1177,0.0,0.0,-0.1177,-0.1232,-0.1266,-0.1362,-0.1394,-0.1373,-0.1667,-0.1661,-0.1361,-0.1121,-0.0686,-0.0128,-0.0479,-0.0891,-0.1321,-0.1718,-0.2092,-0.2425,-0.2659,-0.2853,-0.2999,-0.3186,-0.3255,-0.3249,-0.3232,-0.3175,-0.3061,-0.2677,-0.2437,-0.2285,-0.2004,0.0,0.0,0.0,-0.1386,-0.1539,-0.1919,-0.2813,-0.3929,0.0,-0.6032,-0.6857,-0.7614,0.0,0.0,0.0,0.0,0.0,0.0,0.0,0.0,0.0,0.0,0.0,0.0,0.0,0.0,0.0,0.0,0.0,0.0,0.0,0.0,0.0,0.0,0.0,-0.6026,-0.5755,-0.559,-0.5464,-0.5463,0.0,-0.5967,-0.618,-0.6592,-0.7291,-0.7294,-0.7565,-0.7953,-0.7944,-0.7868,-0.7795,-0.7484,-0.718,-0.6872,-0.6493,-0.6257,-0.618,-0.6412,-0.6486,-0.6666,-0.7129,-0.7331,-0.7476,0.0,0.0,0.0,0.0,0.0,0.0,0.0,0.0,0.0,0.0,0.0,0.0,-0.0368,0.0,0.0,0.0,0.0,0.0,-0.121,0.0,0.0,0.0,0.0,-0.1373,-0.1426,-0.1507,-0.1545,-0.1523,-0.184,-0.1973,-0.1949,-0.1721,-0.1056,-0.0028,-0.0449,-0.0883,-0.1321,-0.1718,-0.2136,-0.256,-0.288,-0.3173,-0.3453,-0.3825,-0.4016,-0.4087,-0.4095,-0.4016,-0.3874,0.0,0.0,0.0,0.0,0.0,0.0,0.0,0.0,-0.1723,0.0,0.0,-0.3752,-0.5105,-0.5893,-0.6601,0.0,0.0,0.0,0.0,0.0,0.0,0.0,0.0,0.0,0.0,0.0,0.0,0.0,0.0,0.0,0.0,0.0,0.0,0.0,0.0,0.0,0.0,0.0,0.0,-0.6071,-0.5737,-0.5648,-0.5825,-0.5766,-0.6002,-0.6625,-0.6931,-0.7342,-0.7863,-0.7476,-0.7633,-0.8327,-0.7868,-0.7944,-0.8408,-0.7791,-0.7407,-0.7184,-0.6567,-0.6338,-0.6412,-0.6563,-0.6641,-0.6813,-0.7205,-0.7426,-0.756,0.0,0.0,0.0,0.0,0.0,0.0,0.0,0.0,0.0,0.0,0.0,0.0,-0.029,-0.0424,-0.0581,-0.0784,0.0,0.0,0.0,0.0,0.0,0.0,0.0,0.0,-0.1496,-0.1625,-0.1664,-0.1593,-0.2056,-0.1837,-0.0999,-0.2031,-0.1833,-0.0555,-0.0666,-0.0927,-0.1321,-0.1718,-0.2176,-0.2647,-0.3307,-0.3728,-0.4005,-0.448,-0.4835,-0.5132,-0.5124,0.0,0.0,0.0,0.0,0.0,0.0,-0.2389,-0.2132,0.0,0.0,0.0,0.0,-0.305,0.0,-0.467,-0.5548,0.0,0.0,0.0,0.0,0.0,0.0,0.0,0.0,0.0,0.0,0.0,0.0,0.0,0.0,0.0,0.0,0.0,0.0,0.0,0.0,0.0,0.0,0.0,0.0,0.0,-0.5903,-0.5697,-0.5701,-0.5914,-0.6216,-0.6734,-0.7522,-0.8407,-0.8912,-0.8922,-0.8551,-0.8551,-0.8927,-0.8327,-0.8484,-0.917,-0.8021,-0.7407,-0.7184,-0.6567,-0.6412,-0.6563,-0.6563,-0.6795,-0.72,-0.7363,-0.7589,-0.7809,0.0,0.0,0.0,0.0,0.0,0.0,0.0,0.0,0.0,0.0,0.0,0.0,0.0,-0.0335,-0.0513,-0.0718,-0.098,0.0,0.0,0.0,0.0,0.0,0.0,0.0,0.0,-0.1653,-0.1706,-0.1725,-0.2019,-0.1976,-0.1628,-0.2114,-0.2012,-0.1431,-0.136,-0.141,-0.1513,-0.1887,-0.2395,-0.304,-0.3578,-0.4068,-0.4577,-0.5132,-0.5464,-0.5664,-0.5638,0.0,0.0,0.0,0.0,0.0,-0.3389,-0.2905,-0.246,-0.2223,-0.2054,-0.2021,0.0,0.0,0.0,-0.4427,-0.5198,-0.5879,0.0,0.0,0.0,0.0,0.0,0.0,0.0,0.0,0.0,0.0,0.0,0.0,0.0,0.0,0.0,0.0,0.0,0.0,0.0,0.0,0.0,0.0,0.0,0.0,-0.6515,-0.638,-0.6287,-0.6329,-0.6808,-0.736,-0.8061,-0.8503,-0.8866,-0.915,-0.8627,-0.8856,-0.976,-0.8856,-0.9084,-0.9992,-0.9074,-0.8313,-0.7706,-0.7019,-0.6637,-0.6641,-0.7022,-0.7253,-0.7415,-0.7712,-0.7969,-0.8166,0.0,0.0,0.0,0.0,0.0,0.0,0.0,0.0,0.0,0.0379,0.0,0.0,0.0,0.0,-0.0446,-0.0706,-0.1002,-0.1199,-0.1291,-0.1427,0.0,0.0,0.0,0.0,0.0,-0.1664,-0.1728,-0.1774,-0.1971,-0.2035,-0.1966,-0.2097,-0.211,-0.2019,-0.1931,-0.1809,-0.1755,-0.2102,-0.2662,-0.3386,-0.3933,-0.4587,-0.5292,-0.5929,-0.6517,-0.6999,0.0,0.0,0.0,0.0,0.0,0.0,-0.4301,-0.3585,-0.2871,-0.2482,-0.2315,-0.2279,-0.2542,0.0,0.0,0.0,0.0,-0.5349,0.0,0.0,0.0,0.0,0.0,0.0,0.0,0.0,0.0,0.0,0.0,0.0,0.0,0.0,0.0,0.0,0.0,0.0,0.0,0.0,0.0,0.0,0.0,0.0,-0.6861,-0.6789,-0.68,-0.7053,-0.7622,-0.8221,-0.8794,-0.9011,-0.9368,-0.981,-0.9299,-0.9564,-1.0541,-0.9718,-0.9906,-1.0887,-0.9981,-0.9074,-0.8161,-0.7548,-0.7169,-0.6945,-0.7403,-0.7638,-0.7714,-0.8025,-0.8181,-0.8378,0.0,0.0,0.0,0.0,0.0,0.0,0.0,0.0,0.0659,0.0526,0.0,0.0,0.0,0.0,0.0,-0.0762,-0.098,-0.1156,-0.1291,-0.1427,0.0,0.0,0.0,0.0,-0.1593,-0.1664,-0.1696,-0.1696,-0.189,-0.1953,-0.189,-0.2033,-0.2171,-0.2301,-0.2245,-0.2147,-0.2052,-0.2389,-0.2938,-0.3682,0.0,-0.5264,-0.6215,0.0,-0.7995,0.0,-0.9149,-0.9172,0.0,-0.8549,0.0,0.0,-0.5414,-0.4382,-0.33,-0.269,-0.2609,-0.273,0.0,0.0,0.0,0.0,0.0,0.0,0.0,0.0,0.0,0.0,0.0,0.0,0.0,0.0,0.0,0.0,0.0,0.0,0.0,0.0,0.0,0.0,0.0,0.0,0.0,0.0,0.0,0.0,0.0,-0.6946,-0.6946,-0.6933,-0.7277,-0.8025,-0.8705,-0.9298,-0.9695,-1.0113,-1.0453,-1.0805,-1.0562,-1.0689,-1.1209,-1.0739,-1.0932,-1.1694,-1.0663,-0.9533,-0.8479,-0.8237,-0.7855,-0.7561,-0.7706,-0.794,-0.8102,-0.8102,-0.8102,-0.8282,0.0,0.0,0.0,0.0,0.0,0.109,0.1024,0.0918,0.0818,0.0,0.0,0.0,0.0267,-0.0111,-0.0446,-0.0706,-0.0911,-0.1086,-0.1221,-0.1356,-0.1432,-0.1426,-0.1485,-0.1534,-0.1534,-0.1545,-0.1583,-0.1625,-0.1677,-0.1702,-0.1691,-0.1875,-0.2083,-0.2308,-0.2438,-0.2631,-0.2859,-0.2869,0.0,-0.4211,-0.4719,-0.5649,0.0,0.0,0.0,0.0,0.0,-0.9597,-0.9825,0.0,-0.8716,-0.7422,0.0,-0.4528,-0.3674,-0.3266,-0.305,-0.2901,-0.2889,0.0,0.0,0.0,0.0,0.0,0.0,0.0,0.0,0.0,0.0,0.0,0.0,0.0,0.0,0.0,0.0,0.0,0.0,0.0,0.0,0.0,0.0,0.0,0.0,0.0,0.0,0.0,-0.7722,-0.7787,-0.8037,-0.7847,-0.8007,-0.8723,-0.8924,-0.9311,-0.9841,-1.0178,-1.0609,-1.1011,-1.0735,-1.0975,-1.1557,-1.1196,-1.1401,-1.1997,-1.1544,-1.0881,-1.0062,-0.9003,-0.8399,-0.8174,-0.8246,-0.825,-0.8327,-0.8475,-0.878,-0.9175,0.0,0.0,0.0,0.0,0.128,0.1247,0.1156,0.1046,0.0947,0.0,0.0,0.0,0.029,-0.0059,-0.0372,-0.0597,-0.0801,-0.0987,-0.1145,-0.1258,-0.1324,-0.1357,-0.1421,-0.1464,-0.1464,-0.1464,-0.1485,-0.1555,-0.1555,-0.1555,-0.1561,-0.1686,-0.1962,-0.2396,-0.253,-0.2881,-0.3366,-0.3345,0.0,0.0,-0.5148,0.0,0.0,-0.8151,-0.9094,0.0,0.0,0.0,-1.1044,-1.0835,-0.9858,0.0,0.0,-0.5203,-0.4609,-0.4,-0.37,-0.3577,-0.3536,-0.3688,-0.393,0.0,0.0,0.0,0.0,0.0,0.0,0.0,0.0,0.0,0.0,0.0,0.0,0.0,0.0,0.0,0.0,0.0,0.0,0.0,0.0,0.0,0.0,0.0,0.0,0.0,-0.8371,-0.8501,-0.8689,-0.863,-0.8759,-0.9204,-0.928,-0.955,-1.0033,-1.0354,-1.0699,-1.1128,-1.1115,-1.137,-1.1727,-1.1681,-1.1893,-1.2193,-1.1847,-1.1388,-1.0881,-0.9718,-0.9008,-0.8627,-0.8551,-0.8551,-0.8551,-0.8932,-0.9316,-0.962,0.0,0.0,0.148,0.1427,0.1421,0.1372,0.1254,0.1166,0.1072,0.0,0.0814,0.0591,0.027,0.0027,-0.0217,-0.0477,-0.0687,-0.0885,-0.1081,-0.1153,-0.1221,-0.128,-0.1346,-0.1373,-0.1373,-0.1384,-0.1421,-0.148,-0.1485,-0.1496,-0.1496,-0.1536,-0.1895,-0.2512,-0.2614,-0.3035,-0.3633,-0.3808,0.0,-0.494,-0.57,-0.6807,0.0,0.0,-1.0508,-1.15,-1.2056,-1.2368,-1.2451,-1.2126,-1.0835,0.0,0.0,-0.6261,-0.5747,-0.4816,-0.4509,-0.4455,-0.4455,-0.4501,-0.4635,-0.5005,0.0,0.0,-0.5724,-0.6264,0.0,0.0,0.0,0.0,0.0,0.0,0.0,0.0,0.0,0.0,0.0,0.0,0.0,0.0,0.0,0.0,0.0,0.0,-0.8619,-0.8619,-0.8947,-0.9081,-0.9087,-0.921,-0.9396,-0.9518,-0.9728,-0.9989,-1.0308,-1.0561,-1.0814,-1.1129,-1.1596,-1.179,-1.1739,-1.2062,-1.2272,-1.2219,-1.1837,-1.1462,-1.119,-1.037,-0.9664,-0.9079,-0.8851,-0.8775,-0.8932,-0.9468,-0.9771,-0.9841,0.0,0.1496,0.1513,0.1551,0.1518,0.147,0.1448,0.1297,0.119,0.1211,0.0958,0.0693,0.0471,0.0064,-0.0274,-0.0488,-0.0688,-0.0888,-0.1082,-0.111,-0.1156,-0.121,-0.1232,-0.1243,-0.1243,-0.1286,-0.1324,-0.1335,-0.1389,-0.1453,-0.1502,-0.178,-0.214,-0.26,-0.2931,-0.3358,-0.3863,-0.4208,0.0,-0.5513,-0.6244,0.0,-0.9314,-1.0554,-1.1631,-1.2484,-1.2887,-1.3155,-1.3145,-1.2811,-1.1815,-1.0508,0.0,0.0,-0.6098,-0.5542,-0.509,-0.4796,-0.4736,-0.4807,-0.4926,-0.5072,0.0,0.0,-0.5782,-0.6142,0.0,0.0,0.0,0.0,0.0,0.0,0.0,0.0,0.0,0.0,0.0,0.0,0.0,0.0,0.0,0.0,0.0,0.0,-0.9204,-0.9326,-0.9594,-0.9728,-0.967,-0.9408,-0.9402,-0.9734,-0.9804,-1.0053,-1.0561,-1.0933,-1.1185,-1.1247,-1.1619,-1.1648,-1.141,-1.1725,-1.1875,-1.189,-1.1723,-1.1648,-1.1536,-1.0963,-1.0256,-0.9468,-0.9468,-0.9544,-0.969,-1.0143,-1.0663,-1.0962,0.1545,0.1583,0.1615,0.1642,0.1593,0.1534,0.1507,0.1444,0.1373,0.131,0.1098,0.0784,0.0355,0.0035,-0.0303,-0.0711,-0.0845,-0.0981,-0.1194,-0.1228,-0.1242,-0.1206,-0.1227,-0.1221,-0.1156,-0.121,-0.1269,-0.1307,-0.1367,-0.1437,-0.1502,-0.1871,-0.2281,-0.2724,-0.3115,-0.356,-0.4029,0.0,-0.5033,-0.5787,-0.6713,0.0,-0.9014,-1.0427,-1.1469,-1.2255,-1.2598,-1.3125,-1.3569,-1.3153,-1.2263,0.0,0.0,-0.8211,-0.6929,0.0,-0.592,-0.5768,-0.56,-0.5631,-0.5744,-0.578,0.0,0.0,0.0,0.0,0.0,0.0,0.0,0.0,0.0,0.0,0.0,0.0,0.0,0.0,0.0,0.0,0.0,0.0,0.0,0.0,0.0,0.0,-0.97,-0.9773,-0.9983,-1.0053,-0.9804,-0.967,-0.967,-0.9862,-1.0053,-1.0308,-1.0681,-1.1115,-1.1365,-1.1435,-1.1622,-1.1622,-1.156,-1.1538,-1.161,-1.1696,-1.1546,-1.1404,-1.131,-1.1249,-1.0713,-0.9879,-0.9974,-1.0143,-1.0293,-1.0738,-1.1111,-1.1335,0.1604,0.1642,0.1685,0.1702,0.1642,0.1583,0.1513,0.1541,0.1514,0.1312,0.1187,0.0805,-0.0038,-0.0268,-0.0617,-0.1193,-0.1256,-0.1289,-0.1323,-0.1432,-0.1444,-0.1267,-0.1308,-0.1281,-0.1172,-0.1201,-0.1258,-0.1338,-0.1382,-0.147,-0.161,-0.2009,-0.2445,-0.2919,-0.3332,-0.3773,-0.4234,0.0,0.0,-0.6156,0.0,-0.7956,-0.8648,-1.0267,-1.1372,-1.2109,-1.256,-1.3311,-1.3962,-1.3511,-1.2525,-1.1274,-0.9821,-0.8697,0.0,0.0,0.0,0.0,0.0,0.0,0.0,0.0,0.0,-0.6833,0.0,0.0,0.0,-0.7153,0.0,0.0,0.0,0.0,0.0,0.0,0.0,0.0,0.0,0.0,0.0,0.0,0.0,0.0,0.0,0.0,-0.9846,-0.9939,-1.0045,-1.0101,-0.9844,-0.9837,-0.9862,-1.0047,-1.0364,-1.0611,-1.087,-1.124,-1.1428,-1.1622,-1.156,-1.156,-1.1677,-1.1303,-1.1247,-1.1512,-1.1316,-1.1145,-1.108,-1.152,-1.1333,-1.0641,-1.0627,-1.0668,-1.0742,-1.1255,-1.1514,-1.1558,0.1604,0.1604,0.1625,0.1685,0.1642,0.1583,0.1513,0.1509,0.1439,0.1237,0.1198,0.065,-0.0817,-0.1187,-0.1561,-0.2116,-0.2198,0.0,-0.1437,0.0,-0.1798,-0.1478,-0.1476,-0.1475,-0.1452,-0.1349,-0.1357,-0.1486,-0.1419,-0.1593,-0.1956,-0.2355,-0.2792,-0.3264,-0.3717,-0.4194,-0.4656,0.0,-0.5884,0.0,-0.7884,-0.8686,0.0,-1.1479,-1.2582,-1.3355,-1.4326,-1.4602,-1.4475,0.0,-1.3016,-1.1408,0.0,-0.9541,-0.8054,-0.7939,0.0,0.0,0.0,0.0,0.0,0.0,-0.6906,0.0,0.0,0.0,-0.7028,-0.7028,0.0,0.0,0.0,0.0,0.0,0.0,0.0,0.0,0.0,0.0,0.0,0.0,0.0,0.0,0.0,0.0,0.0,-0.9627,-0.9688,-0.9768,-1.0032,-0.992,-0.9926,-1.0244,-1.0498,-1.0744,-1.1059,-1.1498,-1.1685,-1.1622,-1.1435,-1.131,-1.1185,-1.0618,-1.0744,-1.1324,-1.1323,-1.1424,-1.174,-1.2341,-1.2465,-1.2147,-1.1501,-1.1194,-1.1266,-1.1703,-1.2005,-1.215,0.1593,0.1604,0.1593,0.1583,0.1555,0.1502,0.1394,0.1348,0.1332,0.1375,0.0895,0.0131,-0.0989,0.0,0.0,0.0,0.0,-0.2541,0.0,0.0,-0.2476,-0.2105,-0.1973,-0.181,-0.1612,-0.1636,-0.1689,-0.1785,-0.1879,-0.2076,-0.2361,-0.2799,-0.3143,-0.3439,-0.4104,-0.4845,-0.5599,0.0,-0.6837,0.0,0.0,0.0,0.0,-1.1019,-1.2194,-1.3439,-1.4879,-1.5117,-1.4765,0.0,-1.3705,0.0,0.0,0.0,0.0,0.0,0.0,0.0,0.0,0.0,0.0,0.0,0.0,0.0,-0.714,0.0,-0.7017,0.0,0.0,0.0,0.0,0.0,0.0,0.0,0.0,0.0,0.0,0.0,0.0,0.0,0.0,0.0,0.0,0.0,0.0,0.0,0.0,-0.9862,-1.0055,-1.0127,-1.0367,-1.0737,-1.0744,-1.087,-1.1178,-1.156,-1.1685,-1.1622,-1.1622,-1.1498,-1.1373,-1.1185,-1.1284,-1.1589,-1.1595,-1.1804,-1.2291,-1.2898,-1.2888,-1.2541,-1.2253,-1.2248,-1.2415,-1.2559,-1.2532,-1.2339,0.1518,0.1551,0.1545,0.148,0.1459,0.1403,0.1288,0.1284,0.1226,0.1033,0.0321,0.0,-0.1525,-0.2447,0.0,0.0,-0.3057,-0.3239,0.0,0.0,-0.321,-0.2955,-0.2601,-0.2337,-0.2151,-0.2145,-0.2148,-0.2162,-0.2306,-0.2498,-0.2746,-0.3146,-0.3424,-0.3641,-0.4375,-0.5192,-0.6043,0.0,-0.7469,-0.8629,-0.9457,-1.0018,-1.0387,-1.123,-1.2154,-1.337,-1.5113,-1.5223,-1.465,-1.5023,-1.3975,0.0,-1.2348,0.0,0.0,0.0,0.0,0.0,-0.9263,0.0,0.0,0.0,0.0,0.0,0.0,0.0,0.0,0.0,0.0,0.0,0.0,0.0,0.0,0.0,0.0,0.0,0.0,0.0,0.0,0.0,0.0,0.0,0.0,0.0,0.0,0.0,0.0,0.0,-0.9873,-1.0191,-1.0537,-1.0981,-1.101,-1.1115,-1.1303,-1.1622,-1.1747,-1.1685,-1.1747,-1.1685,-1.1498,-1.1435,-1.1558,-1.179,-1.1898,-1.2255,-1.2766,-1.3415,-1.3385,-1.2871,-1.3029,-1.317,-1.3221,-1.3006,-1.2828,-1.2635,0.1324,0.1416,0.148,0.1416,0.135,0.1283,0.1215,0.1365,0.108,0.0,0.0,0.0,0.0,0.0,0.0,0.0,0.0,-0.4342,-0.3605,0.0,-0.3927,-0.4034,-0.3347,-0.3064,0.0,-0.2943,-0.2697,-0.2578,-0.2584,-0.2765,-0.308,-0.3293,-0.3565,-0.3911,-0.4463,-0.5005,-0.5566,-0.636,-0.7595,-0.9013,-0.9559,-1.0404,-1.1498,0.0,-1.3285,-1.3432,-1.5249,0.0,0.0,-1.4214,-1.3566,0.0,0.0,0.0,0.0,0.0,0.0,0.0,0.0,0.0,0.0,-0.9477,0.0,0.0,0.0,0.0,-0.7095,0.0,0.0,0.0,0.0,0.0,-0.6171,-0.5441,0.0,0.0,0.0,0.0,0.0,0.0,0.0,0.0,0.0,0.0,0.0,0.0,0.0,0.0,-0.9505,-0.9933,-1.0413,-1.0777,-1.1261,-1.1428,-1.1303,-1.1926,-1.2112,-1.1802,-1.1685,-1.1498,-1.1303,-1.0989,-1.1185,-1.1792,-1.2174,-1.2675,-1.3316,-1.3847,-1.3863,-1.3549,-1.3744,-1.3561,-1.3238,-1.248,-1.2663,-1.3178,0.1247,0.1232,0.1227,0.1199,0.0,0.1088,0.1071,0.0902,0.0,0.0,0.0,0.0,0.0,-0.3951,-0.3921,0.0,0.0,-0.4358,-0.416,-0.422,0.0,0.0,0.0,-0.426,0.0,-0.3818,-0.3609,-0.339,-0.3266,-0.3319,-0.3562,-0.3668,-0.3839,-0.4042,-0.4544,-0.5349,0.0,0.0,0.0,0.0,0.0,-1.1856,-1.258,0.0,0.0,-1.3631,-1.4129,-1.4409,0.0,-1.4606,-1.3899,-1.3057,-1.3213,-1.2657,-1.1993,-1.2039,-1.175,0.0,0.0,0.0,-1.0845,-1.0233,0.0,0.0,0.0,0.0,0.0,0.0,0.0,0.0,0.0,0.0,-0.7252,-0.6031,-0.5542,-0.5169,0.0,0.0,0.0,0.0,0.0,0.0,0.0,0.0,0.0,0.0,0.0,0.0,0.0,-0.9854,-1.0501,-1.113,-1.1353,-1.157,-1.1809,-1.1934,-1.1996,-1.1996,-1.1934,-1.1747,-1.1498,-1.1622,-1.174,-1.1954,-1.2435,-1.2864,-1.3325,-1.3858,-1.3926,-1.3701,-1.3531,-1.3563,-1.3592,-1.3124,-1.2863,-1.2699,0.1087,0.104,0.0,0.0,0.0,0.079,0.0691,0.0,0.0,0.0,-0.188,0.0,-0.4123,0.0,-0.4243,0.0,-0.4739,-0.5054,-0.5052,-0.501,0.0,-0.5829,-0.5584,0.0,0.0,0.0,-0.4795,-0.4338,-0.4013,-0.3844,-0.3842,-0.3931,-0.4007,-0.4125,-0.4566,-0.5349,-0.6338,0.0,-0.855,0.0,0.0,-1.2472,0.0,0.0,-1.2654,-1.3396,0.0,-1.4074,-1.4357,-1.4365,-1.3983,-1.3528,-1.363,-1.3172,-1.2619,-1.2619,-1.2283,-1.1981,-1.2321,-1.2024,0.0,-1.1198,-1.0592,0.0,-0.9186,0.0,0.0,0.0,0.0,0.0,0.0,0.0,-0.7906,-0.6746,-0.6031,-0.542,0.0,0.0,0.0,0.0,0.0,0.0,0.0,0.0,-0.5809,-0.6286,0.0,0.0,0.0,0.0,-1.0205,-1.0846,-1.116,-1.1518,-1.2057,-1.1996,-1.2058,-1.2251,-1.2251,-1.2127,-1.1872,-1.2058,-1.218,-1.2258,-1.2765,-1.3203,-1.3549,-1.3999,-1.404,-1.3762,-1.3549,-1.3516,-1.3494,-1.3239,-1.296,-1.2641,0.0,0.0,0.0,0.0,0.0646,0.0,0.0,0.0,-0.0929,0.0,-0.2637,-0.3127,-0.4252,-0.4616,-0.4958,-0.519,-0.5939,0.0,-0.6162,-0.5919,0.0,0.0,-0.6575,-0.6612,-0.7635,0.0,0.0,0.0,-0.4776,-0.4298,-0.3954,-0.4035,-0.4089,-0.4104,-0.4492,0.0,-0.5488,-0.6707,-0.8211,-0.9904,-1.201,-1.2205,-1.1352,-1.2149,0.0,-1.2706,-1.3965,-1.4058,-1.3588,-1.3635,-1.3852,-1.3941,-1.3145,-1.2968,-1.3007,-1.3007,-1.2968,-1.2978,-1.3367,-1.2763,-1.2082,-1.2453,0.0,0.0,0.0,0.0,-0.9769,0.0,0.0,0.0,0.0,0.0,0.0,-0.7517,-0.6708,-0.5881,0.0,0.0,0.0,0.0,0.0,0.0,0.0,-0.5256,-0.553,-0.5596,-0.6608,0.0,0.0,0.0,0.0,-1.0043,-1.0729,-1.1391,-1.1964,-1.218,-1.2381,-1.2597,-1.2613,-1.2498,-1.2305,-1.2305,-1.2428,-1.2645,-1.3082,-1.3474,-1.3832,-1.4323,-1.4255,-1.3798,-1.3798,-1.3472,-1.303,-1.287,-1.2868,-1.3012,0.089,0.0679,0.0458,0.0,0.0253,-0.0217,0.0,0.0,0.0,0.0,-0.3624,-0.3343,-0.4894,-0.5155,-0.538,-0.5692,-0.5692,0.0,0.0,0.0,0.0,-0.6988,-0.6881,-0.7251,-0.8265,-0.6766,0.0,-0.641,0.0,-0.4334,-0.4552,-0.415,-0.3973,-0.4029,0.0,0.0,-0.5362,-0.6093,-0.7813,-1.0124,-1.1673,-1.2175,0.0,0.0,-1.2937,-1.2907,-1.3153,-1.3781,-1.4373,-1.3601,-1.3389,-1.3379,-1.3153,-1.3104,-1.3132,-1.2968,-1.2822,-1.284,-1.337,-1.2851,-1.2267,-1.2568,-1.2206,-1.1593,0.0,0.0,0.0,0.0,0.0,0.0,0.0,0.0,0.0,-0.7888,-0.654,-0.5668,0.0,0.0,0.0,0.0,0.0,0.0,0.0,0.0,-0.5335,-0.5662,0.0,0.0,0.0,0.0,0.0,-0.9794,-1.0768,-1.1314,-1.1351,-1.193,-1.2303,-1.2408,-1.2615,-1.2744,-1.2797,-1.2797,-1.2867,-1.2928,-1.3194,-1.3411,-1.3604,-1.3899,-1.4005,-1.3909,-1.3848,-1.3544,-1.3224,-1.3026,-1.3,-1.301,0.0669,0.0,0.0,-0.0143,0.0,0.0,-0.1883,0.0,0.0,-0.4878,-0.4263,0.0,-0.5429,-0.5794,-0.5904,-0.5893,-0.6164,0.0,-0.6227,0.0,0.0,-0.7775,-0.7646,-0.8063,-0.9283,-0.7665,0.0,-0.7103,0.0,0.0,-0.4533,-0.4131,-0.398,-0.4042,0.0,-0.4501,-0.536,-0.67,-0.8306,-1.0026,-1.1388,0.0,0.0,-1.2842,-1.3175,-1.3293,-1.3133,-1.3681,-1.4399,-1.374,-1.3601,-1.3661,-1.358,-1.3519,-1.347,-1.3103,-1.308,-1.3227,-1.3383,-1.2986,-1.2637,-1.289,-1.2558,-1.2104,-1.178,-1.1912,-1.2273,0.0,0.0,0.0,0.0,0.0,0.0,-0.8373,-0.7135,0.0,0.0,0.0,0.0,0.0,0.0,0.0,0.0,0.0,0.0,0.0,0.0,0.0,0.0,0.0,0.0,-0.9794,-1.0409,-1.1031,-1.1665,-1.1922,-1.2149,-1.2429,-1.2629,-1.2742,-1.2751,-1.3028,-1.3103,-1.305,-1.3338,-1.3571,-1.3761,-1.395,-1.4079,-1.4139,-1.395,-1.3761,-1.3519,-1.3407,-1.3224,-1.2989,0.0,0.0,0.0,0.0,0.0,0.0,0.0,-0.2422,0.0,-0.4618,0.0,-0.5173,-0.603,-0.6504,-0.6537,-0.6183,0.0,-0.7379,-0.6964,-0.7425,-0.8054,-0.8941,-0.8496,-0.8866,-1.0308,-0.8857,0.0,0.0,0.0,0.0,-0.4408,-0.4178,-0.406,-0.4068,0.0,0.0,0.0,-0.7869,-0.9174,-0.9827,-1.121,-1.1948,-1.2268,-1.2757,-1.3246,-1.3641,-1.3509,-1.37,-1.4043,-1.3852,-1.3939,-1.408,-1.3965,-1.3922,-1.3748,-1.3218,-1.337,-1.3632,-1.3431,-1.3106,-1.2926,-1.3349,-1.2859,-1.2407,-1.2753,-1.2753,-1.2881,-1.3488,-1.316,0.0,0.0,0.0,0.0,0.0,0.0,0.0,0.0,0.0,0.0,0.0,0.0,0.0,0.0,0.0,0.0,0.0,0.0,0.0,0.0,0.0,0.0,0.0,-1.0017,0.0,-1.2301,0.0,-1.2156,-1.2541,-1.2757,-1.2722,-1.2605,-1.322,-1.339,-1.3224,-1.3709,-1.401,-1.4189,-1.4318,-1.4387,-1.4387,-1.4139,-1.395,-1.389,-1.383,-1.3528,-1.3103,0.0,0.0,0.0,0.0,0.0,-0.2867,-0.3449,-0.3568,-0.4233,-0.614,-0.5956,-0.6065,-0.7327,-0.7401,-0.7369,-0.7434,-0.7721,0.0,0.0,0.0,0.0,-0.8707,-0.8441,-0.897,-1.0454,-0.8603,-0.8025,0.0,0.0,-0.568,-0.5498,-0.4757,-0.4252,-0.396,0.0,0.0,-0.6631,-0.8342,0.0,-0.9986,-1.1635,-1.2289,-1.2441,-1.2946,-1.329,-1.3435,-1.329,-1.3491,-1.371,-1.3362,-1.3194,-1.3155,-1.3105,-1.3096,-1.3086,-1.2959,-1.2889,-1.3001,-1.3487,-1.3119,-1.2849,-1.4057,-1.3811,-1.3338,-1.3621,-1.3691,-1.3691,-1.3597,-1.3511,-1.3336,-1.3066,0.0,0.0,0.0,0.0,0.0,0.0,0.0,0.0,0.0,0.0,0.0,0.0,0.0,0.0,0.0,0.0,0.0,0.0,0.0,0.0,0.0,0.0,0.0,0.0,0.0,0.0,-1.2263,-1.307,-1.3398,-1.3416,-1.411,-1.4419,-1.4419,-1.4478,-1.4706,-1.5001,-1.4834,-1.4843,-1.4852,-1.4387,-1.4207,-1.4207,-1.4019,-1.389,-1.3769,0.0,0.0,0.0,0.0,0.0,0.0,0.0,-0.4894,0.0,-0.666,-0.6509,-0.669,-0.784,-0.7942,-0.7844,-0.7455,-0.7832,-0.784,-0.7284,-0.8114,-0.8756,-0.904,-0.8895,0.0,-1.036,-0.9035,-0.8511,-0.8881,0.0,-0.6385,-0.5888,-0.5169,-0.4758,-0.4649,0.0,-0.637,0.0,0.0,0.0,-1.0732,-1.1811,-1.2427,-1.2663,-1.287,-1.3045,-1.3248,-1.3094,-1.3145,-1.3293,-1.3402,-1.3608,-1.3828,-1.3603,-1.3525,-1.3486,-1.3161,-1.3258,-1.342,-1.3289,-1.3157,-1.3147,-1.3753,-1.3539,-1.3273,-1.355,-1.3589,-1.3587,-1.3614,-1.3621,-1.3548,-1.3341,-1.2652,0.0,0.0,0.0,0.0,0.0,0.0,0.0,0.0,0.0,0.0,0.0,0.0,0.0,0.0,0.0,0.0,0.0,0.0,0.0,0.0,0.0,0.0,0.0,0.0,0.0,-1.2794,-1.3433,-1.3816,-1.3882,-1.4538,-1.4843,-1.4834,-1.4883,-1.5118,-1.5294,-1.5128,-1.5088,-1.5088,-1.4803,-1.4556,-1.4369,-1.43,-1.4189,-1.4079,0.0,-0.2148,0.0,0.0,-0.3713,0.0,-0.5094,-0.5972,-0.6582,-0.6814,-0.6922,-0.7241,-0.7993,-0.8159,-0.7998,-0.7265,-0.7807,-0.798,-0.7576,-0.8531,-0.922,-0.9373,-0.9361,-0.9587,-1.0097,-0.9522,-0.9121,0.0,0.0,0.0,-0.6152,-0.5729,-0.5642,0.0,0.0,0.0,0.0,0.0,-1.0586,-1.1516,-1.203,-1.2511,-1.2881,-1.2725,-1.2881,-1.3123,-1.2978,-1.3037,-1.3155,-1.3491,-1.3975,-1.438,-1.3975,-1.3867,-1.3799,-1.3365,-1.3501,-1.3714,-1.3152,-1.3183,-1.3418,-1.3533,-1.3302,-1.3133,-1.359,-1.3529,-1.3372,-1.3621,-1.3621,-1.3621,-1.3621,-1.3227,0.0,0.0,0.0,0.0,0.0,0.0,0.0,0.0,0.0,0.0,0.0,0.0,0.0,0.0,0.0,0.0,-0.6561,-0.7144,0.0,0.0,0.0,-1.1208,-1.2658,0.0,-1.2948,0.0,-1.3938,-1.4214,-1.4345,-1.4946,-1.5196,-1.5186,-1.5352,-1.5526,-1.5594,-1.5381,-1.5332,-1.5274,-1.5098,-1.4843,-1.4597,-1.4529,-1.4488,-1.4387,0.0,0.0,0.0,0.0,0.0,0.0,0.0,-0.6139,-0.6619,-0.6943,-0.743,-0.7822,-0.8011,-0.788,-0.7736,-0.7663,-0.7935,-0.8276,-0.8729,-0.9259,-0.9486,-0.9385,-0.9736,-0.9766,-0.9486,-0.9573,-0.9565,0.0,0.0,-0.7821,-0.6727,-0.6844,0.0,0.0,0.0,0.0,0.0,-1.0483,-1.1228,-1.2049,-1.2493,-1.2745,-1.2881,-1.2725,-1.29,-1.318,-1.3113,-1.3382,-1.3751,-1.336,-1.3262,-1.3204,-1.3057,-1.3096,-1.3145,-1.2998,-1.2969,-1.3066,-1.3205,-1.3123,-1.3224,-1.4284,-1.3952,-1.3628,-1.4531,-1.4259,-1.3763,-1.3773,-1.3668,-1.3621,-1.3621,-1.3579,-1.3346,0.0,0.0,0.0,0.0,0.0,0.0,0.0,0.0,0.0,0.0,0.0,0.0,0.0,0.0,0.0,-0.6235,-0.7152,0.0,-0.9068,0.0,-1.1634,-1.2498,-1.3221,0.0,-1.369,-1.4572,-1.4998,-1.5018,-1.5682,-1.5999,-1.5999,-1.6192,-1.6316,-1.6259,-1.5846,-1.5672,-1.5614,-1.5147,-1.497,-1.4911,-1.4775,-1.4656,-1.4656,0.0,0.0,0.0,0.0,0.0,0.0,0.0,-0.6403,-0.6826,-0.6544,-0.7096,-0.7634,-0.7781,-0.7767,-0.7672,-0.7583,-0.7957,-0.8071,-0.7829,-0.8885,-0.9351,-0.8996,-0.9761,-1.0143,-1.0047,-1.0147,-1.0024,0.0,0.0,-0.864,-0.7805,-0.778,0.0,0.0,0.0,-0.9809,-1.0713,-1.131,-1.1859,-1.2378,-1.2609,-1.2627,-1.2578,-1.2735,-1.292,-1.3007,-1.2978,-1.3135,-1.3254,-1.292,-1.3135,-1.3521,-1.3067,-1.2929,-1.2929,-1.2725,-1.2676,-1.2665,-1.2679,-1.285,-1.3096,-1.3661,-1.3734,-1.3805,-1.4376,-1.4137,-1.3821,-1.3821,-1.3668,-1.3621,-1.3621,-1.3621,-1.3418,0.0,0.0,0.0,0.0,0.0,0.0,0.0,0.0,-1.0168,0.0,0.0,0.0,0.0,0.0,0.0,0.0,0.0,0.0,-0.8687,0.0,-1.1443,-1.2494,-1.3247,-1.3924,-1.4553,-1.5144,-1.5509,-1.5735,-1.6099,-1.6296,-1.64,-1.6431,-1.6384,-1.6384,-1.5972,-1.5798,-1.5798,-1.5371,-1.5196,-1.5088,-1.5029,-1.4902,-1.4715,-0.44,0.0,-0.4494,0.0,-0.5452,-0.563,-0.5669,-0.6435,-0.6829,-0.6398,-0.6787,-0.7205,-0.7491,-0.7557,-0.7518,-0.734,-0.7695,-0.7864,-0.7654,-0.8751,-0.9285,-0.9094,-0.9945,0.0,-1.016,-1.0415,-1.0245,-0.9784,-0.9731,0.0,-0.8633,0.0,0.0,0.0,-1.0056,-1.0765,-1.14,-1.1863,-1.2282,-1.2578,-1.2578,-1.2529,-1.248,-1.2676,-1.2783,-1.2881,-1.2881,-1.2881,-1.2881,-1.2676,-1.3116,-1.3571,-1.2969,-1.2832,-1.2832,-1.2578,-1.248,-1.248,-1.2382,-1.2618,-1.291,-1.317,-1.342,-1.3705,-1.4129,-1.3999,-1.3868,-1.3821,-1.3668,-1.3621,-1.3621,-1.3621,-1.3418,-1.2919,0.0,0.0,0.0,0.0,0.0,0.0,-1.0884,-1.052,-1.0072,0.0,0.0,0.0,0.0,0.0,0.0,0.0,0.0,0.0,0.0,0.0,0.0,-1.3236,-1.4136,-1.5154,-1.5573,-1.5898,-1.6181,-1.6316,-1.6431,-1.6524,-1.6431,-1.6384,-1.6374,-1.6077,-1.5972,-1.5856,-1.5604,-1.5371,-1.5264,-1.5215,-1.5029,-1.4775,-0.3949,-0.4478,-0.5005,-0.5005,-0.5173,-0.5389,-0.5653,-0.6173,-0.6568,-0.6666,-0.6715,-0.68,-0.6992,-0.7251,-0.7258,-0.6927,-0.7216,-0.786,-0.889,-0.9051,-0.9345,0.0,0.0,-1.0295,-0.9449,-1.0128,-1.0195,-0.9498,0.0,0.0,-0.9012,0.0,-1.041,-1.0988,-1.1334,-1.1762,-1.2171,-1.2032,-1.2291,-1.2676,-1.2421,-1.2529,-1.2832,-1.248,-1.2529,-1.2881,-1.2735,-1.2783,-1.2881,-1.2881,-1.3055,-1.3132,-1.2666,-1.2686,-1.2832,-1.2578,-1.248,-1.248,-1.248,-1.248,-1.2666,-1.3228,-1.3314,-1.3362,-1.4035,-1.4093,-1.3973,-1.3821,-1.3668,-1.3621,-1.3621,-1.3621,-1.3465,-1.3,0.0,0.0,0.0,0.0,0.0,0.0,-1.0372,-1.008,-1.055,0.0,0.0,0.0,0.0,0.0,0.0,0.0,0.0,-0.9271,-1.0279,0.0,-1.23,-1.3225,-1.4208,-1.5227,-1.5645,-1.605,-1.6384,-1.6384,-1.6384,-1.6384,-1.6384,-1.6384,-1.6374,-1.6181,-1.6009,-1.5914,-1.573,-1.5546,-1.5362,-1.5264,-1.5088,-1.497,-0.4447,-0.4955,-0.537,-0.5512,-0.5925,-0.6157,-0.5815,-0.6435,-0.6823,-0.6477,-0.6894,-0.7271,-0.7396,-0.7591,-0.7715,0.0,-0.8357,-0.8889,0.0,-0.9573,-0.9947,-1.0011,-1.0473,-1.0559,-1.0295,-1.0407,-1.0364,-1.005,0.0,0.0,0.0,-1.0526,-1.0869,-1.1151,-1.1614,-1.1861,-1.1967,-1.2206,-1.2357,-1.2431,-1.2323,-1.2421,-1.2627,-1.2578,-1.2627,-1.2783,-1.2725,-1.2735,-1.2735,-1.2529,-1.2666,-1.2813,-1.2578,-1.2676,-1.2832,-1.2578,-1.248,-1.248,-1.248,-1.2706,-1.3035,-1.3314,-1.3647,-1.3941,-1.428,-1.415,-1.3926,-1.3716,-1.3621,-1.3621,-1.3621,-1.3621,-1.3569,-1.3424,-1.3309,0.0,0.0,0.0,0.0,0.0,-1.1864,-1.164,0.0,-1.129,0.0,0.0,0.0,0.0,0.0,0.0,0.0,0.0,-1.0491,0.0,-1.2575,-1.3299,-1.4291,-1.5476,-1.5742,-1.6095,-1.6524,-1.6431,-1.6431,-1.6524,-1.6431,-1.6384,-1.6374,-1.6181,-1.6056,-1.6009,-1.5788,-1.5672,-1.5604,-1.542,-1.5196,-1.497,-0.4539,-0.4861,-0.511,-0.5321,-0.5663,-0.5818,-0.5577,-0.6413,-0.6898,-0.6538,-0.7157,-0.7702,-0.7759,-0.8275,0.0,-0.8129,-0.8952,-0.9461,-0.9369,-0.9979,-1.0367,-1.0499,-1.0739,-1.0769,-1.0624,0.0,0.0,-1.0213,-1.0514,-1.0755,-1.0925,-1.119,-1.1408,-1.1528,-1.1922,-1.2035,-1.1958,-1.2318,-1.2421,-1.2382,-1.2431,-1.2578,-1.2725,-1.2627,-1.2686,-1.2783,-1.2676,-1.2676,-1.2686,-1.2431,-1.2529,-1.2725,-1.2627,-1.2725,-1.2832,-1.2578,-1.248,-1.2529,-1.2569,-1.2852,-1.3132,-1.3467,-1.38,-1.4093,-1.428,-1.4104,-1.3868,-1.3716,-1.3621,-1.3621,-1.3621,-1.3621,-1.3621,-1.3621,-1.3621,-1.3653,-1.3893,0.0,0.0,0.0,0.0,0.0,0.0,-1.2342,0.0,0.0,0.0,0.0,0.0,0.0,0.0,-1.049,-1.132,0.0,-1.3096,-1.3541,-1.425,-1.526,-1.5658,-1.6095,-1.6534,-1.6431,-1.6431,-1.6534,-1.6431,-1.6384,-1.6374,-1.6249,-1.6181,-1.6056,-1.5846,-1.574,-1.5672,-1.5478,-1.5245,-1.5098,-0.4316,-0.4336,0.0,0.0,-0.4744,0.0,-0.5222,-0.6178,-0.6835,-0.6881,-0.7476,-0.7983,-0.814,-0.9149,-0.9499,-0.8641,0.0,0.0,0.0,-1.0343,-1.0712,-1.1309,-1.1175,-1.0922,-1.0573,-1.0522,-1.036,-1.0102,-1.0667,-1.1074,-1.1377,-1.1778,-1.2026,-1.2126,-1.2274,-1.2224,-1.2126,-1.2382,-1.2529,-1.2529,-1.2627,-1.2881,-1.3036,-1.2676,-1.2686,-1.2832,-1.2578,-1.2578,-1.2676,-1.2578,-1.2686,-1.2881,-1.2725,-1.2832,-1.2881,-1.2627,-1.2529,-1.2569,-1.2754,-1.2852,-1.3045,-1.3678,-1.3821,-1.3905,-1.4129,-1.3999,-1.3821,-1.3773,-1.3668,-1.3621,-1.3621,-1.3621,-1.361,-1.3621,-1.3589,-1.3554,-1.345,0.0,0.0,0.0,0.0,0.0,0.0,-1.2686,-1.2467,0.0,0.0,0.0,0.0,0.0,-1.1818,-1.278,-1.2614,-1.2954,-1.3906,-1.3884,-1.4152,-1.4744,-1.5415,-1.5974,-1.6389,-1.642,-1.6431,-1.6441,-1.6431,-1.6431,-1.6431,-1.6384,-1.6306,-1.6124,-1.5972,-1.5856,-1.5672,-1.5536,-1.5371,-1.5215,0.0,0.0,-0.5311,-0.5445,-0.5937,-0.6428,-0.6746,-0.7103,-0.7393,-0.7635,-0.797,-0.8385,-0.8902,-0.9632,-1.0197,-1.0433,-1.0805,-1.1086,-1.1271,-1.1288,-1.1323,-1.1569,-1.1276,-1.1074,-1.0972,-1.0667,-1.0616,-1.082,-1.1167,-1.1528,-1.1927,-1.2224,-1.2372,-1.2431,-1.2431,-1.2431,-1.2431,-1.2578,-1.2627,-1.2676,-1.2686,-1.2783,-1.2929,-1.2735,-1.2676,-1.2735,-1.2676,-1.2676,-1.2676,-1.2676,-1.2783,-1.2881,-1.2881,-1.2958,-1.3094,-1.2871,-1.291,-1.3025,-1.3074,-1.342,-1.3726,-1.3926,-1.4104,-1.4233,-1.4057,-1.401,-1.3868,-1.3668,-1.3621,-1.3621,-1.3621,-1.3621,-1.3705,-1.3988,-1.369,-1.3559,-1.3905,-1.362,0.0,0.0,-1.3732,-1.4011,-1.418,-1.4127,-1.3946,0.0,0.0,0.0,0.0,0.0,-1.2857,-1.3096,-1.3435,-1.4027,-1.484,-1.4523,-1.4504,-1.487,-1.5521,-1.5962,-1.6176,-1.6423,-1.6591,-1.6705,-1.6591,-1.6524,-1.6524,-1.6431,-1.6374,-1.6306,-1.6124,-1.6009,-1.6009,-1.5846,-1.5604,-1.5362,-0.4587,-0.5093,-0.5543,-0.5813,-0.6201,-0.6607,-0.6999,-0.729,-0.7579,-0.7921,-0.8525,-0.9061,-0.953,-1.026,-1.0855,-1.1259,-1.1469,-1.1628,-1.1728,-1.1678,-1.1678,-1.1728,-1.1469,-1.1326,-1.1276,-1.0871,-1.082,-1.1124,-1.1569,-1.1877,-1.2126,-1.2431,-1.2578,-1.248,-1.2578,-1.2578,-1.2529,-1.2627,-1.2676,-1.2725,-1.2832,-1.2929,-1.2978,-1.2958,-1.2949,-1.29,-1.2871,-1.2881,-1.2881,-1.2832,-1.292,-1.3045,-1.3045,-1.319,-1.3372,-1.3248,-1.3286,-1.342,-1.3515,-1.3773,-1.402,-1.415,-1.4233,-1.4233,-1.4067,-1.3962,-1.3868,-1.3621,-1.3621,-1.3621,-1.3621,-1.3752,-1.3878,-1.385,-1.382,-1.3737,-1.3649,-1.3665,0.0,-1.3679,-1.4082,-1.4425,-1.4413,-1.4463,-1.4334,-1.4036,0.0,0.0,-1.3831,-1.3672,-1.3635,-1.3729,-1.4113,-1.457,-1.5034,-1.4821,-1.4844,-1.5232,-1.538,-1.5648,-1.6105,-1.6148,-1.6403,-1.6807,-1.6427,-1.6392,-1.6581,-1.6488,-1.6384,-1.6374,-1.6181,-1.6114,-1.6056,-1.5961,-1.5788,-1.5662,-0.5111,-0.542,-0.5731,-0.6157,-0.6313,-0.6546,-0.7013,-0.7406,-0.7758,-0.8208,-0.908,-0.9762,-1.0072,-1.0854,-1.1427,-1.1578,-1.1669,-1.1769,-1.1719,-1.1828,-1.1828,-1.1728,-1.1719,-1.1628,-1.1519,-1.1175,-1.1124,-1.1318,-1.1877,-1.2175,-1.2224,-1.2578,-1.2686,-1.2578,-1.2676,-1.2686,-1.2578,-1.2676,-1.2725,-1.2725,-1.2978,-1.3085,-1.3133,-1.318,-1.3218,-1.317,-1.3162,-1.3123,-1.3123,-1.3017,-1.3094,-1.3218,-1.3266,-1.342,-1.3668,-1.3668,-1.3668,-1.3763,-1.3962,-1.402,-1.4104,-1.4326,-1.4326,-1.4176,-1.4057,-1.3915,-1.3763,-1.3716,-1.3705,-1.3716,-1.3752,-1.4035,-1.4106,-1.3629,-1.388,-1.3904,-1.3281,0.0,-1.3831,-1.3742,-1.4112,-1.4367,-1.4376,-1.4191,-1.4129,-1.4129,-1.3905,0.0,0.0,-1.3973,-1.4057,-1.4337,-1.4591,-1.4821,-1.5006,-1.5006,-1.5228,-1.5502,-1.5142,-1.5311,-1.6042,-1.5816,-1.6149,-1.6853,-1.6293,-1.6279,-1.6637,-1.6488,-1.6431,-1.6374,-1.6239,-1.6171,-1.6171,-1.6077,-1.6029,-1.6029,-0.6012,-0.6533,-0.6977,-0.7292,-0.7717,-0.8143,-0.8443,-0.8554,-0.8711,-0.8978,-0.9577,-1.0072,-1.0446,-1.1057,-1.1619,-1.1977,-1.2026,-1.1977,-1.1877,-1.1877,-1.1877,-1.1877,-1.1778,-1.1669,-1.1678,-1.1528,-1.1669,-1.2274,-1.2382,-1.2529,-1.2783,-1.2978,-1.2988,-1.2832,-1.2881,-1.2881,-1.2832,-1.2881,-1.2881,-1.2881,-1.3036,-1.3085,-1.3133,-1.318,-1.3218,-1.3218,-1.317,-1.317,-1.3218,-1.3276,-1.3324,-1.3372,-1.3515,-1.3716,-1.3926,-1.3926,-1.4104,-1.4244,-1.4067,-1.4161,-1.4337,-1.4384,-1.4326,-1.4176,-1.4176,-1.3999,-1.3915,-1.4186,-1.4186,-1.4165,-1.4479,-1.4571,-1.4552,-1.4364,-1.3956,-1.3682,-1.3709,0.0,-1.4164,-1.4413,-1.4572,-1.4642,-1.4631,-1.4075,-1.3705,-1.3705,-1.3668,-1.3716,-1.3973,-1.3868,-1.3915,-1.4067,-1.4494,-1.4932,-1.5502,-1.5615,-1.5502,-1.5165,-1.5088,-1.535,-1.5853,-1.621,-1.6678,-1.7211,-1.6946,-1.6789,-1.6751,-1.6637,-1.6477,-1.6431,-1.6467,-1.6513,-1.6513,-1.6648,-1.6581,-1.6467,-0.6742,-0.7128,-0.7499,-0.7778,-0.8132,-0.8468,-0.8778,-0.8778,-0.8935,-0.9256,-0.9925,-1.0438,-1.071,-1.1418,-1.1877,-1.2076,-1.2076,-1.2076,-1.2026,-1.2026,-1.2026,-1.2026,-1.1927,-1.1927,-1.1927,-1.2166,-1.2363,-1.2569,-1.2754,-1.2949,-1.3045,-1.3094,-1.3094,-1.3045,-1.3045,-1.3055,-1.3036,-1.3036,-1.3036,-1.3027,-1.3104,-1.32,-1.3296,-1.3372,-1.342,-1.342,-1.3314,-1.3314,-1.3314,-1.3467,-1.3621,-1.3763,-1.3894,-1.415,-1.4395,-1.4255,-1.4291,-1.4373,-1.4244,-1.4291,-1.4373,-1.4373,-1.4373,-1.428,-1.4222,-1.4258,-1.4316,-1.4373,-1.4501,-1.4582,-1.4663,-1.4858,-1.4891,-1.4537,-1.4514,0.0,0.0,-1.4491,-1.4705,-1.4673,-1.4665,-1.4617,-1.4444,-1.3941,-1.3621,-1.3621,-1.3621,-1.3668,-1.3868,-1.3773,-1.3763,-1.3868,-1.4397,-1.5014,-1.5723,-1.5524,-1.5334,-1.5213,-1.5213,-1.5455,-1.5928,-1.6137,-1.66,-1.7256,-1.6818,-1.6729,-1.6909,-1.6751,-1.6637,-1.6648,-1.6976,-1.7078,-1.7134,-1.7401,-1.7446,-1.739,-0.7456,-0.7751,-0.8018,-0.8386,-0.8637,-0.8915,-0.9099,-0.9137,-0.924,-0.9555,-1.0226,-1.0772,-1.1015,-1.1669,-1.2076,-1.2076,-1.2076,-1.2076,-1.2076,-1.2175,-1.2175,-1.2076,-1.2175,-1.2323,-1.2461,-1.2852,-1.2997,-1.2842,-1.3122,-1.3266,-1.3266,-1.3266,-1.3266,-1.3266,-1.3208,-1.318,-1.3113,-1.3113,-1.3113,-1.3113,-1.3228,-1.3314,-1.3409,-1.3573,-1.3621,-1.3573,-1.3467,-1.3467,-1.3467,-1.3621,-1.381,-1.4057,-1.4176,-1.4477,-1.473,-1.4523,-1.443,-1.4373,-1.4373,-1.4373,-1.4373,-1.4373,-1.4373,-1.4373,-1.4362,-1.449,-1.4628,-1.4686,-1.4869,-1.5006,-1.4937,-1.5198,-1.5227,-1.4678,0.0,0.0,0.0,-1.4871,-1.5027,-1.4846,-1.4663,-1.4479,-1.4222,-1.3847,-1.3621,-1.3621,-1.3621,-1.3668,-1.3763,-1.3716,-1.3716,-1.3821,-1.4397,-1.496,-1.56,-1.5241,-1.5219,-1.5438,-1.5328,-1.5571,-1.6122,-1.6122,-1.6554,-1.7256,-1.6776,-1.6698,-1.7011,-1.6909,-1.6864,-1.6976,-1.7412,-1.7579,-1.7744,-1.8104,-1.8213,-1.8213,-0.8191,-0.8588,-0.9084,-0.9724,-0.9961,-1.0081,-1.0197,-1.0197,-1.0197,-1.0246,-1.0601,-1.1037,-1.1384,-1.1828,-1.2076,-1.2076,-1.2076,-1.2076,-1.2076,-1.2431,-1.248,-1.2126,-1.248,-1.291,-1.3467,-1.3266,-1.3314,-1.3515,-1.3563,-1.3515,-1.3372,-1.3515,-1.3515,-1.3362,-1.3266,-1.3218,-1.317,-1.317,-1.317,-1.3218,-1.3314,-1.3409,-1.3409,-1.3573,-1.3621,-1.3621,-1.3573,-1.3573,-1.3621,-1.3716,-1.3952,-1.4222,-1.4326,-1.4477,-1.4627,-1.4581,-1.4477,-1.4373,-1.4373,-1.4373,-1.4373,-1.4373,-1.4326,-1.4316,-1.4766,-1.464,-1.464,-1.5367,-1.5379,-1.5345,-1.5659,-1.5748,-1.558,-1.5042,0.0,0.0,-1.4971,-1.4611,-1.4591,-1.5209,-1.4651,-1.4222,-1.4222,-1.3847,-1.3621,-1.3621,-1.3621,-1.3668,-1.3763,-1.3763,-1.3868,-1.3973,-1.4446,-1.48,-1.4941,-1.5078,-1.5334,-1.5771,-1.5433,-1.5697,-1.647,-1.6587,-1.6884,-1.7278,-1.7234,-1.7112,-1.7011,-1.7011,-1.7179,-1.7468,-1.7645,-1.792,-1.8278,-1.8506,-1.856,-1.856,-0.8766,-0.9033,-0.9352,-0.9715,-0.9795,-0.9843,-0.9847,-0.987,-0.9951,-1.0277,-1.0663,-1.1059,-1.1484,-1.1927,-1.2224,-1.2224,-1.2274,-1.2421,-1.252,-1.2666,-1.2764,-1.2793,-1.3094,-1.3382,-1.3621,-1.3668,-1.3773,-1.3868,-1.3868,-1.3821,-1.3763,-1.3821,-1.3821,-1.3773,-1.3716,-1.3621,-1.3467,-1.3467,-1.3467,-1.3467,-1.3409,-1.3515,-1.3621,-1.361,-1.3621,-1.3621,-1.3621,-1.3621,-1.361,-1.3868,-1.415,-1.443,-1.4419,-1.4605,-1.4891,-1.4673,-1.4569,-1.4558,-1.4419,-1.4373,-1.4373,-1.4373,-1.4373,-1.4373,-1.4558,-1.4789,-1.5028,-1.5244,-1.5513,-1.5736,-1.5792,-1.5792,-1.5732,-1.5528,0.0,-1.5417,-1.5417,-1.5054,-1.4812,-1.4869,-1.4466,-1.4082,-1.3847,-1.3705,-1.3621,-1.3621,-1.3621,-1.3621,-1.3668,-1.3668,-1.3773,-1.3973,-1.418,-1.4313,-1.4445,-1.4599,-1.4803,-1.5037,-1.5417,-1.5789,-1.6203,-1.6818,-1.7159,-1.7278,-1.7278,-1.7267,-1.7211,-1.7211,-1.7423,-1.7799,-1.8127,-1.8494,-1.891,-1.9226,-1.9331,-1.9331,-0.9223,-0.9402,-0.9665,-0.9893,-0.9848,-0.9814,-0.9832,-0.9815,-0.9996,-1.0509,-1.0804,-1.1158,-1.1774,-1.2224,-1.2471,-1.2471,-1.2618,-1.2803,-1.29,-1.3045,-1.319,-1.3362,-1.3563,-1.3716,-1.3847,-1.3999,-1.4057,-1.4057,-1.4057,-1.4057,-1.4057,-1.4057,-1.4057,-1.4057,-1.402,-1.3915,-1.3716,-1.3716,-1.3716,-1.3716,-1.3621,-1.3716,-1.3868,-1.3763,-1.3716,-1.3716,-1.3716,-1.3716,-1.3763,-1.4057,-1.4384,-1.4708,-1.4743,-1.4971,-1.5153,-1.4903,-1.48,-1.4789,-1.4743,-1.4697,-1.4605,-1.4558,-1.4651,-1.4743,-1.4743,-1.5108,-1.5435,-1.5289,-1.5635,-1.5913,-1.5703,-1.5748,-1.5703,-1.5513,-1.5525,-1.5537,-1.5379,-1.4914,-1.4507,-1.4292,-1.4006,-1.3776,-1.345,-1.3585,-1.3668,-1.3716,-1.3668,-1.3668,-1.3668,-1.3668,-1.3716,-1.3868,-1.3915,-1.3962,-1.4093,-1.4233,-1.4449,-1.4719,-1.523,-1.5673,-1.5939,-1.6567,-1.6874,-1.6874,-1.6874,-1.707,-1.7312,-1.7312,-1.7718,-1.8333,-1.8655,-1.9028,-1.9448,-1.9695,-1.9798,-1.9798,-0.9504,-0.9758,-1.0148,-1.0508,-1.0436,-1.0312,-1.0282,-1.0312,-1.0493,-1.1032,-1.1088,-1.1452,-1.2385,-1.2666,-1.2803,-1.2803,-1.3035,-1.3218,-1.3208,-1.3573,-1.3821,-1.3821,-1.3821,-1.3999,-1.4384,-1.428,-1.4222,-1.4222,-1.4222,-1.4222,-1.4222,-1.4222,-1.4222,-1.4176,-1.4057,-1.402,-1.402,-1.402,-1.402,-1.402,-1.402,-1.402,-1.402,-1.402,-1.402,-1.402,-1.402,-1.402,-1.4067,-1.4373,-1.4674,-1.4994,-1.5367,-1.5513,-1.5468,-1.5345,-1.521,-1.5153,-1.5424,-1.5289,-1.5062,-1.496,-1.5187,-1.5513,-1.5513,-1.5647,-1.5792,-1.5635,-1.5812,-1.5869,-1.539,-1.5582,-1.5558,-1.4835,-1.5051,-1.5153,-1.4744,-1.4004,-1.3487,-1.3487,-1.3242,-1.3107,-1.3118,-1.3537,-1.3858,-1.3973,-1.3868,-1.3821,-1.3821,-1.3821,-1.3716,-1.3621,-1.3716,-1.3821,-1.3821,-1.4035,-1.4413,-1.4887,-1.4898,-1.5196,-1.5774,-1.5785,-1.5877,-1.6008,-1.6008,-1.6542,-1.7369,-1.7422,-1.8078,-1.9174,-1.9174,-1.9436,-1.9798,-1.9798,-1.9798,-1.9798,-0.987,-1.0043,-1.0249,-1.0371,-1.0331,-1.0252,-1.0108,-1.012,-1.0406,-1.1038,-1.1123,-1.1533,-1.2385,-1.2745,-1.2977,-1.3074,-1.342,-1.3752,-1.4035,-1.4337,-1.4488,-1.4488,-1.4337,-1.428,-1.4373,-1.4373,-1.4326,-1.4326,-1.4326,-1.4326,-1.4326,-1.4326,-1.4326,-1.4326,-1.4291,-1.4244,-1.414,-1.414,-1.414,-1.414,-1.4057,-1.4057,-1.414,-1.4057,-1.402,-1.402,-1.402,-1.415,-1.4373,-1.4455,-1.4915,-1.5412,-1.5546,-1.5546,-1.5468,-1.5255,-1.5244,-1.5379,-1.5244,-1.5334,-1.5457,-1.5534,-1.5534,-1.5546,-1.5668,-1.5913,-1.6069,-1.6013,-1.6175,-1.6219,-1.61,-1.61,-1.5847,-1.5105,-1.4928,-1.4627,-1.3959,-1.3365,-1.2979,-1.2883,-1.2711,-1.2805,-1.3186,-1.3435,-1.375,-1.4118,-1.401,-1.3926,-1.3926,-1.3926,-1.3915,-1.3868,-1.3915,-1.3915,-1.3821,-1.3962,-1.4215,-1.4544,-1.4785,-1.5083,-1.5444,-1.5774,-1.5968,-1.6008,-1.6249,-1.653,-1.6779,-1.6981,-1.7414,-1.8054,-1.8481,-1.8881,-1.9309,-1.9788,-1.9862,-1.9798,-1.0244,-1.0322,-1.0428,-1.0428,-1.0508,-1.0478,-1.0156,-1.0311,-1.0659,-1.1301,-1.1431,-1.1795,-1.2812,-1.3228,-1.3505,-1.3752,-1.4093,-1.4373,-1.4605,-1.4754,-1.4811,-1.4787,-1.4627,-1.4523,-1.4477,-1.443,-1.4373,-1.4373,-1.4373,-1.4373,-1.4373,-1.4373,-1.4373,-1.4373,-1.4373,-1.4373,-1.428,-1.428,-1.428,-1.428,-1.4197,-1.4197,-1.428,-1.4197,-1.415,-1.4197,-1.4326,-1.4512,-1.4686,-1.4994,-1.5457,-1.5901,-1.5901,-1.5869,-1.5748,-1.5558,-1.5603,-1.5691,-1.568,-1.568,-1.5768,-1.6151,-1.6064,-1.5901,-1.5964,-1.6219,-1.6374,-1.6244,-1.6318,-1.6392,-1.6262,-1.6262,-1.6077,-1.5305,-1.5073,-1.474,-1.4053,-1.3299,-1.2816,-1.2816,-1.2732,-1.284,-1.3271,-1.3695,-1.4033,-1.4351,-1.4291,-1.4255,-1.4255,-1.415,-1.4104,-1.4104,-1.415,-1.415,-1.4093,-1.415,-1.4197,-1.4326,-1.462,-1.4869,-1.5093,-1.5456,-1.5676,-1.5736,-1.6003,-1.6395,-1.6776,-1.6979,-1.7351,-1.7918,-1.8301,-1.862,-1.8925,-1.9353,-1.9419,-1.9382,-1.0659,-1.0621,-1.0621,-1.0621,-1.0855,-1.0864,-1.042,-1.0735,-1.1192,-1.1714,-1.1807,-1.226,-1.3403,-1.3831,-1.4143,-1.4514,-1.4903,-1.5096,-1.4949,-1.4949,-1.4926,-1.4868,-1.4822,-1.4765,-1.4627,-1.4523,-1.443,-1.443,-1.443,-1.443,-1.443,-1.443,-1.443,-1.443,-1.443,-1.443,-1.443,-1.443,-1.443,-1.443,-1.443,-1.443,-1.4419,-1.443,-1.443,-1.4477,-1.4777,-1.4949,-1.5085,-1.5812,-1.6219,-1.6392,-1.6392,-1.6318,-1.62,-1.62,-1.6088,-1.6088,-1.6392,-1.6175,-1.6013,-1.6705,-1.6693,-1.6522,-1.6411,-1.6565,-1.6633,-1.6362,-1.6448,-1.6436,-1.6163,-1.6337,-1.6281,-1.5463,-1.5374,-1.525,-1.4756,-1.3693,-1.2949,-1.3054,-1.3095,-1.3189,-1.3298,-1.4094,-1.4627,-1.4627,-1.4627,-1.4627,-1.4627,-1.4373,-1.4269,-1.4269,-1.4419,-1.4512,-1.4593,-1.4547,-1.4455,-1.4316,-1.4523,-1.4719,-1.4914,-1.5074,-1.5244,-1.539,-1.5591,-1.6268,-1.7185,-1.7185,-1.7667,-1.8413,-1.8418,-1.8524,-1.8662,-1.8714,-1.874,-1.8804,-1.0843,-1.0843,-1.0881,-1.0957,-1.1051,-1.0995,-1.0784,-1.0933,-1.116,-1.145,-1.1747,-1.2172,-1.2677,-1.3532,-1.4116,-1.4204,-1.4967,-1.5424,-1.5379,-1.5379,-1.5334,-1.5176,-1.5074,-1.4971,-1.4823,-1.4765,-1.473,-1.473,-1.473,-1.473,-1.473,-1.473,-1.473,-1.473,-1.473,-1.4627,-1.4581,-1.4581,-1.4581,-1.4581,-1.4581,-1.4627,-1.4684,-1.4581,-1.4627,-1.4719,-1.4869,-1.513,-1.5534,-1.6163,-1.6392,-1.6392,-1.6392,-1.6318,-1.62,-1.62,-1.62,-1.6188,-1.6231,-1.6188,-1.6188,-1.6522,-1.6693,-1.6833,-1.682,-1.6876,-1.696,-1.6989,-1.6947,-1.6863,-1.6778,-1.6791,-1.6553,-1.5807,-1.5637,-1.5311,-1.4581,-1.3749,-1.3128,-1.2878,-1.3089,-1.333,-1.3447,-1.4391,-1.4971,-1.4823,-1.4811,-1.4719,-1.4662,-1.4731,-1.4766,-1.4766,-1.4994,-1.513,-1.513,-1.5344,-1.54,-1.5232,-1.496,-1.5085,-1.5579,-1.5724,-1.5844,-1.5952,-1.6324,-1.6615,-1.6901,-1.7115,-1.7333,-1.7531,-1.793,-1.8111,-1.8208,-1.8812,-1.8937,-1.8871,-1.0968,-1.1006,-1.1044,-1.112,-1.1337,-1.139,-1.1082,-1.142,-1.1722,-1.18,-1.211,-1.2622,-1.3395,-1.3996,-1.4474,-1.4859,-1.536,-1.5614,-1.5614,-1.5614,-1.5525,-1.539,-1.5334,-1.5244,-1.5108,-1.5119,-1.504,-1.4846,-1.4891,-1.4891,-1.4846,-1.4891,-1.4891,-1.4846,-1.4846,-1.4846,-1.4846,-1.4789,-1.4789,-1.4846,-1.4983,-1.5074,-1.5119,-1.5074,-1.5119,-1.521,-1.5367,-1.5668,-1.6076,-1.638,-1.6479,-1.6392,-1.6392,-1.6362,-1.6318,-1.6318,-1.6318,-1.6318,-1.6491,-1.6448,-1.6405,-1.6735,-1.6892,-1.6934,-1.6989,-1.7044,-1.7115,-1.7199,-1.7073,-1.7002,-1.7073,-1.7086,-1.6899,-1.6437,-1.6236,-1.5869,-1.5129,-1.4377,-1.3734,-1.3317,-1.3636,-1.4065,-1.4545,-1.5107,-1.5379,-1.5322,-1.5255,-1.5255,-1.5424,-1.5355,-1.5355,-1.54,-1.5635,-1.5768,-1.5888,-1.5964,-1.6151,-1.6293,-1.5788,-1.5744,-1.6051,-1.6281,-1.6411,-1.6429,-1.6795,-1.6976,-1.7115,-1.7253,-1.7323,-1.7391,-1.7652,-1.7813,-1.7909,-1.8269,-1.8561,-1.8755,-1.1082,-1.112,-1.1158,-1.1223,-1.157,-1.1687,-1.1389,-1.1828,-1.2263,-1.2302,-1.2571,-1.3159,-1.4293,-1.4606,-1.5064,-1.5788,-1.5881,-1.5836,-1.5804,-1.5748,-1.5703,-1.5558,-1.5558,-1.548,-1.5345,-1.548,-1.5334,-1.496,-1.5108,-1.5096,-1.4994,-1.5096,-1.5096,-1.4994,-1.4994,-1.5051,-1.5108,-1.5006,-1.5051,-1.5198,-1.5424,-1.5546,-1.5603,-1.5635,-1.5635,-1.568,-1.5901,-1.6219,-1.6522,-1.6522,-1.6479,-1.6436,-1.6436,-1.6436,-1.6436,-1.6436,-1.6436,-1.6479,-1.6748,-1.6693,-1.665,-1.7031,-1.7102,-1.7047,-1.6989,-1.7115,-1.7199,-1.7199,-1.7115,-1.7086,-1.7199,-1.7133,-1.7027,-1.6902,-1.6674,-1.6357,-1.5878,-1.5176,-1.4497,-1.4076,-1.4347,-1.4906,-1.577,-1.5908,-1.5913,-1.5869,-1.5768,-1.5856,-1.6188,-1.602,-1.5932,-1.6076,-1.6231,-1.6405,-1.6565,-1.6497,-1.671,-1.7199,-1.671,-1.6497,-1.6497,-1.6795,-1.6921,-1.6976,-1.7199,-1.7337,-1.7487,-1.7487,-1.7515,-1.757,-1.757,-1.7666,-1.772,-1.772,-1.8029,-1.8488,-1.1185,-1.1185,-1.1233,-1.1346,-1.1438,-1.155,-1.1785,-1.1892,-1.2048,-1.2363,-1.2615,-1.2999,-1.36,-1.4611,-1.5514,-1.6107,-1.6156,-1.6144,-1.6156,-1.6001,-1.5913,-1.5792,-1.5703,-1.5614,-1.5468,-1.5614,-1.5537,-1.5267,-1.5379,-1.5424,-1.5412,-1.5424,-1.5424,-1.5412,-1.5412,-1.5379,-1.5255,-1.5255,-1.5334,-1.5546,-1.5591,-1.5724,-1.5901,-1.58,-1.5768,-1.578,-1.5957,-1.6219,-1.6522,-1.6522,-1.6479,-1.6479,-1.6479,-1.6479,-1.6479,-1.6479,-1.6479,-1.6479,-1.6522,-1.6693,-1.6876,-1.6918,-1.7128,-1.7267,-1.696,-1.7086,-1.7199,-1.7199,-1.7199,-1.7199,-1.7199,-1.682,-1.6506,-1.6466,-1.6023,-1.5802,-1.6244,-1.575,-1.5272,-1.4942,-1.4891,-1.5155,-1.5962,-1.6388,-1.6497,-1.6225,-1.6238,-1.6238,-1.6281,-1.6269,-1.6281,-1.6436,-1.6663,-1.6833,-1.6833,-1.6989,-1.7115,-1.7199,-1.7212,-1.7267,-1.7267,-1.7365,-1.7488,-1.7584,-1.7638,-1.772,-1.7842,-1.7842,-1.7842,-1.7842,-1.7842,-1.7842,-1.7882,-1.7882,-1.7936,-1.8004,-1.1309,-1.1309,-1.1346,-1.1459,-1.1586,-1.1712,-1.1872,-1.221,-1.2473,-1.2579,-1.2943,-1.344,-1.4186,-1.5302,-1.6058,-1.6293,-1.6231,-1.62,-1.62,-1.6144,-1.61,-1.6025,-1.5925,-1.578,-1.5659,-1.5748,-1.5671,-1.5537,-1.5614,-1.5659,-1.5614,-1.5659,-1.5659,-1.5614,-1.5614,-1.5614,-1.557,-1.5659,-1.578,-1.5957,-1.6132,-1.6306,-1.6479,-1.6349,-1.6392,-1.6436,-1.6405,-1.6491,-1.662,-1.6522,-1.6522,-1.6522,-1.6522,-1.6522,-1.6522,-1.6522,-1.6522,-1.6522,-1.6693,-1.6791,-1.6918,-1.7044,-1.717,-1.7212,-1.7002,-1.7002,-1.7073,-1.7044,-1.7115,-1.7199,-1.7308,-1.7111,-1.6981,-1.7008,-1.6771,-1.6573,-1.6494,-1.6205,-1.5996,-1.5918,-1.5893,-1.6114,-1.6673,-1.6876,-1.6934,-1.6795,-1.6795,-1.6837,-1.6964,-1.6964,-1.6976,-1.7002,-1.7141,-1.7183,-1.7183,-1.7267,-1.7337,-1.7352,-1.7502,-1.7515,-1.7461,-1.7543,-1.7774,-1.8055,-1.8055,-1.8175,-1.8411,-1.8411,-1.8411,-1.8372,-1.8214,-1.8135,-1.8135,-1.8333,-1.8411,-1.8411]},{"header":{"parameterUnit":"m.s-1","parameterCategory":1,"la1":30.6,"la2":28.766,"lo1":-90.7593,"lo2":-88.6598,"dy":0.0162,"dx":0.0183,"nx":116,"ny":114,"refTime":"2024-06-10T00:00:00:Z","depth":0,"parameterNumber":3,"parameterNumberName":"V-component_of_WINDS"},"data":[0.0,0.0,0.0,0.0,0.0,0.0,0.0,0.0,0.0,0.0,0.0,0.0,0.0,0.0,0.0,0.0,0.0,0.0,0.0,0.0,0.0,0.0,0.0,0.0,0.0,0.0,0.0,0.0,0.0,0.0,0.0,0.0,0.0,0.0,0.0,0.0,0.0,0.0,0.0,0.0,0.0,0.0,0.0,0.0,0.0,0.0,0.0,0.0,0.0,0.0,0.0,0.0,0.0,0.0,0.0,0.0,0.0,0.0,0.0,0.0,0.0,0.0,0.0,0.0,0.0,0.0,0.0,0.0,0.0,0.0,0.0,0.0,0.0,0.0,0.0,0.0,0.0,0.0,0.0,0.0,0.0,0.0,0.0,0.0,0.0,0.0,0.0,0.0,0.0,0.0,0.0,0.0,0.0,0.0,0.0,0.0,0.0,0.0,0.0,0.0,0.0,0.0,0.0,0.0,0.0,0.0,0.0,0.0,0.0,0.0,0.0,0.0,0.0,0.0,0.0,0.0,0.0,0.0,0.0,0.0,0.0,0.0,0.0,0.0,0.0,0.0,0.0,0.0,0.0,0.0,0.0,0.0,0.0,0.0,0.0,0.0,0.0,0.0,0.0,0.0,0.0,0.0,0.0,0.0,0.0,0.0,0.0,0.0,0.0,0.0,0.0,0.0,0.0,0.0,0.0,0.0,0.0,0.0,0.0,0.0,0.0,0.0,0.0,0.0,0.0,0.0,0.0,0.0,0.0,0.0,0.0,0.0,0.0,0.0,0.0,0.0,0.0,0.0,0.0,0.0,0.0,0.0,0.0,0.0,0.0,0.0,0.0,0.0,0.0,0.0,0.0,0.0,0.0,0.0,0.0,0.0,0.0,0.0,0.0,0.0,0.0,0.0,0.0,0.0,0.0,0.0,0.0,0.0,0.0,0.0,0.0,0.0,0.0,0.0,0.0,0.0,0.0,0.0,0.0,0.0,0.0,0.0,0.0,0.0,0.0,0.0,0.0,0.0,0.0,0.0,0.0,0.0,0.0,0.0,0.0,0.0,0.0,0.0,0.0,0.0,0.0,0.0,0.0,0.0,0.0,0.0,0.0,0.0,0.0,0.0,0.0,0.0,0.0,0.0,0.0,0.0,0.0,0.0,0.0,0.0,0.0,0.0,0.0,0.0,0.0,0.0,0.0,0.0,0.0,0.0,0.0,0.0,0.0,0.0,0.0,0.0,0.0,0.0,0.0,0.0,0.0,0.0,0.0,0.0,0.0,0.0,0.0,0.0,0.0,0.0,0.0,0.0,0.0,0.0,0.0,0.0,0.0,0.0,0.0,0.0,0.0,0.0,0.0,0.0,0.0,0.0,0.0,0.0,0.0,0.0,0.0,0.0,0.0,0.0,0.0,0.0,0.0,0.0,0.0,0.0,0.0,0.0,0.0,0.0,0.0,0.0,0.0,0.0,0.0,0.0,0.0,0.0,0.0,0.0,0.0,0.0,0.0,0.0,0.0,0.0,0.0,0.0,0.0,0.0,0.0,0.0,0.0,0.0,0.0,0.0,0.0,0.0,0.0,0.0,0.0,0.0,0.0,0.0,0.0,0.0,0.0,0.0,0.0,0.0,0.0,0.0,0.0,0.0,0.0,0.0,0.0,0.0,0.0,0.0,0.0,0.0,0.0,0.0,0.0,0.0,0.0,0.0,0.0,0.0,0.0,0.0,0.0,0.0,0.0,0.0,0.0,0.0,0.0,0.0,0.0,0.0,0.0,0.0,0.0,0.0,0.0,0.0,0.0,0.0,0.0,0.0,0.0,0.0,0.0,0.0,0.0,0.0,0.0,0.0,0.0,0.0,0.0,0.0,0.0,0.0,0.0,0.0,0.0,0.0,0.0,0.0,0.0,0.0,0.0,0.0,0.0,0.0,0.0,0.0,0.0,0.0,0.0,0.0,0.0,0.0,0.0,0.0,0.0,0.0,0.0,0.0,0.0,0.0,0.0,0.0,0.0,0.0,0.0,0.0,0.0,0.0,0.0,0.0,0.0,0.0,0.0,0.0,0.0,0.0,0.0,0.0,0.0,0.0,0.0,0.0,0.0,0.0,0.0,0.0,0.0,0.0,0.0,0.0,0.0,0.0,0.0,0.0,0.0,0.0,0.0,0.0,0.0,0.0,0.0,0.0,0.0,0.0,0.0,0.0,0.0,0.0,0.0,0.0,0.0,0.0,0.0,0.0,0.0,0.0,0.0,0.0,0.0,0.0,0.0,0.0,0.0,0.0,0.0,0.0,0.0,0.0,0.0,0.0,0.0,0.0,0.0,0.0,0.0,0.0,0.0,0.0,0.0,0.0,0.0,0.0,0.0,0.0,0.0,0.0,0.0,0.0,0.0,0.0,0.0,0.0,0.0,0.0,0.0,0.0,0.0,0.0,0.0,0.0,0.0,0.0,0.0,0.0,0.0,0.0,0.0,0.0,0.0,0.0,0.0,0.0,0.0,0.0,0.0,0.0,0.0,0.0,0.0,0.0,0.0,0.0,0.0,0.0,0.0,0.0,0.0,0.0,0.0,0.0,0.0,0.0,0.0,0.0,0.0,0.0,0.0,0.0,0.0,0.0,0.0,0.0,0.0,0.0,0.0,0.0,0.0,0.0,0.0,0.0,0.0,0.0,0.0,0.0,0.0,0.0,0.0,0.0,0.0,0.0,0.0,0.0,0.0,0.0,0.0,0.0,0.0,0.0,0.0,0.0,0.0,0.0,0.0,0.0,0.0,0.0,0.0,0.0,0.0,0.0,0.0,0.0,0.0,0.0,0.0,0.0,0.0,0.0,0.0,0.0,0.0,0.0,0.0,0.0,0.0,0.0,0.0,0.0,0.0,0.0,0.0,0.0,0.0,0.0,0.0,0.0,0.0,0.0,0.0,0.0,0.0,0.0,0.0,0.0,0.0,0.0,0.0,0.0,0.0,0.0,0.0,0.0,0.0,0.0,0.0,0.0,0.0,0.0,0.0,0.0,0.0,0.0,0.0,0.0,0.0,0.0,0.0,0.0,0.0,0.0,0.0,0.0,0.0,0.0,0.0,0.0,0.0,0.0,0.0,0.0,0.0,0.0,0.0,0.0,0.0,0.0,0.0,0.0,0.0,0.0,0.0,0.0,0.0,0.0,0.0,0.0,0.0,0.0,0.0,0.0,0.0,0.0,0.0,0.0,0.0,0.0,0.0,0.0,0.0,0.0,0.0,0.0,0.0,0.0,0.0,0.0,0.0,0.0,0.0,0.0,0.0,0.0,0.0,0.0,0.0,0.0,0.0,0.0,0.0,0.0,0.0,0.0,0.0,0.0,0.0,0.0,0.0,0.0,0.0,0.0,0.0,0.0,0.0,0.0,0.0,0.0,0.0,0.0,0.0,0.0,0.0,0.0,0.0,0.0,0.0,0.0,0.0,0.0,0.0,0.0,0.0,0.0,0.0,0.0,0.0,0.0,0.0,0.0,0.0,0.0,0.0,0.0,0.0,0.0,0.0,0.0,0.0,0.0,0.0,0.0,0.0,0.0,0.0,0.0,0.0,0.0,0.0,0.0,0.0,0.0,0.0,0.0,0.0,0.0,0.0,0.0,0.0,0.0,0.0,0.0,0.0,0.0,0.0,0.0,0.0,0.0,0.0,0.0,0.0,0.0,0.0,0.0,0.0,0.0,0.0,0.0,0.0,0.0,0.0,0.0,0.0,0.0,0.0,0.0,0.0,0.0,0.0,0.0,0.0,0.0,0.0,0.0,0.0,0.0,0.0,0.0,0.0,0.0,0.0,0.0,0.0,0.0,0.0,0.0,0.0,0.0,0.0,0.0,0.0,0.0,0.0,0.0,0.0,0.0,0.0,0.0,0.0,0.0,0.0,0.0,0.0,0.0,0.0,0.0,0.0,0.0,0.0,0.0,0.0,0.0,0.0,0.0,0.0,0.0,0.0,0.0,0.0,0.0,0.0,0.0,0.0,0.0,0.0,0.0,0.0,0.0,0.0,0.0,0.0,0.0,0.0,0.0,0.0,0.0,0.0,0.0,0.0,0.0,0.0,0.0,0.0,0.0,0.0,0.0,0.0,0.0,0.0,0.0,0.0,0.0,0.0,0.0,0.0,0.0,0.0,0.0,0.0,0.0,0.0,0.0,0.0,0.0,0.0,0.0,0.0,0.0,0.0,0.0,0.0,0.0,0.0,0.0,0.0,0.0,0.0,0.0,0.0,0.0,0.0,0.0,0.0,0.0,0.0,0.0,0.0,0.0,0.0,0.0,0.0,0.0,0.0,0.0,0.0,0.0,0.0,0.0,0.0,0.0,0.0,0.0,0.0,0.0,0.0,0.0,0.0,0.0,0.0,0.0,0.0,0.0,0.0,0.0,0.0,0.0,0.0,0.0,0.0,0.0,0.0,0.0,0.0,0.0,0.0,0.0,0.0,0.0,0.0,0.0,0.0,0.0,0.0,0.0,0.0,0.0,0.0,0.0,0.0,0.0,0.0,0.0,0.0,0.0,0.0,0.0,0.0,0.0,0.0,0.0,0.0,0.0,0.0,0.0,0.0,0.0,0.0,0.0,0.0,0.0,0.0,0.0,0.0,0.0,0.0,0.0,0.0,0.0,0.0,0.0,0.0,0.0,0.0,0.0,0.0,0.0,0.0,0.0,0.0,0.0,0.0,0.0,0.0,0.0,0.0,0.0,0.0,0.0,0.0,0.0,0.0,0.0,0.0,0.0,0.0,0.0,0.0,0.0,0.0,0.0,0.0,0.0,0.0,0.0,0.0,0.0,0.0,0.0,0.0,0.0,0.0,0.0,0.0,0.0,0.0,0.0,0.0,0.0,0.0,0.0,0.0,0.0,0.0,0.0,0.0,0.0,0.0,0.0,0.0,0.0,0.0,0.0,0.0,0.0,0.0,0.0,0.0,0.0,0.0,0.0,0.0,0.0,0.0,0.0,0.0,0.0,0.0,0.0,0.0,0.0,0.0,0.0,0.0,0.0,0.0,0.0,0.0,0.0,0.0,0.0,0.0,0.0,0.0,0.0,0.0,0.0,0.0,0.0,0.0,0.0,0.0,0.0,0.0,0.0,0.0,0.0,0.0,0.0,0.0,0.0,0.0,0.0,0.0,0.0,0.0,0.0,0.0,0.0,0.0,0.0,0.0,0.0,0.0,0.0,0.0,0.0,0.0,0.0,0.0,0.0,0.0,0.0,0.0,0.0,0.0,0.0,0.0,0.0,0.0,0.0,0.0,0.0,0.0,0.0,0.0,0.0,0.0,0.0,0.0,0.0,0.0,0.0,0.0,0.0,0.0,0.0,0.0,0.0,0.0,0.0,0.0,0.0,0.0,0.0,0.0,0.0,0.0,0.0,0.0,0.0,0.0,0.0,0.0,0.0,0.0,0.0,0.0,0.0,0.0,0.0,0.0,0.0,0.0,0.0,0.0,0.0,0.0,0.0,0.0,0.0,0.0,0.0,0.0,0.0,0.0,0.0,0.0,0.0,0.0,0.0,0.0,0.0,0.0,0.0,0.0,0.0,0.0,0.0,0.0,0.0,0.0,0.0,0.0,0.0,0.0,0.0,0.0,0.0,0.0,0.0,0.0,0.0,0.0,0.0,0.0,0.0,0.0,0.0,0.0,0.0,0.0,0.0,0.0,0.0,0.0,0.0,0.0,0.0,0.0,0.0,0.0,0.0,0.0,0.0,0.0,0.0,0.0,0.0,0.0,0.0,0.0,0.0,0.0,0.0,0.0,0.0,0.0,0.0,0.0,0.0,0.0,0.0,0.0,0.0,0.0,0.0,0.0,0.0,0.0,0.0,0.0,0.0,0.0,0.0,0.0,0.0,0.0,0.0,0.0,0.0,0.0,0.0,0.0,0.0,0.0,0.0,0.0,0.0,0.0,0.0,0.0,0.0,0.0,0.0,0.0,0.0,0.0,0.0,0.0,0.0,0.0,0.0,0.0,0.0,0.0,0.0,0.0,0.0,0.0,0.0,0.0,0.0,0.0,0.0,0.0,0.0,0.0,0.0,0.0,0.0,0.0,0.0,0.0,0.0,0.0,0.0,0.0,0.0,0.0,0.0,0.0,0.0,0.0,0.0,0.0074,0.0,0.0,0.0,0.0,0.0,0.0,0.0,0.0,0.0,0.0,0.0,0.0,0.0,0.0,0.0,0.0,0.0,0.0,0.0,0.0,0.0,0.0,0.0,0.0,0.1027,0.1112,0.1239,0.1224,0.1251,0.1384,0.0,0.0,0.0,0.0,0.0,0.1738,0.1875,0.2138,0.2525,0.2941,0.3129,0.3065,0.2413,0.1899,0.1474,0.0,0.0,0.0,0.0,0.0,0.0,0.0,0.0,0.0,0.0,0.0,0.0,0.0,0.0,0.0,0.0,0.0,0.0,0.0,0.0,0.0,0.0,0.0,0.0,0.0,0.0,0.0,0.0,0.0,0.0,0.0,0.0,0.0,0.0,0.0,0.0,0.0,0.0,0.0,0.0,0.0,0.0,0.0,0.0,0.0,0.0,0.0,0.0,0.0,0.0,0.0,0.0,0.0,0.0,0.0,0.0,0.0,0.0,0.0,0.0,0.0,0.0,0.0,0.0,0.0,0.0,0.0,0.0,0.0,0.0,0.0,-0.1084,0.0,0.0,0.0,0.0,0.0,0.0,0.0,0.0,0.0,0.0,0.0,0.0,0.0,0.0,0.0,0.0,0.0,0.0,0.0,0.0,0.0,0.0917,0.1025,0.104,0.1133,0.1399,0.1345,0.1386,0.1611,0.1482,0.0,0.0,0.0,0.1638,0.1925,0.2042,0.2484,0.3225,0.3521,0.3761,0.3926,0.3214,0.2621,0.215,0.1835,0.0,0.0,0.0,0.0,0.0,0.0,0.0,0.0,0.0,0.0,0.0,0.0,0.0,0.0,0.0,0.0,0.0,0.0,0.0,0.0,0.0,0.0,0.0,0.0,0.0,0.0,0.0,0.0,0.0,0.0,0.0,0.0,0.0,0.0,0.0,0.0,0.0,0.0,0.0,0.0,0.0,0.0,0.0,0.0,0.0,0.0,0.0,0.0,0.0,0.0,0.0,0.0,0.0,0.0,0.0,0.0,0.0,0.0,0.0,0.0,0.0,0.0,0.0,0.0,-0.1619,-0.1676,-0.2461,-0.2821,-0.2882,-0.2531,-0.2381,-0.2276,0.0,0.0,0.0,0.0,0.0,0.0,0.0,0.0,0.0,0.0,0.0,0.0,0.0,0.0,0.0,0.0,0.0,0.0,0.0,0.0,0.0908,0.1148,0.1179,0.1375,0.1866,0.1737,0.1768,0.2092,0.1933,0.0,0.0,0.1885,0.1973,0.2078,0.2651,0.3202,0.3707,0.4443,0.4817,0.4889,0.3641,0.2944,0.2755,0.2041,0.1842,0.2112,0.0,0.0,0.0,0.0,0.0,0.0,0.0,0.0,0.0,0.0,0.0,0.0,0.0,0.0,0.0,0.0,0.0,0.0,0.0,0.0,0.0,0.0,0.0,0.0,0.0,0.0,0.0,0.0,0.0,0.0,0.0,0.0,0.0,0.0,0.0,0.0,0.0,0.0,0.0,0.0,0.0,0.1565,0.1163,0.0,0.0,0.0,0.0,0.0,0.0,0.0,0.0,0.0,0.0,0.0,0.0,0.0,0.0,0.3482,0.2065,0.0536,-0.103,-0.2005,-0.2743,-0.337,-0.349,-0.3737,-0.3985,-0.4047,0.0,-0.3343,-0.3483,0.0,0.0,0.0,0.0,0.0,0.0,0.0,0.0,0.0,0.0,0.0,0.0,0.0,0.0,0.0,0.0,0.0,0.0,0.0,0.0,0.0,0.169,0.207,0.2582,0.2841,0.2943,0.2834,0.27,0.2467,0.2087,0.2029,0.217,0.2539,0.3026,0.3835,0.5038,0.5569,0.5707,0.5484,0.4379,0.3548,0.2869,0.2733,0.2544,0.2354,0.2206,0.0,0.0,0.0,0.0,0.0,0.0,0.0,0.0,0.0,0.0,0.0,0.0,0.0,0.0,0.0,0.0,0.0,0.0,0.0,0.0,0.0,0.0,0.0,0.0,0.0,0.0,0.0,0.0,0.0,0.0,0.0,0.0,0.0,0.0,0.0,0.0,0.0,0.0,0.0,0.1365,0.1392,0.1022,0.1204,0.1335,0.0,0.0,0.0,0.0,0.0,0.0,0.0,0.0,0.0,0.5371,0.504,0.4357,0.3345,0.2076,0.0644,-0.0965,-0.205,-0.2917,-0.3638,-0.418,-0.4485,-0.4665,-0.5093,-0.5287,-0.5274,-0.4652,-0.4458,-0.4511,0.0,0.0,0.0,0.0,0.0,-0.7238,0.0,0.0,0.0,0.0,0.0,0.0,0.0,0.0,0.0,0.0,0.0,0.0,0.1808,0.2372,0.295,0.3524,0.3897,0.3956,0.0,0.3411,0.3001,0.241,0.2307,0.2475,0.2945,0.3674,0.4792,0.6301,0.6497,0.6434,0.5982,0.4953,0.4073,0.3294,0.3299,0.3064,0.2602,0.2567,0.2683,0.0,0.0,0.0,0.0,0.0,0.0,0.0,0.0,0.0,0.0,0.0,0.0,0.0,0.0,0.0,0.0,0.0,0.0,0.0,0.0,0.0,0.0,0.0,0.0,0.0,0.0,0.0,0.0,0.0,0.0,0.0,0.0,0.0,0.0,0.0,0.0,0.0,0.0,0.112,0.1026,0.0693,0.058,0.0549,0.0,0.0,0.0,0.0,0.0,0.0,0.3653,0.4494,0.4897,0.4819,0.4905,0.4336,0.3018,0.2029,0.0801,-0.0809,-0.2053,-0.2937,-0.3655,-0.4522,-0.502,-0.5147,-0.5833,-0.6354,-0.6694,-0.5834,-0.5729,-0.6025,-0.5942,-0.6307,-0.6929,-0.7419,-0.8238,-0.9317,0.0,0.0,0.0,0.0,0.0,0.0,0.0,0.0,0.0,0.0,0.0,0.1959,0.2499,0.3155,0.3917,0.4823,0.4529,0.4356,0.0,0.0,0.3288,0.2875,0.2909,0.3005,0.3088,0.4907,0.6287,0.7139,0.7016,0.6816,0.6519,0.5167,0.446,0.4408,0.3519,0.3007,0.2918,0.3233,0.3498,0.367,0.0,0.0,0.0,0.0,0.0,0.0,0.0,0.0,0.0,0.0,0.0,0.0,0.0,0.0,0.0,0.0,0.0,0.0,0.0,0.0,0.0,0.0,0.0,0.0,0.0,0.0,0.0,0.0,0.0,0.0,0.0,0.0,0.0,0.0,0.0,0.0,0.0,0.0,0.0,0.0,-0.0461,0.0,0.0,0.0,0.0,0.0513,0.0983,0.1871,0.3338,0.386,0.41,0.4068,0.4278,0.3806,0.2528,0.1663,0.0437,-0.1092,-0.2311,-0.3255,-0.401,-0.4532,-0.4998,-0.5404,-0.6445,-0.6857,-0.6857,-0.6833,-0.7085,-0.7549,-0.8128,-0.84,-0.8672,-1.0075,-1.095,-1.1614,0.0,0.0,0.0,0.0,0.0,0.0604,0.0637,0.0647,0.079,0.1118,0.1724,0.241,0.0,0.4113,0.4938,0.553,0.5941,0.5941,0.5466,0.0,0.4408,0.3695,0.3449,0.3788,0.4822,0.6541,0.7491,0.7567,0.751,0.7147,0.6588,0.5449,0.468,0.4291,0.4073,0.3685,0.3234,0.3353,0.3568,0.3749,0.3265,0.2884,0.0,0.0,0.0,0.0,0.0,0.0,0.0,0.0,0.0,0.0,0.0,0.0,0.0,0.0,0.0,0.0,0.0,0.0,0.0,0.0,0.0,0.0,0.0,0.0,0.0,0.0,0.0,0.0,0.0,0.0,0.0,0.0,0.0,0.0,0.0,0.0,0.0,-0.0417,-0.0443,0.0,0.0,-0.2801,-0.2295,-0.1947,-0.1041,-0.0,0.1062,0.1773,0.2171,0.2263,0.2268,0.1911,0.1236,0.0325,-0.0654,-0.1785,-0.3037,-0.3982,-0.4758,-0.5683,-0.6408,-0.6929,-0.7517,-0.8302,-0.9223,-0.9134,-0.8788,-0.8409,-0.8972,-0.975,-1.0567,-1.1131,-1.2036,-1.3157,0.0,0.0,0.0,0.0,0.0581,0.057,0.0593,0.0653,0.0813,0.1161,0.2,0.2884,0.3683,0.4846,0.5747,0.6262,0.6678,0.6618,0.5943,0.0,0.4828,0.4035,0.3989,0.4753,0.6391,0.7463,0.7964,0.7953,0.7895,0.7531,0.6874,0.593,0.529,0.494,0.4615,0.4297,0.3923,0.3793,0.3824,0.3833,0.3462,0.3242,0.312,0.0,0.0,0.0,0.0,0.0,0.0,0.0,0.0,0.0,0.0,0.0,0.0,0.0,0.0,0.0,0.0,0.0,0.0,0.0,0.0,0.0,0.0,0.0,0.0,0.0,0.0,0.0,0.0,0.0,0.0,0.0,0.0,0.0,0.0,0.0,-0.0568,-0.1033,-0.1158,-0.2013,-0.4161,-0.4089,-0.3983,-0.426,-0.3164,-0.2327,-0.1976,-0.068,-0.0,-0.0194,0.0648,0.0524,-0.0601,-0.154,-0.2414,-0.3351,-0.4082,-0.4812,-0.5547,-0.6867,-0.7649,-0.8096,-0.8955,-0.9777,-1.0577,-1.1142,-1.0894,-1.0223,-1.0297,-1.1063,-1.2102,-1.1816,-1.2677,-1.4114,0.0,0.0,0.0,0.0581,0.0537,0.0513,0.0581,0.0655,0.0787,0.0993,0.224,0.3385,0.4052,0.5276,0.6328,0.7042,0.6665,0.6238,0.5923,0.5176,0.4493,0.3866,0.4571,0.583,0.7639,0.765,0.7784,0.8168,0.8269,0.7954,0.7394,0.6587,0.6285,0.6336,0.5057,0.464,0.4847,0.4637,0.4324,0.3956,0.3381,0.3452,0.3908,0.0,0.0,0.0,0.0,0.0,0.0,0.0,0.0,0.0,0.0,0.0,0.0,0.0,0.0,0.0,0.0,0.0,0.0,0.0,0.0,0.0,0.0,0.0,0.0,0.0,0.0,0.0,0.0,0.0,0.0,0.0,0.0,0.0,-0.2399,-0.211,-0.2044,-0.1856,-0.2599,-0.3404,-0.41,-0.4876,-0.5574,-0.619,-0.5325,-0.5016,-0.5598,-0.3373,-0.245,-0.3238,-0.0599,-0.0334,-0.2863,-0.3897,-0.4855,-0.5782,-0.5491,-0.5745,-0.6552,-0.786,-0.8573,-0.8899,-1.0777,-1.1189,-1.078,-1.2712,-1.3329,-1.3009,-1.2228,-1.2466,-1.321,-1.2451,-1.3076,-1.4529,0.0,0.0,0.0502,0.0524,0.0468,0.0435,0.0457,0.067,0.1008,0.145,0.2598,0.3751,0.4661,0.6,0.7066,0.7517,0.7572,0.7297,0.6618,0.0,0.5556,0.5055,0.5887,0.6641,0.7331,0.7672,0.7844,0.7836,0.7822,0.761,0.7219,0.6501,0.6126,0.6173,0.5184,0.478,0.4729,0.4562,0.4348,0.4124,0.3843,0.3699,0.3632,0.0,0.0,0.0,0.0,0.0,0.0,0.0,0.0,0.0,0.0,0.0,0.0,0.0,0.0,0.0,0.0,0.0,0.0,0.0,0.0,0.0,0.0,0.0,0.0,0.0,0.0,0.0,0.0,0.0,0.0,0.0,0.0,-0.4656,-0.3101,-0.3391,-0.3629,-0.3339,-0.376,-0.4478,-0.5537,-0.5953,-0.6436,-0.6997,-0.6746,-0.6638,-0.687,-0.6133,-0.5428,-0.4963,-0.5083,-0.5011,-0.4733,-0.6149,-0.7051,-0.7389,-0.6439,-0.7048,-0.9032,-0.8643,-0.9522,-1.1409,-1.2054,-1.2699,-1.3317,-1.3772,-1.4362,-1.4883,-1.4264,-1.4423,-1.4944,-1.5061,-1.578,-1.681,0.0,0.0548,0.0502,0.0502,0.0446,0.0401,0.0401,0.0633,0.1088,0.1802,0.2802,0.3934,0.5169,0.6265,0.7098,0.7518,0.7407,0.7096,0.6597,0.6161,0.5975,0.611,0.6632,0.7163,0.7679,0.7832,0.7943,0.7942,0.7873,0.7766,0.7618,0.7057,0.6623,0.6403,0.5701,0.5229,0.4971,0.4843,0.4631,0.4445,0.4241,0.4042,0.3881,0.4107,0.4505,0.5028,0.5584,0.5817,0.5904,0.596,0.0,0.0,0.0,0.0,0.0,0.0,0.0,0.0,0.0,0.0,0.0,0.0,0.0,0.0,0.0,0.0,0.0,0.0,0.0,0.0,0.0,0.0,0.0,0.0,-0.5238,-0.5311,-0.4797,-0.5008,-0.5033,-0.4697,-0.507,-0.5731,-0.6576,-0.7019,-0.7463,-0.8164,-0.8242,-0.838,-0.865,-0.8564,-0.8115,-0.7274,-0.7841,-0.7891,-0.7319,-0.9066,-0.9811,-0.9414,-0.8859,-0.948,-1.1009,-1.0486,-1.1248,0.0,-1.333,-1.3924,-1.46,-1.4818,-1.5303,0.0,0.0,0.0,0.0,0.0,-1.6682,-1.73,0.0,0.0537,0.049,0.049,0.0435,0.039,0.039,0.0561,0.1047,0.2011,0.0,0.3995,0.5471,0.6201,0.6786,0.7364,0.6728,0.627,0.0,0.0,0.5967,0.6977,0.7091,0.7472,0.8256,0.7949,0.7919,0.8179,0.8084,0.8113,0.8145,0.7896,0.7474,0.6911,0.632,0.586,0.5484,0.5277,0.5095,0.491,0.458,0.4427,0.4454,0.4498,0.5023,0.5835,0.6521,0.6704,0.6681,0.7115,0.0,0.0,0.0,0.0,0.0,0.0,0.0,0.0,0.0,0.0,0.0,0.0,0.0,0.0,0.0,0.0,0.0,0.0,0.0,0.0,0.0,0.0,0.0,0.0,-0.5518,-0.6151,-0.6877,-0.6692,-0.6347,-0.6045,-0.6592,-0.714,-0.7486,-0.8073,-0.8716,-0.9338,-0.973,-1.0174,-1.0735,0.0,0.0,0.0,0.0,-0.9991,-1.0177,-1.2201,-1.277,-1.1737,-1.1833,-1.2173,-1.2766,-1.2771,-1.324,-1.4164,-1.4645,-1.5052,-1.531,-1.5932,-1.6375,-1.6568,-1.5428,-1.5556,-1.6472,-1.6825,-1.6905,0.0,0.0,0.0502,0.0424,0.0424,0.0368,0.0324,0.0324,0.0532,0.0949,0.1623,0.2745,0.3939,0.5161,0.6409,0.718,0.7328,0.7061,0.6689,0.0,0.0,0.6203,0.7253,0.7471,0.7623,0.7676,0.7408,0.7367,0.7564,0.7645,0.7756,0.797,0.7922,0.7772,0.7386,0.6794,0.6343,0.5943,0.565,0.5311,0.5048,0.4719,0.4577,0.4661,0.4783,0.5565,0.6712,0.7405,0.7999,0.8407,0.7801,0.7372,0.6767,0.5098,0.0,0.0,0.0,0.0,0.0,0.0,0.0,0.0,0.0,0.0,0.0,0.0,0.0,0.0,0.0,0.0,0.0,0.0,0.0,0.0,-0.5337,-0.5976,-0.6601,-0.7288,-0.7892,-0.8127,-0.7801,-0.8371,-0.8759,-0.8914,-0.9557,-0.9956,-0.9874,-1.083,-1.1717,-1.2368,-1.3168,0.0,-1.2964,-1.3942,-1.3847,-1.2687,-1.4073,-1.4426,-1.3693,0.0,0.0,-1.501,-1.3399,-1.4117,-1.6652,-1.6537,-1.6677,-1.7142,-1.7258,-1.7885,-1.8685,-1.7744,-1.7802,-1.8623,-1.9459,-1.9781,-1.9892,0.0502,0.0446,0.0401,0.0401,0.0346,0.0301,0.0301,0.0448,0.0851,0.1684,0.2384,0.3304,0.4612,0.532,0.5784,0.5977,0.5697,0.0,0.0,0.5702,0.6293,0.7576,0.7659,0.7616,0.7402,0.7252,0.7318,0.7502,0.7507,0.7811,0.8334,0.8202,0.8004,0.7722,0.7064,0.6539,0.6079,0.5686,0.5422,0.5223,0.4957,0.4941,0.5075,0.5001,0.5767,0.696,0.7682,0.8318,0.8736,0.829,0.7732,0.697,0.561,0.4503,0.3471,0.0,0.0,0.0,0.0,0.0,0.0,0.0,0.0,0.0,0.0,0.0,0.0,0.0,0.0,-0.3462,0.0,0.0,-0.4568,-0.5482,-0.6214,-0.6939,-0.7759,-0.868,-0.9101,-0.8651,-0.9178,-0.9631,-0.9773,-1.0296,-1.0451,-1.0187,-1.1546,-1.255,-1.2788,-1.432,-1.4951,-1.4286,-1.5786,-1.5938,-1.4663,-1.5851,-1.6228,-1.5869,-1.5002,-1.5297,-1.6515,-1.5211,-1.5851,-1.791,-1.7295,-1.7445,-1.8233,-1.839,-1.9018,-1.9784,-1.9726,-1.9866,-2.0157,-2.0637,-2.0962,-2.1237,0.039,0.0379,0.039,0.0401,0.0346,0.0301,0.0279,0.0332,0.072,0.1635,0.1958,0.2562,0.3863,0.4045,0.4199,0.0,0.0,0.0,0.5053,0.5335,0.6212,0.7824,0.7729,0.7503,0.7289,0.7187,0.7253,0.7429,0.7359,0.7783,0.87,0.8244,0.8064,0.7987,0.719,0.6601,0.6079,0.562,0.5428,0.5362,0.509,0.5156,0.5362,0.509,0.573,0.6872,0.7665,0.8102,0.8327,0.8442,0.7716,0.6672,0.5984,0.4909,0.373,0.2737,0.2121,0.0,0.0,0.0,0.0,0.0,0.0,0.0,0.0,0.0,-0.2918,-0.3499,-0.3721,-0.3863,-0.4121,-0.4066,-0.4363,-0.5487,-0.6237,-0.704,-0.7996,-0.896,-0.94,-0.893,-0.9718,-1.0301,-1.0364,-1.0855,-1.1136,-1.0946,-1.2555,-1.3595,-1.3679,-1.5578,-1.6378,-1.5891,-1.7245,-1.7514,-1.6579,-1.7437,-1.7696,-1.7345,-1.7295,-1.7373,-1.751,-1.7088,-1.7619,-1.8834,-1.8085,-1.8287,-1.9201,-1.9595,-2.0152,-2.0676,-2.1426,-2.1682,-2.1725,-2.1612,-2.1782,-2.2196,0.0,0.0312,0.0335,0.039,0.0346,0.0279,0.0222,0.0267,0.0459,0.0874,0.157,0.2266,0.29,0.3538,0.3941,0.3971,0.2996,0.2895,0.4062,0.467,0.5861,0.7824,0.7563,0.7289,0.7139,0.6895,0.6827,0.6892,0.7059,0.7525,0.8236,0.7822,0.7697,0.7987,0.7129,0.6474,0.6075,0.5749,0.5488,0.5362,0.4824,0.496,0.5362,0.4827,0.554,0.6794,0.7537,0.7575,0.7349,0.7874,0.7205,0.6037,0.5669,0.501,0.4081,0.2462,0.0,0.1398,-0.0697,-0.1528,-0.1825,-0.2042,-0.2088,-0.2196,0.0,0.0,-0.3872,-0.4282,-0.4389,-0.4494,-0.4727,-0.4586,-0.4738,-0.5732,-0.6111,-0.6619,-0.7598,-0.8431,-0.8888,-0.8796,-1.0338,-1.1185,-1.0548,-1.1787,-1.2774,-1.3036,-1.4461,-1.5855,-1.7074,-1.8243,-1.917,-1.9781,-1.9771,-1.9541,-1.8951,-1.8603,-1.8037,-1.7235,-1.7038,-1.7373,-1.8114,-1.7881,-1.8613,-2.0161,-2.0226,-2.0302,-2.0431,-2.0939,-2.1572,-2.2201,-2.2566,-2.32,-2.3864,-2.3443,-2.3443,-2.3619,0.0,0.0301,0.0368,0.039,0.0346,0.0279,0.0211,0.0224,0.0338,0.0597,0.0959,0.1248,0.1444,0.1809,0.2016,0.1981,0.1519,0.2025,0.3995,0.4372,0.5443,0.7486,0.7295,0.6972,0.649,0.6534,0.6567,0.6593,0.6794,0.7248,0.7782,0.726,0.7199,0.7466,0.6276,0.5745,0.5609,0.5219,0.4957,0.496,0.5027,0.5027,0.502,0.5,0.5158,0.5577,0.6136,0.642,0.0,0.0,0.5573,0.5231,0.4695,0.4412,0.4004,0.2454,0.1033,0.0,-0.2044,-0.2405,-0.2448,0.0,-0.2791,-0.2679,-0.3221,-0.3601,-0.3962,-0.4681,-0.4595,-0.4455,-0.4833,-0.4984,-0.5329,0.0,-0.6917,-0.777,-0.8538,-0.8952,-0.9274,-0.9396,-1.0512,-1.1279,-1.1267,-1.2212,-1.2975,-1.3269,-1.4701,-1.5778,-1.6263,-1.8035,-1.9297,-1.9946,-2.0222,-2.0366,-2.0344,-1.9824,-1.9365,-1.89,-1.8721,-1.8787,-1.911,-1.9166,-1.9759,-2.07,-2.1071,-2.1187,-2.125,-2.1741,-2.2408,-2.3267,-2.3813,-2.4523,-2.5147,-2.4597,-2.4584,-2.4937,0.0,0.029,0.0379,0.0401,0.0357,0.0312,0.0267,0.0245,0.0267,0.0378,0.0451,0.047,0.0395,0.0403,0.0384,0.0287,0.0258,0.1293,0.3699,0.4074,0.5002,0.6844,0.6934,0.6647,0.5946,0.6137,0.6217,0.6113,0.6287,0.6595,0.706,0.6272,0.621,0.6745,0.5282,0.4683,0.468,0.4489,0.4428,0.4561,0.4758,0.4764,0.4686,0.4739,0.4448,0.4117,0.4766,0.508,0.0,0.0,0.3897,0.3797,0.3461,0.3464,0.3228,0.1747,-0.0332,-0.218,-0.2732,-0.281,0.0,-0.3316,-0.3096,-0.3013,-0.3607,-0.3874,-0.417,-0.4933,-0.4743,-0.4511,-0.4998,-0.5274,-0.5683,-0.6453,-0.7616,-0.8663,-0.9366,-0.9518,-0.9621,-0.9731,-1.0404,-1.1196,-1.2071,-1.2663,-1.3356,-1.4012,-1.5298,-1.6174,-1.6554,-1.8237,-1.9508,-2.0274,-2.0563,-2.0934,-2.125,-2.0752,-2.0366,-2.0096,-2.0042,-2.0096,-2.0204,-2.0771,-2.129,-2.1741,-2.2101,-2.2286,-2.2408,-2.2822,-2.3408,-2.4195,-2.4808,-2.5453,-2.5879,-2.5536,-2.5645,-2.596,0.0,0.0,0.0324,0.039,0.0401,0.0401,0.039,0.0335,0.0257,0.0123,0.0167,0.0191,0.0116,-0.011,-0.0343,-0.0553,-0.0441,0.0594,0.2886,0.3597,0.4566,0.5981,0.642,0.6372,0.5828,0.5685,0.5574,0.5404,0.527,0.5411,0.5939,0.4553,0.4558,0.5701,0.4223,0.3418,0.3282,0.3689,0.4028,0.4233,0.3756,0.383,0.4298,0.3838,0.3224,0.2809,0.3949,0.0,0.0,0.3118,0.2393,0.1539,0.2152,0.208,0.0,-0.0236,-0.2182,-0.3578,-0.2347,0.0,-0.3182,-0.2755,-0.2774,-0.3012,-0.3352,-0.4073,-0.4736,-0.5014,-0.4956,-0.5005,-0.5404,-0.5374,-0.5713,-0.6878,-0.7752,-0.8652,-0.9673,-0.9773,-0.9737,-0.9653,-1.0161,-1.1145,0.0,-1.338,-1.4387,-1.6068,-1.6984,-1.811,-1.9672,-1.9858,-2.0557,-2.2075,-2.1463,-2.1244,-2.1604,-2.1135,-2.0635,-2.0096,-2.0215,-2.0632,-2.1307,-2.2822,-2.3623,-2.3904,-2.3904,-2.4034,-2.4234,-2.4509,-2.4711,-2.491,-2.5591,-2.5893,-2.6002,-2.6602,-2.6692,-2.651,0.0,0.0,0.0,0.0324,0.0368,0.0368,0.0279,0.029,0.0233,0.0056,-0.014,0.0,0.0,0.0,0.0,0.0,-0.0855,-0.0117,0.1375,0.1999,0.2732,0.3694,0.4046,0.423,0.4234,0.4478,0.4865,0.5404,0.4951,0.4888,0.502,0.3885,0.3823,0.4495,0.3491,0.3291,0.3563,0.2954,0.2818,0.2952,0.3218,0.2746,0.1993,0.2668,0.1961,0.063,0.0,0.0,0.1104,0.0559,0.0416,0.0509,0.0562,0.0,0.0331,-0.2922,-0.3614,-0.3529,-0.4209,0.0,-0.3093,-0.3707,-0.3594,-0.3572,-0.4236,-0.4736,-0.512,-0.5242,-0.5289,-0.5419,-0.5536,-0.5697,-0.6205,-0.7425,-0.8448,-0.9506,-1.0746,-1.1212,-1.1643,-1.2358,-1.2613,0.0,0.0,0.0,0.0,-1.612,-1.6203,-1.6648,-1.7796,-1.8805,-1.9969,-2.128,-2.1533,-2.1933,-2.2457,-2.2099,-2.1588,-2.0944,-2.129,-2.1942,-2.276,-2.3551,-2.4208,-2.4741,-2.454,-2.4483,-2.4597,-2.4894,-2.5315,-2.5821,-2.6254,-2.6886,-2.755,-2.775,-2.7898,-2.7947,0.0,0.0,0.0,0.0,0.0,0.0,0.0,0.0,0.0,0.0,0.0,0.0,0.0,0.0,0.0,0.0,0.0,-0.0959,-0.0091,0.0637,0.1316,0.1883,0.247,0.2766,0.2733,0.3265,0.3872,0.4592,0.3914,0.3593,0.3595,0.2677,0.2564,0.3019,0.2335,0.2217,0.2414,0.1758,0.1367,0.1365,0.1799,0.1149,-0.0,0.1047,0.0387,0.0,0.0,0.0,-0.1078,-0.1505,-0.136,-0.0983,-0.0932,-0.0722,-0.1179,-0.4368,-0.4334,-0.3611,-0.493,-0.4247,-0.3313,-0.4088,-0.4233,-0.4395,-0.5269,-0.5655,-0.5823,-0.5773,-0.5833,-0.5891,-0.5788,-0.6055,-0.6677,-0.789,-0.8912,-1.0006,-1.1418,-1.2074,-1.2676,-1.3473,-1.4081,-1.5004,0.0,0.0,0.0,-1.6993,-1.6456,-1.6554,-1.7935,-1.8881,-2.0025,-2.1232,-2.1687,-2.2299,-2.3211,-2.2871,-2.2552,-2.2199,-2.2761,-2.3454,-2.42,-2.4754,-2.5329,-2.5795,-2.5686,-2.5686,-2.5727,-2.5957,-2.6385,-2.6894,-2.7232,-2.7799,-2.8448,-2.8543,-2.8732,-2.8919,0.0,0.0,0.0,0.0,0.0,0.0,0.0,0.0,0.0,0.0,0.0,0.0,0.0,0.0,0.0,0.0,0.0,0.0,-0.1504,-0.0454,0.0272,0.0532,0.1593,0.1965,0.1498,0.2055,0.2591,0.3006,0.2098,0.1725,0.1838,0.0979,0.0878,0.1468,0.0786,0.0245,-0.0061,-0.0,-0.0184,-0.0427,-0.0237,-0.0817,-0.1676,-0.1021,0.0,0.0,0.0,0.0,-0.3684,-0.3022,-0.2833,0.0,0.0,-0.2351,-0.2968,-0.4633,-0.4451,-0.3872,-0.4584,-0.4285,-0.3809,-0.3811,-0.4611,-0.555,-0.6347,-0.6789,-0.6956,-0.6843,-0.6775,-0.6576,0.0,0.0,-0.7078,-0.822,-0.9212,-1.0317,-1.1682,-1.2427,-1.2939,0.0,0.0,0.0,0.0,0.0,0.0,-1.8778,0.0,-1.7878,-1.9946,-2.0047,-2.0693,-2.2024,-2.197,-2.255,-2.385,-2.3533,-2.3441,-2.3616,-2.4368,-2.498,-2.5508,-2.6336,-2.6878,-2.7174,-2.7246,-2.7399,-2.7515,-2.768,-2.7879,-2.8158,-2.8463,-2.8638,-2.8826,-2.9104,-2.9287,-2.9422,0.0,0.0,0.0,0.0,0.0,0.0,0.0,0.0,0.0,0.0,0.0,0.0,0.0,0.0,0.0,0.0,0.0,0.0,-0.2444,-0.213,-0.1846,-0.168,-0.106,-0.0478,0.004,0.0511,0.122,0.2064,0.1412,0.1188,0.1293,0.0523,0.016,0.0109,-0.011,-0.0505,-0.1033,-0.1262,-0.1721,-0.2232,0.0,-0.2221,-0.3981,0.0,0.0,0.0,0.0,0.0,0.0,0.0,0.0,0.0,0.0,-0.3166,-0.3574,-0.4825,0.0,-0.3908,-0.4551,-0.4196,-0.3758,-0.4356,-0.5054,-0.6168,-0.8063,-0.9112,-0.9698,-0.9715,-0.9585,-0.9069,0.0,0.0,0.0,-0.8374,-0.9561,0.0,-1.2329,-1.362,0.0,-1.6252,0.0,-1.8014,-1.9911,-1.9082,0.0,0.0,-1.9233,-1.8378,-1.9018,-2.0265,-2.1498,-2.2684,-2.3178,-2.3838,-2.4818,-2.4286,-2.4037,-2.4118,-2.4597,-2.5287,-2.6158,-2.6625,-2.7225,-2.7925,-2.768,-2.7665,-2.7815,-2.8061,-2.8465,-2.8965,-2.9268,-2.9597,-2.9935,-3.0327,-3.0234,-3.0044,0.0,0.0,0.0,0.0,0.0,0.0,0.0,0.0,0.0,0.0,0.0,0.0,0.0,0.0,0.0,0.0,0.0,0.0,0.0,-0.3039,-0.2968,-0.2991,-0.2513,-0.1945,-0.1287,-0.0788,-0.0189,0.044,0.0,0.0,-0.0,-0.0495,-0.0836,-0.0966,-0.1327,-0.1702,-0.2092,-0.2397,0.0,0.0,0.0,0.0,0.0,0.0,0.0,0.0,0.0,0.0,0.0,0.0,0.0,-0.4439,-0.4385,-0.4158,-0.4209,-0.5531,0.0,-0.4426,-0.5179,-0.478,-0.4237,-0.4772,-0.5496,-0.6593,-0.8611,-0.9598,-1.0171,-1.0335,-1.0149,0.0,-0.8193,-0.7555,0.0,0.0,0.0,0.0,-1.2291,-1.3893,-1.5651,0.0,-1.8377,0.0,-2.1245,-2.0752,-2.0944,0.0,-2.0296,-1.9371,-2.0425,-2.1619,-2.2661,-2.3551,-2.4217,-2.4888,-2.543,-2.5287,-2.5245,-2.5273,-2.5686,-2.6265,-2.6983,-2.7363,-2.791,-2.8444,0.0,-2.8463,-2.8638,-2.9073,-2.9464,-2.9859,-3.0185,-3.051,-3.0747,-3.1067,-3.0925,-3.0692,0.0,0.0,0.0,0.0,0.0,0.0,0.0,0.0,0.0,0.0,0.0,0.0,0.0,0.0,0.0,0.0,0.0,0.0,0.0,0.0,0.0,-0.3605,-0.3184,-0.2781,-0.2434,-0.1857,-0.1503,-0.1338,0.0,0.0,0.0,0.0,0.0,0.0,0.0,0.0,0.0,0.0,0.0,0.0,0.0,0.0,0.0,0.0,0.0,0.0,0.0,0.0,0.0,0.0,-0.7654,-0.5859,-0.599,-0.5395,-0.4988,-0.641,-0.5987,-0.5216,-0.6,-0.5599,-0.502,-0.5143,-0.5808,-0.6869,-0.8665,-0.9394,-0.9776,-1.0283,0.0,-0.9366,-0.8165,-0.793,-0.7969,-0.8196,0.0,-1.0464,-1.2028,-1.3825,-1.5703,-1.763,-1.9209,-2.0568,-2.1791,-2.1955,-2.2456,-2.3435,-2.1305,-2.0856,-2.295,-2.3592,-2.4163,-2.4769,-2.552,-2.5931,-2.6096,-2.6483,-2.6692,-2.6715,-2.7093,-2.7449,-2.7834,-2.8301,-2.8684,-2.892,0.0,0.0,-2.9476,-3.026,-3.0534,-3.0573,-3.1033,-3.1278,-3.1411,-3.1579,-3.1483,-3.1252,0.0,0.0,0.0,0.0,0.0,0.0,0.0,0.0,0.0,0.0,-0.2257,-0.2296,0.0,0.0,0.0,0.0,0.0,0.0,0.0,0.0,0.0,-0.3704,-0.3639,-0.3478,-0.3121,-0.2692,-0.2348,0.0,0.0,0.0,0.0,0.0,0.0,0.0,0.0,0.0,0.0,0.0,0.0,0.0,0.0,0.0,0.0,0.0,0.0,0.0,0.0,0.0,0.0,0.0,-0.9023,-0.7542,-0.8025,-0.7252,-0.6342,-0.6864,-0.6819,-0.6497,-0.6341,-0.6142,-0.6015,-0.5834,-0.6119,-0.7107,-0.9496,-1.0739,0.0,0.0,-1.242,-1.1526,-1.0107,-0.9015,-0.8483,-0.8739,-0.9734,-1.108,-1.2941,-1.446,-1.6286,0.0,-1.9583,0.0,0.0,0.0,0.0,0.0,0.0,0.0,-2.4467,-2.5534,-2.6482,-2.7421,-2.7695,-2.7756,-2.7716,-2.7689,-2.77,-2.7819,-2.7997,-2.824,-2.8528,-2.8996,-2.9303,-2.9499,0.0,0.0,-2.9111,-3.0392,-3.0572,-3.0123,-3.1362,-3.1823,-3.1821,-3.2214,-3.193,-3.1414,0.0,0.0,0.0,0.0,0.0,0.0,0.0,-0.2343,-0.2471,-0.2635,-0.2664,-0.2701,-0.2798,-0.2926,-0.3035,0.0,0.0,0.0,0.0,0.0,0.0,0.0,0.0,-0.4135,-0.3725,0.0,0.0,0.0,0.0,0.0,0.0,0.0,0.0,0.0,0.0,0.0,0.0,0.0,0.0,0.0,0.0,0.0,0.0,0.0,0.0,0.0,0.0,0.0,0.0,0.0,-1.0964,-1.0259,-1.0218,-0.9961,-0.9636,-0.9829,-0.9386,-0.8783,-0.8683,-0.7959,-0.7121,-0.6959,-0.6909,-0.7422,-0.943,0.0,0.0,0.0,-1.2109,-1.153,-1.0137,-0.9347,0.0,-0.8975,-0.9896,-1.1249,-1.3049,-1.4914,0.0,-1.9248,-2.0578,0.0,0.0,0.0,0.0,0.0,0.0,0.0,-2.586,-2.6968,-2.8045,-2.9025,-2.881,-2.8763,-2.8933,-2.8809,-2.8902,-2.9191,-2.9342,-2.9536,-2.9756,-2.9946,-3.0091,-3.0251,-3.0567,0.0,-3.0376,-3.1261,-3.1487,-3.1393,-3.2142,-3.2454,-3.2454,-3.2705,-3.2403,-3.1914,0.0,0.0,0.0,0.0,0.0,0.0,0.0,-0.2636,-0.2731,-0.2854,-0.2965,-0.3058,-0.3085,-0.318,-0.3281,0.0,0.0,0.0,0.0,0.0,0.0,0.0,0.0,0.0,0.0,0.0,0.0,0.0,0.0,0.0,0.0,0.0,0.0,0.0,0.0,0.0,0.0,0.0,0.0,0.0,0.0,0.0,0.0,0.0,0.0,0.0,0.0,0.0,0.0,0.0,-1.2713,-1.2742,-1.2327,-1.2361,-1.2641,-1.2715,-1.1888,-1.097,-1.1223,-0.9918,-0.838,-0.8235,-0.7863,-0.799,-0.9328,-0.9893,0.0,-1.0947,-1.1439,-1.133,-1.0036,-0.9725,-0.9589,0.0,-1.0196,-1.1421,-1.3221,-1.529,-1.7549,0.0,-2.1602,0.0,0.0,0.0,0.0,0.0,0.0,0.0,0.0,-2.8466,-2.9374,-3.0117,-2.968,-2.9648,-3.0093,-2.9976,-3.0103,-3.0484,-3.0623,-3.0744,-3.0903,-3.0841,-3.0874,-3.0988,-3.1244,0.0,0.0,-3.2092,-3.2332,-3.2406,-3.2763,-3.2916,-3.2948,-3.3024,-3.2816,-3.2419,0.0,0.0,0.0,0.0,0.0,0.0,0.0,-0.2882,-0.2994,-0.3064,-0.3136,-0.3233,-0.3353,-0.3378,-0.3432,0.0,0.0,0.0,0.0,0.0,0.0,0.0,0.0,0.0,0.0,0.0,0.0,0.0,0.0,0.0,0.0,0.0,0.0,0.0,0.0,0.0,0.0,0.0,0.0,0.0,0.0,0.0,0.0,0.0,0.0,0.0,0.0,0.0,0.0,0.0,0.0,-1.4124,-1.4063,-1.3721,-1.3309,-1.346,0.0,0.0,-1.2502,-1.1207,-0.9733,-0.9398,-0.9007,-0.8931,-0.9853,0.0,-1.0893,-1.1279,-1.2,-1.22,-1.093,-1.0705,-1.0685,-1.0396,-1.0948,-1.2072,-1.402,-1.5441,-1.7662,-2.1295,0.0,0.0,0.0,0.0,0.0,0.0,0.0,0.0,0.0,-3.0369,-3.0834,-3.0818,-3.0943,-3.1099,-3.1329,-3.1087,-3.1147,-3.1482,-3.1482,-3.1482,-3.1537,-3.1568,-3.1603,-3.164,0.0,0.0,0.0,-3.2219,-3.2257,-3.1698,-3.2563,-3.2948,-3.2979,-3.3011,-3.2948,-3.2802,0.0,0.0,0.0,0.0,0.0,0.0,-0.3044,-0.3121,-0.3195,-0.3222,-0.3241,-0.3298,-0.3395,-0.3511,-0.3616,-0.3709,0.0,0.0,0.0,0.0,0.0,0.0,0.0,0.0,0.0,0.0,0.0,0.0,0.0,0.0,0.0,0.0,0.0,0.0,0.0,0.0,0.0,0.0,0.0,0.0,0.0,0.0,0.0,0.0,0.0,0.0,0.0,0.0,0.0,0.0,0.0,0.0,-1.361,-1.4154,0.0,0.0,-1.4916,-1.4138,-1.505,-1.3471,-1.1564,-1.1431,-1.0982,-1.0764,-1.1518,0.0,-1.167,-1.1939,-1.2216,-1.217,-1.1429,-1.1153,-1.1116,-1.1257,-1.1747,-1.2493,-1.3707,-1.5631,-1.7969,0.0,0.0,0.0,0.0,0.0,0.0,0.0,0.0,0.0,0.0,-3.1504,-3.1828,-3.1987,-3.2039,-3.2074,-3.2162,-3.2144,-3.2246,-3.2429,-3.2563,-3.2627,-3.2645,-3.2741,-3.2727,-3.2681,0.0,0.0,0.0,-3.2845,-3.2822,-3.2583,-3.3094,-3.3327,-3.3357,-3.3444,-3.3386,-3.3256,0.0,0.0,0.0,0.0,0.0,-0.3285,-0.3264,-0.3293,-0.3323,-0.3327,-0.3327,-0.3357,-0.3424,-0.3592,-0.3734,-0.3832,-0.3913,0.0,0.0,0.0,0.0,0.0,0.0,0.0,0.0,0.0,0.0,0.0,0.0,0.0,0.0,0.0,0.0,0.0,0.0,0.0,0.0,0.0,0.0,0.0,0.0,0.0,0.0,0.0,0.0,0.0,0.0,0.0,0.0,0.0,0.0,0.0,0.0,0.0,0.0,0.0,-1.6578,-1.5826,-1.7383,-1.5893,-1.393,-1.3989,-1.3471,-1.3022,-1.3481,-1.3179,-1.275,-1.2582,-1.2631,-1.2567,-1.2136,-1.1905,-1.1836,-1.2121,-1.26,-1.318,-1.3943,-1.5859,-1.8215,0.0,0.0,0.0,0.0,0.0,0.0,0.0,0.0,0.0,0.0,-3.2469,-3.2852,-3.2893,-3.2942,-3.296,-3.2983,-3.3105,-3.3219,-3.3356,-3.3505,-3.357,-3.3552,-3.3634,-3.3424,-3.3045,0.0,0.0,0.0,-3.3259,-3.3379,-3.3368,-3.3559,-3.3643,-3.3671,-3.378,-3.3698,-3.3549,0.0,0.0,0.0,0.0,0.0,0.0,-0.3403,-0.3394,-0.3399,-0.3404,-0.3404,-0.3424,-0.3492,-0.3618,-0.3758,-0.3891,-0.4012,0.0,0.0,0.0,0.0,0.0,0.0,0.0,0.0,0.0,0.0,-0.718,-0.6972,0.0,0.0,0.0,0.0,0.0,0.0,0.0,0.0,0.0,0.0,0.0,0.0,0.0,0.0,0.0,0.0,0.0,0.0,0.0,0.0,0.0,0.0,0.0,0.0,0.0,-1.4841,-1.7602,-1.759,-1.7127,-1.9037,-1.8338,-1.7049,-1.706,-1.6399,-1.5694,-1.5528,-1.4941,-1.417,-1.3098,-1.3412,-1.3714,-1.3168,-1.3065,-1.3071,-1.3091,-1.3466,-1.4163,-1.5225,-1.6262,0.0,0.0,0.0,0.0,0.0,0.0,0.0,0.0,0.0,0.0,0.0,0.0,-3.4049,-3.332,-3.3606,-3.3802,-3.388,-3.3961,-3.4062,-3.4176,-3.4176,-3.4176,-3.4176,-3.4128,-3.3487,0.0,0.0,0.0,0.0,-3.3359,-3.3815,-3.3698,-3.3698,-3.3753,-3.3807,-3.3807,-3.3753,-3.3698,0.0,0.0,0.0,0.0,0.0,0.0,0.0,-0.356,-0.3541,-0.3533,-0.3541,-0.3544,-0.3571,-0.3682,-0.3818,-0.3956,-0.4089,0.0,0.0,0.0,0.0,0.0,0.0,0.0,0.0,0.0,-0.7243,-0.788,-0.768,-0.7533,0.0,0.0,0.0,0.0,0.0,0.0,0.0,0.0,0.0,0.0,0.0,0.0,0.0,0.0,0.0,0.0,0.0,0.0,0.0,0.0,0.0,0.0,0.0,0.0,0.0,-1.6274,-1.6686,0.0,-1.7484,-1.7375,-1.6955,-1.6918,-1.6698,-1.6377,-1.594,-1.5391,-1.478,-1.4007,-1.359,-1.35,-1.4015,-1.3795,-1.387,-1.4958,-1.5634,-1.6088,0.0,0.0,0.0,0.0,0.0,0.0,0.0,0.0,0.0,0.0,0.0,0.0,0.0,0.0,-3.4353,-3.4141,-3.4232,-3.4279,-3.4223,-3.4307,-3.4401,-3.4536,-3.4593,-3.4634,-3.4696,-3.4655,0.0,0.0,0.0,0.0,0.0,-3.4149,-3.416,-3.3868,-3.416,-3.4232,-3.4221,-3.4279,-3.426,-3.4335,0.0,0.0,0.0,0.0,0.0,0.0,0.0,-0.3718,-0.3672,-0.367,-0.3686,-0.3687,-0.3704,-0.3818,-0.3912,-0.4024,-0.4162,0.0,0.0,0.0,0.0,0.0,0.0,0.0,0.0,-0.685,-0.7475,-0.8434,-0.8248,-0.8115,-0.802,-0.7908,-0.7838,0.0,0.0,0.0,0.0,0.0,0.0,0.0,0.0,0.0,0.0,0.0,0.0,0.0,0.0,0.0,0.0,0.0,0.0,0.0,0.0,0.0,0.0,0.0,-1.5487,-1.6077,-1.7166,-1.7396,-1.7361,-1.7397,-1.7198,-1.6863,-1.6342,-1.57,-1.5014,-1.4348,-1.4022,-1.404,-1.4825,-1.476,-1.5057,-1.643,-1.7208,0.0,0.0,0.0,0.0,0.0,0.0,0.0,0.0,0.0,0.0,0.0,0.0,0.0,0.0,0.0,-3.4756,-3.4813,-3.4753,-3.4713,-3.4658,-3.4715,-3.4832,-3.499,-3.4978,-3.5032,-3.513,-3.5136,0.0,0.0,0.0,0.0,0.0,-3.4461,-3.4483,-3.416,-3.4505,-3.4609,-3.4602,-3.4971,-3.4898,-3.4785,0.0,0.0,0.0,0.0,0.0,0.0,0.0,-0.3869,-0.3833,-0.3824,-0.3818,-0.3847,-0.3914,-0.3978,-0.4046,-0.4108,0.0,0.0,0.0,0.0,0.0,0.0,0.0,0.0,0.0,-0.6713,-0.7384,-0.8734,-0.8667,-0.8559,-0.8443,-0.8364,-0.8335,-0.8335,-0.8409,0.0,0.0,0.0,0.0,0.0,0.0,0.0,0.0,0.0,0.0,0.0,0.0,0.0,0.0,0.0,0.0,0.0,0.0,0.0,0.0,0.0,0.0,0.0,0.0,-1.8017,-1.8038,-1.8235,-1.7769,-1.7134,-1.6661,-1.5879,0.0,-1.4368,-1.4706,-1.5255,-1.5674,-1.6041,-1.6598,-1.7642,-1.8376,0.0,0.0,0.0,0.0,0.0,0.0,0.0,0.0,0.0,0.0,0.0,0.0,0.0,0.0,0.0,0.0,-3.5309,-3.5216,-3.5138,-3.5127,-3.5133,-3.5258,-3.5507,-3.5383,-3.5397,-3.5526,-3.5509,0.0,0.0,0.0,0.0,0.0,-3.4491,-3.4774,-3.4572,-3.4754,-3.4851,-3.4926,-3.5723,-3.5572,-3.5173,0.0,0.0,0.0,0.0,0.0,0.0,0.0,0.0,0.0,0.0,-0.4022,-0.4064,-0.4127,-0.4153,-0.4205,0.0,0.0,0.0,0.0,0.0,0.0,0.0,0.0,0.0,0.0,-0.6568,-0.7268,-0.8117,-0.8642,-0.8863,-0.8773,-0.871,-0.8705,-0.8762,-0.8841,-0.8472,0.0,0.0,0.0,0.0,0.0,0.0,0.0,0.0,0.0,0.0,0.0,-0.9333,0.0,0.0,0.0,0.0,0.0,0.0,0.0,0.0,-1.3033,-1.3901,-1.4374,0.0,-1.6985,-1.7127,-1.7085,-1.6835,0.0,-1.5887,-1.5702,-1.5506,-1.5953,-1.6555,-1.7107,-1.7647,-1.8395,-1.9621,0.0,0.0,0.0,0.0,0.0,0.0,0.0,0.0,0.0,0.0,0.0,0.0,0.0,0.0,0.0,0.0,0.0,-3.5607,-3.559,-3.556,-3.5546,-3.5504,-3.5546,-3.5649,-3.5623,-3.5651,-3.5725,-3.5618,0.0,0.0,0.0,0.0,-3.4906,-3.522,-3.5212,-3.4981,-3.5171,-3.519,-3.5143,-3.5381,-3.5809,-3.63,0.0,0.0,0.0,0.0,0.0,0.0,0.0,0.0,0.0,0.0,0.0,0.0,0.0,0.0,0.0,0.0,0.0,0.0,0.0,0.0,0.0,0.0,0.0,-0.4996,-0.5829,-0.6565,-0.7285,-0.7988,-0.8729,-0.9056,-0.9001,-0.8951,-0.8994,-0.9071,-0.8831,-0.8318,0.0,0.0,0.0,0.0,0.0,0.0,0.0,0.0,0.0,0.0,-0.8643,-0.9329,0.0,-1.001,-0.9992,-1.006,0.0,0.0,0.0,0.0,-1.2447,-1.3352,-1.3382,-1.4504,-1.5702,-1.5846,-1.5926,-1.5905,-1.5565,-1.5809,-1.6074,-1.6035,-1.6859,-1.7658,-1.7983,-1.8877,0.0,0.0,0.0,0.0,0.0,0.0,0.0,0.0,0.0,0.0,0.0,0.0,0.0,0.0,0.0,0.0,0.0,0.0,0.0,0.0,-3.5795,-3.576,-3.5708,-3.5659,-3.5682,-3.5756,-3.5709,-3.5749,-3.5802,-3.5723,0.0,0.0,0.0,0.0,-3.5591,-3.5599,-3.5519,-3.538,-3.5495,-3.5495,-3.5483,-3.5919,-3.6175,-3.6407,0.0,0.0,0.0,0.0,0.0,0.0,0.0,0.0,0.0,0.0,0.0,0.0,0.0,0.0,0.0,0.0,0.0,0.0,0.0,0.0,0.0,0.0,0.0,-0.4941,-0.5699,-0.6569,-0.7311,-0.7925,-0.8792,-0.9171,-0.9136,-0.9119,-0.9216,-0.9331,-0.8701,-0.8064,0.0,0.0,0.0,0.0,0.0,0.0,0.0,0.0,0.0,0.0,0.0,0.0,0.0,-1.0128,-1.0117,-1.0093,-1.0044,0.0,0.0,0.0,0.0,0.0,-1.3335,-1.4092,-1.4906,-1.5001,-1.5184,-1.5346,-1.5417,-1.6,-1.6543,-1.6617,-1.7764,0.0,0.0,-1.9938,0.0,0.0,0.0,0.0,0.0,0.0,0.0,0.0,0.0,0.0,0.0,0.0,0.0,0.0,0.0,0.0,0.0,0.0,0.0,0.0,-3.5908,-3.5859,-3.5741,-3.5723,-3.5749,-3.5808,-3.5747,-3.5759,-3.5797,-3.5817,0.0,0.0,0.0,0.0,-3.5797,-3.5757,-3.5715,-3.5732,-3.5715,-3.5715,-3.5784,-3.652,-3.6453,-3.6193,0.0,0.0,0.0,0.0,0.0,0.0,0.0,0.0,0.0,0.0,0.0,0.0,0.0,0.0,0.0,0.0,0.0,0.0,0.0,0.0,0.0,0.0,-0.4597,-0.4687,-0.4886,-0.6278,-0.7048,-0.7165,-0.8532,-0.9234,-0.9263,-0.9265,-0.9412,-0.9609,-0.8879,-0.8529,-0.8424,0.0,0.0,0.0,0.0,0.0,0.0,0.0,0.0,0.0,0.0,0.0,0.0,-1.0183,-1.018,-1.017,-1.0113,0.0,0.0,0.0,0.0,0.0,-1.2647,-1.4358,-1.6127,-1.609,-1.6673,-1.7279,-1.7356,-1.7471,-1.7765,-1.8438,0.0,0.0,0.0,-2.1185,-2.2565,0.0,0.0,0.0,0.0,0.0,0.0,0.0,0.0,0.0,0.0,0.0,0.0,0.0,0.0,0.0,0.0,0.0,0.0,0.0,0.0,-3.5898,-3.5878,-3.5873,-3.5858,-3.579,-3.5854,-3.5841,-3.5791,-3.5859,-3.5854,0.0,0.0,-3.5859,-3.5797,-3.5849,-3.5844,-3.5788,-3.5787,-3.5749,-3.5713,-3.5849,-3.6317,-3.6939,0.0,0.0,0.0,0.0,0.0,0.0,0.0,0.0,0.0,0.0,0.0,0.0,0.0,0.0,0.0,0.0,0.0,0.0,0.0,0.0,0.0,-0.4652,-0.4652,-0.466,-0.4641,-0.62,-0.6995,-0.6995,-0.8506,-0.9292,-0.9356,-0.9474,-0.962,-0.9786,-0.9497,-0.9135,-0.8739,-0.8425,0.0,0.0,0.0,0.0,0.0,0.0,0.0,0.0,0.0,0.0,0.0,0.0,-1.0238,-1.0183,-1.0166,0.0,0.0,0.0,0.0,0.0,-1.2544,-1.4468,-1.6573,-1.7054,-1.7481,-1.7823,-1.7847,-1.8218,-1.8659,-1.9038,0.0,0.0,0.0,0.0,0.0,0.0,0.0,0.0,0.0,0.0,0.0,0.0,0.0,0.0,0.0,0.0,0.0,0.0,0.0,0.0,0.0,0.0,0.0,0.0,0.0,-3.5882,-3.5853,-3.5845,-3.5836,-3.5802,-3.5833,-3.5801,-3.576,-3.5784,-3.5795,-3.5793,0.0,-3.5848,-3.5868,-3.5897,-3.5899,-3.5908,-3.5914,-3.588,-3.5855,-3.5855,-3.6142,-3.6512,0.0,0.0,0.0,0.0,0.0,0.0,0.0,0.0,0.0,0.0,0.0,0.0,0.0,0.0,0.0,0.0,0.0,0.0,0.0,0.0,-0.4745,-0.4718,-0.4732,-0.4697,-0.4633,-0.6178,-0.6999,-0.6999,-0.8584,-0.9385,-0.9484,-0.9661,-0.9811,-0.9936,-0.9995,-0.9699,-0.914,-0.9172,-0.8736,0.0,0.0,0.0,0.0,0.0,0.0,0.0,0.0,0.0,0.0,0.0,0.0,0.0,0.0,0.0,0.0,-1.0367,-1.1464,-1.2671,-1.2868,-1.4694,-1.6744,-1.7683,-1.8072,-1.8315,-1.8725,-1.9335,-1.9863,-2.0058,0.0,0.0,0.0,0.0,0.0,0.0,0.0,0.0,0.0,0.0,0.0,0.0,0.0,0.0,0.0,0.0,0.0,0.0,0.0,0.0,0.0,0.0,0.0,0.0,0.0,0.0,-3.582,-3.5807,-3.5791,-3.5787,-3.5779,-3.5747,-3.5708,-3.5699,-3.5737,-3.5784,-3.5791,-3.582,-3.586,-3.5901,-3.5937,-3.5971,-3.5982,-3.6001,-3.6003,-3.6003,-3.6001,-3.6005,0.0,0.0,0.0,0.0,0.0,0.0,0.0,0.0,0.0,0.0,0.0,0.0,0.0,0.0,0.0,0.0,0.0,0.0,0.0,0.0,-0.486,-0.4798,-0.4797,-0.4767,-0.4688,-0.6209,-0.6994,-0.6994,-0.8667,-0.9542,-0.9688,-0.9819,-0.9929,-1.0003,-1.0068,-1.0101,-1.0093,-1.0102,-0.9645,-0.891,0.0,0.0,0.0,0.0,0.0,0.0,0.0,0.0,0.0,0.0,0.0,0.0,0.0,0.0,-1.0353,-1.1166,-1.2009,-1.2861,-1.369,-1.5218,-1.6824,-1.7765,-1.855,-1.9528,-2.1144,-2.1577,-2.1812,-2.2563,0.0,0.0,0.0,0.0,0.0,0.0,0.0,0.0,0.0,0.0,0.0,0.0,0.0,0.0,0.0,0.0,0.0,0.0,0.0,0.0,0.0,0.0,0.0,0.0,0.0,0.0,-3.5885,-3.5834,-3.5775,-3.5706,-3.5707,-3.5697,-3.5695,-3.5697,-3.5697,-3.5706,-3.5756,-3.5766,-3.5728,-3.5929,-3.5968,-3.5907,-3.5976,-3.5995,-3.5995,-3.5996,-3.5996,-3.5996,0.0,0.0,0.0,0.0,0.0,0.0,0.0,0.0,0.0,0.0,0.0,0.0,0.0,0.0,0.0,0.0,0.0,0.0,0.0,0.0,-0.4946,-0.4925,-0.4919,-0.4897,-0.4819,-0.581,-0.658,-0.7122,-0.8807,-0.9694,-0.9825,-0.9919,-1.0001,-1.0052,-1.0082,-1.0136,-1.0196,-1.0202,-1.0049,-0.9812,-0.9806,0.0,0.0,0.0,0.0,0.0,0.0,0.0,0.0,0.0,-1.0292,-1.0308,-1.0304,-1.0276,-1.0424,-1.1268,-1.2095,-1.2942,-1.3823,-1.5324,-1.6889,-1.7771,-1.8632,-1.9851,-2.2101,-2.2547,-2.2871,-2.4264,-2.4103,0.0,0.0,0.0,0.0,0.0,0.0,0.0,0.0,0.0,0.0,0.0,0.0,0.0,0.0,0.0,0.0,0.0,0.0,0.0,0.0,0.0,0.0,0.0,0.0,0.0,0.0,-3.5791,-3.5737,-3.5698,-3.5697,-3.5695,-3.5704,-3.5695,-3.5695,-3.5704,-3.5725,-3.5746,-3.5757,-3.5846,-3.5914,-3.5962,-3.5994,-3.5991,-3.5991,-3.6004,-3.6007,-3.5994,0.0,0.0,0.0,0.0,0.0,0.0,0.0,0.0,0.0,0.0,0.0,0.0,0.0,0.0,0.0,0.0,0.0,0.0,-0.5028,-0.5039,-0.5027,-0.5031,-0.5027,-0.5017,-0.4967,-0.5394,-0.603,-0.6851,-0.8549,-0.9441,-0.9553,-0.9895,-1.0094,-1.0136,-1.0131,-1.0154,-1.0205,-1.0207,-1.0242,-1.0293,-1.0304,-1.0307,0.0,0.0,0.0,0.0,0.0,0.0,0.0,0.0,-1.0293,-1.0292,-1.031,-1.0307,-1.0518,-1.1584,-1.2337,-1.311,-1.4537,-1.5787,-1.6971,-1.8105,-1.9021,-2.0351,-2.2916,-2.3402,-2.3805,-2.5546,-2.5615,-2.5541,-2.617,0.0,0.0,0.0,0.0,0.0,0.0,0.0,0.0,0.0,0.0,0.0,0.0,0.0,0.0,0.0,0.0,0.0,0.0,0.0,0.0,0.0,0.0,0.0,-3.5033,-3.5212,-3.5292,-3.5292,-3.5562,-3.5695,-3.5704,-3.5695,-3.5695,-3.5706,-3.5716,-3.5747,-3.5766,-3.5815,-3.5898,-3.5968,-3.5974,-3.5978,-3.5977,-3.5982,-3.5992,-3.5962,0.0,0.0,0.0,0.0,0.0,0.0,0.0,0.0,0.0,0.0,0.0,0.0,0.0,0.0,0.0,0.0,0.0,0.0,-0.5093,-0.5093,-0.5106,-0.509,-0.51,-0.5095,-0.5095,-0.5043,-0.5358,-0.6109,-0.7848,-0.8723,-0.8826,-0.9761,-1.0194,-1.0199,-1.0197,-1.0193,-1.0207,-1.0205,-1.024,-1.0309,-1.0293,-1.0293,0.0,0.0,0.0,0.0,0.0,0.0,0.0,0.0,-1.0309,-1.0293,-1.0293,-1.0312,-1.0642,-1.2319,-1.2803,-1.3386,-1.5987,-1.6719,-1.7139,-1.8808,-1.9873,-2.1201,-2.3824,-2.4313,-2.4716,-2.6463,-2.7503,-2.8094,-2.8018,0.0,0.0,0.0,0.0,0.0,0.0,0.0,0.0,0.0,0.0,0.0,0.0,0.0,0.0,0.0,0.0,0.0,0.0,0.0,0.0,0.0,0.0,0.0,-3.3186,-3.3984,-3.4391,-3.441,-3.5262,-3.5697,-3.5704,-3.5697,-3.5707,-3.5688,-3.5757,-3.5766,-3.5708,-3.584,-3.59,-3.5905,-3.5897,-3.5905,-3.5917,-3.5977,-3.5966,-3.5909,0.0,0.0,0.0,0.0,0.0,0.0,0.0,0.0,0.0,0.0,0.0,0.0,0.0,0.0,0.0,0.0,0.0,0.0,-0.5109,-0.5106,-0.5105,-0.5105,-0.5097,-0.5091,-0.5091,-0.5078,-0.5456,-0.6242,-0.7374,-0.8251,-0.8871,-0.9161,-0.9615,-1.0199,-1.0195,-1.0238,-1.0269,-1.0226,-1.0215,-1.0231,-1.0227,-1.0225,0.0,0.0,0.0,0.0,0.0,0.0,0.0,0.0,0.0,0.0,-1.0308,-1.0721,-1.1426,-1.2539,-1.3261,-1.4159,-1.6152,-1.7551,0.0,-2.0421,0.0,0.0,0.0,-2.5893,-2.6448,0.0,-2.8948,-2.879,-2.8717,0.0,0.0,0.0,0.0,0.0,0.0,0.0,0.0,0.0,0.0,0.0,0.0,0.0,0.0,0.0,0.0,0.0,0.0,0.0,0.0,0.0,0.0,0.0,-3.3188,-3.3384,-3.3829,-3.4478,-3.4631,-3.5055,-3.5704,-3.5697,-3.5697,-3.5695,-3.5716,-3.5718,-3.5718,-3.5834,-3.5864,-3.5826,-3.5879,-3.5872,-3.5845,-3.5897,-3.5922,-3.5905,0.0,0.0,0.0,0.0,0.0,0.0,0.0,0.0,0.0,0.0,-0.5098,0.0,0.0,0.0,0.0,0.0,0.0,0.0,0.0,-0.5097,-0.5097,-0.5097,-0.5094,-0.5092,-0.5092,-0.5096,-0.5344,-0.5817,-0.6704,-0.7561,-0.8434,-0.8785,-0.9411,-1.0232,-1.0209,-1.0229,-1.0251,-1.0215,-1.0208,-1.0209,-1.0201,-1.0195,-1.0195,0.0,0.0,0.0,0.0,0.0,0.0,0.0,0.0,0.0,-1.0303,-1.0893,-1.1891,-1.3434,-1.4233,-1.5131,-1.7566,-1.8956,0.0,-2.1262,-2.2533,-2.4089,-2.6458,0.0,0.0,0.0,0.0,-2.9529,-2.9531,0.0,0.0,0.0,0.0,0.0,0.0,0.0,0.0,0.0,0.0,0.0,0.0,0.0,0.0,0.0,0.0,0.0,0.0,0.0,0.0,0.0,0.0,0.0,-3.2085,-3.2764,-3.3362,-3.3915,-3.4522,-3.5068,-3.5577,-3.5657,-3.5697,-3.5706,-3.5727,-3.5737,-3.5747,-3.5826,-3.5815,-3.576,-3.5838,-3.5823,-3.5771,-3.5811,-3.5838,-3.5857,0.0,0.0,0.0,0.0,0.0,0.0,0.0,0.0,0.0,0.0,-0.5098,0.0,0.0,0.0,0.0,0.0,0.0,0.0,0.0,0.0,-0.5094,-0.5096,-0.5097,-0.5097,-0.5097,-0.5096,-0.5094,-0.5092,-0.5898,-0.6776,-0.7707,-0.8512,-0.9389,-1.0304,-1.0249,-1.021,-1.0207,-1.0196,-1.0199,-1.0195,-1.0194,-1.0188,-1.0197,-1.0188,0.0,0.0,0.0,0.0,0.0,0.0,0.0,0.0,-1.0297,-1.0946,-1.2159,-1.4478,-1.5329,-1.6217,-1.9414,-2.0506,-2.0943,-2.1793,-2.3399,0.0,-2.7165,-2.8464,-2.9476,-3.0216,0.0,0.0,0.0,0.0,0.0,0.0,0.0,0.0,0.0,0.0,0.0,0.0,0.0,0.0,0.0,0.0,0.0,0.0,0.0,0.0,0.0,0.0,0.0,0.0,0.0,0.0,-3.0398,-3.2111,-3.2979,0.0,-3.4677,-3.5444,-3.5405,-3.5593,-3.5678,-3.5697,-3.5747,-3.5785,-3.5785,-3.5775,-3.5757,-3.5708,-3.5765,-3.5737,-3.5707,-3.5776,-3.5803,-3.5773,0.0,0.0,0.0,0.0,0.0,0.0,0.0,0.0,0.0,0.0,0.0,0.0,0.0,0.0,0.0,0.0,0.0,0.0,0.0,0.0,-0.5097,-0.5094,-0.51,-0.5101,-0.5096,-0.5102,-0.5098,-0.5102,-0.5297,-0.6177,-0.7711,-0.7894,-0.8812,-1.0307,-1.0271,-1.0242,-1.0202,-1.0199,-1.0173,-1.0121,-1.0117,-1.0117,-1.0121,-1.0125,-1.0169,0.0,0.0,0.0,0.0,0.0,0.0,0.0,-1.0219,-1.1299,-1.2652,-1.3206,-1.4804,-1.6731,-1.8147,-2.0449,0.0,0.0,-2.6696,-2.8682,-2.781,-2.8752,-3.0042,-3.0785,0.0,0.0,0.0,0.0,0.0,0.0,0.0,0.0,0.0,0.0,0.0,0.0,0.0,0.0,0.0,0.0,0.0,0.0,0.0,0.0,0.0,0.0,0.0,0.0,0.0,-3.0439,-3.0481,-3.148,-3.2336,0.0,-3.4026,-3.4808,-3.5405,-3.5495,-3.5538,-3.5534,-3.555,-3.5585,-3.5646,-3.5648,-3.5629,-3.5629,-3.5637,-3.5623,-3.5697,-3.6392,-3.6228,-3.5734,0.0,0.0,0.0,0.0,0.0,0.0,0.0,0.0,0.0,0.0,0.0,0.0,0.0,0.0,0.0,0.0,0.0,0.0,0.0,0.0,-0.51,-0.5096,-0.5096,-0.5094,-0.5109,-0.5075,-0.5047,-0.5047,-0.5474,-0.6363,-0.7718,-0.8133,-0.9035,-1.0304,-1.0277,-1.0222,-1.0194,-1.0163,-1.0125,-1.0104,-1.0073,-1.0049,-1.0052,-1.0044,-1.009,-1.015,-1.0148,0.0,0.0,0.0,0.0,0.0,0.0,0.0,-1.2427,-1.3685,-1.5015,-1.6629,-1.9139,0.0,0.0,-2.5245,0.0,-2.875,-2.8208,-2.8657,-2.941,0.0,0.0,0.0,0.0,0.0,0.0,0.0,0.0,0.0,0.0,0.0,0.0,0.0,0.0,0.0,0.0,0.0,0.0,0.0,0.0,0.0,0.0,0.0,0.0,0.0,-3.0447,-3.0632,-3.1017,-3.1892,-3.2723,-3.3538,-3.4337,-3.4923,-3.5311,-3.5416,-3.5438,-3.5451,-3.5477,-3.5514,-3.555,-3.5585,-3.5596,-3.5604,-3.5612,-3.5577,-3.5656,-3.6492,-3.6273,-3.5739,0.0,0.0,0.0,0.0,0.0,0.0,0.0,0.0,0.0,0.0,0.0,0.0,0.0,0.0,0.0,0.0,0.0,0.0,0.0,-0.508,-0.508,-0.5082,-0.5091,-0.5086,-0.5086,-0.5031,-0.5,-0.4991,-0.6165,-0.7212,-0.8154,-0.8871,-0.9598,-1.029,-1.0394,-1.0334,-1.0208,-1.0136,-1.0089,-1.0087,-1.0019,-0.9984,-0.9981,-0.9987,-1.003,-1.0072,-1.0065,-1.0078,-1.009,-1.0075,0.0,0.0,0.0,0.0,-1.1925,-1.4084,-1.5041,-1.621,-1.9912,0.0,-2.2869,-2.5948,-2.7211,0.0,-2.8269,-2.8442,-2.8671,0.0,0.0,0.0,0.0,0.0,0.0,0.0,0.0,0.0,0.0,0.0,0.0,0.0,0.0,0.0,0.0,0.0,0.0,0.0,0.0,0.0,0.0,0.0,-3.0379,-3.039,-3.0601,-3.0987,-3.1602,-3.2671,-3.3487,-3.4078,-3.4902,-3.5239,-3.5193,-3.5289,-3.5345,-3.5364,-3.543,-3.547,-3.5489,-3.555,-3.5581,-3.5589,-3.5577,-3.554,-3.5592,-3.6555,-3.6383,-3.5905,0.0,0.0,0.0,0.0,0.0,0.0,0.0,0.0,0.0,0.0,-0.5093,-0.5107,-0.5102,-0.5097,0.0,0.0,0.0,0.0,-0.5008,0.0,0.0,-0.5006,-0.5014,-0.5005,-0.5005,-0.5,-0.5008,-0.5,-0.7334,-0.8949,-0.9879,-0.9986,-1.0139,-1.0337,-1.1015,-1.0915,-1.0208,-1.0129,-1.0072,-1.0015,-0.9933,-0.9904,-0.9904,-0.991,-0.9916,-0.9922,-0.9919,-0.9955,-1.0019,-1.0016,-1.0067,0.0,0.0,0.0,0.0,-1.1918,-1.3637,-1.5685,-1.7018,0.0,-2.4411,0.0,-2.8083,-2.8343,0.0,0.0,0.0,0.0,0.0,0.0,0.0,0.0,0.0,0.0,0.0,0.0,0.0,0.0,0.0,0.0,0.0,0.0,0.0,0.0,0.0,0.0,0.0,0.0,0.0,-3.0311,-3.034,-3.0406,-3.113,-3.1561,-3.1602,-3.3218,-3.403,-3.4014,-3.483,-3.5198,-3.52,-3.511,-3.5126,-3.5223,-3.5308,-3.5369,-3.5407,-3.5488,-3.5509,-3.5515,-3.5515,-3.5474,-3.56,-3.716,-3.7153,-3.6607,0.0,0.0,0.0,0.0,0.0,0.0,0.0,0.0,0.0,0.0,0.0,-0.5107,-0.5102,-0.5094,0.0,0.0,0.0,0.0,-0.4998,-0.5,0.0,0.0,-0.5,-0.4987,-0.4938,-0.4953,-0.4944,-0.495,-0.7012,-0.875,-1.0163,-1.1135,-1.164,-1.1698,-1.1553,-1.1019,-1.0208,-1.0129,-1.0058,-1.0003,-0.9923,-0.9869,-0.9887,-1.0341,-1.0483,-1.0464,-1.049,-1.0548,-1.0501,-1.008,-0.996,-0.9996,-1.0076,0.0,0.0,0.0,-1.2659,-1.4646,-1.7886,-2.1733,-2.5164,0.0,-2.7491,-2.8021,-2.7926,0.0,0.0,0.0,0.0,0.0,0.0,0.0,0.0,0.0,0.0,0.0,0.0,0.0,0.0,0.0,0.0,0.0,0.0,0.0,0.0,0.0,0.0,0.0,-3.1002,-3.1053,-3.1302,-3.18,-3.2216,0.0,-3.3,-3.3755,-3.4314,-3.4671,-3.507,-3.5212,-3.5147,-3.5108,-3.5126,-3.5162,-3.5209,-3.5293,-3.5354,-3.5465,-3.5488,-3.5501,-3.546,-3.5427,-3.5532,-3.6677,-3.6856,-3.6747,0.0,0.0,0.0,0.0,0.0,0.0,0.0,0.0,0.0,0.0,0.0,0.0,-0.5104,0.0,0.0,0.0,0.0,0.0,-0.4992,0.0,0.0,0.0,0.0,-0.495,-0.4894,-0.489,-0.4899,-0.4906,-0.6807,-0.8545,-1.0146,-1.1868,-1.271,-1.2754,-1.2101,-1.1215,-1.0208,-1.0129,-1.0049,-0.999,-1.0126,-1.014,-1.0172,-1.0953,-1.1341,-1.1461,-1.1251,-1.1341,-1.1411,0.0,0.0,0.0,0.0,0.0,0.0,0.0,0.0,-1.4035,0.0,0.0,-2.4025,-2.5091,-2.578,-2.6475,0.0,0.0,0.0,0.0,0.0,0.0,0.0,0.0,0.0,0.0,0.0,0.0,0.0,0.0,0.0,0.0,0.0,0.0,0.0,0.0,0.0,0.0,0.0,0.0,-3.1232,-3.1335,-3.1628,-3.2212,-3.2699,-3.3192,-3.3691,-3.4068,-3.4541,-3.5107,-3.5171,-3.5157,-3.502,-3.5126,-3.5108,-3.502,-3.5143,-3.5226,-3.5312,-3.5432,-3.5493,-3.546,-3.5412,-3.5398,-3.5465,-3.6224,-3.6498,-3.675,0.0,0.0,0.0,0.0,0.0,0.0,0.0,0.0,0.0,0.0,0.0,0.0,-0.5109,-0.51,-0.5104,-0.5096,0.0,0.0,0.0,0.0,0.0,0.0,0.0,0.0,-0.4894,-0.4893,-0.4901,-0.4904,-0.7415,-0.9133,-1.0146,-1.1819,-1.2641,-1.2703,-1.2717,-1.178,-1.0208,-1.0129,-1.002,-0.9967,-1.0651,-1.0904,-1.093,-1.167,-1.2433,-1.2946,-1.1999,0.0,0.0,0.0,0.0,0.0,0.0,-0.9952,-1.003,0.0,0.0,0.0,0.0,-1.7985,0.0,-2.221,-2.2671,0.0,0.0,0.0,0.0,0.0,0.0,0.0,0.0,0.0,0.0,0.0,0.0,0.0,0.0,0.0,0.0,0.0,0.0,0.0,0.0,0.0,0.0,0.0,0.0,0.0,-3.0369,-3.0369,-3.0388,-3.0427,-3.1979,-3.2732,-3.258,-3.4036,-3.4774,-3.4812,-3.4945,-3.4945,-3.4831,-3.502,-3.5002,-3.4829,-3.5091,-3.5226,-3.5312,-3.5432,-3.546,-3.5412,-3.5412,-3.5369,-3.5388,-3.6192,-3.6485,-3.6738,0.0,0.0,0.0,0.0,0.0,0.0,0.0,0.0,0.0,0.0,0.0,0.0,0.0,-0.5106,-0.5091,-0.5106,-0.5042,0.0,0.0,0.0,0.0,0.0,0.0,0.0,0.0,-0.4905,-0.4886,-0.4838,-0.6306,-0.778,-0.9233,-1.0393,-1.1267,-1.1867,-1.1934,-1.1279,-1.0122,-1.0059,-1.0271,-1.0689,-1.0851,-1.1177,-1.1695,-1.3029,-1.3696,-1.3932,-1.4132,0.0,0.0,0.0,0.0,0.0,-1.0666,-1.0301,-1.0055,-1.0689,-1.1954,-1.3522,0.0,0.0,0.0,-1.9764,-2.0846,-2.1941,0.0,0.0,0.0,0.0,0.0,0.0,0.0,0.0,0.0,0.0,0.0,0.0,0.0,0.0,0.0,0.0,0.0,0.0,0.0,0.0,0.0,0.0,0.0,0.0,-3.0983,-3.1011,-3.1249,-3.1818,-3.2378,-3.2858,-3.3256,-3.379,-3.4282,-3.4753,-3.4927,-3.487,-3.4607,-3.487,-3.4811,-3.4561,-3.4773,-3.4963,-3.5122,-3.5285,-3.5379,-3.5398,-3.5304,-3.5258,-3.5264,-3.552,-3.5944,-3.646,0.0,0.0,0.0,0.0,0.0,0.0,0.0,0.0,0.0,-0.5103,0.0,0.0,0.0,0.0,-0.5098,-0.5108,-0.5038,-0.4995,-0.4992,-0.4935,0.0,0.0,0.0,0.0,0.0,-0.4901,-0.4879,-0.4841,-0.5684,-0.671,-0.7884,-0.8736,-0.9615,-1.0511,-1.0547,-1.0391,-1.0083,-0.9996,-1.0387,-1.1076,-1.1184,-1.1796,-1.2775,-1.4139,-1.5078,-1.5719,0.0,0.0,0.0,0.0,0.0,0.0,-1.1737,-1.1034,-1.0351,-1.0752,-1.1508,-1.2449,-1.3553,0.0,0.0,0.0,0.0,-1.9454,0.0,0.0,0.0,0.0,0.0,0.0,0.0,0.0,0.0,0.0,0.0,0.0,0.0,0.0,0.0,0.0,0.0,0.0,0.0,0.0,0.0,0.0,0.0,0.0,-3.0948,-3.0944,-3.1321,-3.2145,-3.2055,-3.2371,-3.311,-3.3051,-3.3216,-3.3658,-3.4107,-3.4196,-3.3948,-3.4457,-3.4545,-3.4269,-3.4524,-3.4773,-3.4999,-3.5136,-3.5235,-3.532,-3.5207,-3.5176,-3.516,-3.511,-3.5435,-3.5931,0.0,0.0,0.0,0.0,0.0,0.0,0.0,0.0,-0.5094,-0.511,0.0,0.0,0.0,0.0,0.0,-0.51,-0.5042,-0.5005,-0.4992,-0.4935,0.0,0.0,0.0,0.0,-0.4904,-0.4901,-0.489,-0.489,-0.569,-0.6101,-0.6182,-0.6975,-0.7829,-0.8664,-0.8679,-0.9206,-1.0086,-0.9952,-1.0332,-1.1084,0.0,-1.2787,-1.4208,0.0,-1.6484,0.0,-1.7389,-1.7619,0.0,-1.66,0.0,0.0,-1.3316,-1.2123,-1.0878,-1.0218,-1.0561,-1.1155,0.0,0.0,0.0,0.0,0.0,0.0,0.0,0.0,0.0,0.0,0.0,0.0,0.0,0.0,0.0,0.0,0.0,0.0,0.0,0.0,0.0,0.0,0.0,0.0,0.0,0.0,0.0,0.0,0.0,-3.0087,-3.0087,-3.003,-3.0311,-3.103,-3.0866,-3.1141,-3.196,-3.1831,-3.17,-3.1602,-3.2507,-3.2897,-3.2785,-3.3804,-3.4152,-3.3961,-3.434,-3.467,-3.4983,-3.4981,-3.5069,-3.5193,-3.5122,-3.5089,-3.5092,-3.5092,-3.5092,-3.5171,0.0,0.0,0.0,0.0,0.0,-0.502,-0.5034,-0.5074,-0.5091,0.0,0.0,0.0,-0.5091,-0.5096,-0.5098,-0.5108,-0.5036,-0.5001,-0.4989,-0.4975,-0.4953,-0.4894,-0.4897,-0.4902,-0.4902,-0.4899,-0.4907,-0.4893,-0.5123,-0.5238,-0.5283,-0.6085,-0.692,-0.779,-0.8363,-0.91,-0.9888,-0.9844,0.0,-1.1811,-1.1828,-1.307,0.0,0.0,0.0,0.0,0.0,-1.8937,-1.8974,0.0,-1.7107,-1.5133,0.0,-1.2111,-1.0901,-1.0766,-1.0463,-1.0201,-1.0245,0.0,0.0,0.0,0.0,0.0,0.0,0.0,0.0,0.0,0.0,0.0,0.0,0.0,0.0,0.0,0.0,0.0,0.0,0.0,0.0,0.0,0.0,0.0,0.0,0.0,0.0,0.0,-2.9857,-2.9841,-2.9734,-2.9805,-2.9883,-2.9926,-2.9887,-3.0219,-3.0974,-3.0865,-3.103,-3.1531,-3.1853,-3.1874,-3.1751,-3.2748,-3.3112,-3.2963,-3.3765,-3.425,-3.452,-3.4812,-3.4982,-3.5056,-3.5019,-3.5038,-3.502,-3.4964,-3.4889,-3.4848,0.0,0.0,0.0,0.0,-0.4995,-0.5003,-0.5005,-0.5029,-0.5049,0.0,0.0,0.0,-0.5109,-0.5429,-0.5495,-0.5141,-0.5054,-0.5021,-0.5008,-0.5,-0.4983,-0.4934,-0.4916,-0.4903,-0.4903,-0.4903,-0.4897,-0.4896,-0.4896,-0.4896,-0.4914,-0.5387,-0.6221,-0.7374,-0.7844,-0.8675,-0.9706,-0.9714,0.0,0.0,-1.2201,0.0,0.0,-1.6712,-1.7944,0.0,0.0,0.0,-2.0028,-2.0164,-1.8737,0.0,0.0,-1.2959,-1.2164,-1.1616,-1.114,-1.0769,-1.0803,-1.1103,-1.1495,0.0,0.0,0.0,0.0,0.0,0.0,0.0,0.0,0.0,0.0,0.0,0.0,0.0,0.0,0.0,0.0,0.0,0.0,0.0,0.0,0.0,0.0,0.0,0.0,0.0,-2.9682,-2.9645,-2.957,-2.9608,-2.957,-2.9414,-2.9431,-2.9611,-2.9987,-2.9857,-3.0005,-3.0369,-3.0748,-3.0821,-3.075,-3.1664,-3.2023,-3.1973,-3.2996,-3.3549,-3.3738,-3.4457,-3.4831,-3.4927,-3.4945,-3.4945,-3.4945,-3.485,-3.4769,-3.4687,0.0,0.0,-0.4919,-0.4975,-0.4997,-0.4991,-0.4981,-0.5003,-0.5044,0.0,-0.5289,-0.5397,-0.5384,-0.6074,-0.6227,-0.5448,-0.5307,-0.5218,-0.5141,-0.5046,-0.4989,-0.4995,-0.4937,-0.4909,-0.4909,-0.4906,-0.4916,-0.4919,-0.4897,-0.4894,-0.4894,-0.4984,-0.5833,-0.7295,-0.7383,-0.8227,-0.9589,-0.9668,0.0,-1.2075,-1.2727,-1.4432,0.0,0.0,-1.9253,-2.0534,-2.1094,-2.1208,-2.1137,-2.1324,-2.0164,0.0,0.0,-1.4486,-1.3961,-1.2712,-1.2222,-1.2076,-1.2076,-1.2038,-1.2154,-1.287,0.0,0.0,-1.3992,-1.5311,0.0,0.0,0.0,0.0,0.0,0.0,0.0,0.0,0.0,0.0,0.0,0.0,0.0,0.0,0.0,0.0,0.0,0.0,-2.957,-2.957,-2.9493,-2.9472,-2.9491,-2.9433,-2.9353,-2.9293,-2.9286,-2.9218,-2.9108,-2.9017,-2.8923,-2.8804,-2.9439,-2.974,-2.9802,-3.062,-3.0957,-3.102,-3.2085,-3.2594,-3.273,-3.3919,-3.4553,-3.4792,-3.4851,-3.487,-3.485,-3.4728,-3.4645,-3.4604,0.0,-0.4894,-0.4909,-0.4918,-0.4928,-0.4922,-0.4928,-0.497,-0.5258,-0.5952,-0.6709,-0.7193,-0.7192,-0.7343,-0.7378,-0.721,-0.6546,-0.6127,-0.6057,-0.5395,-0.5005,-0.4992,-0.4987,-0.4984,-0.4984,-0.4973,-0.4983,-0.4981,-0.4925,-0.4906,-0.4912,-0.5562,-0.6348,-0.7243,-0.7891,-0.869,-0.9562,-1.0159,0.0,-1.2831,-1.3467,0.0,-1.8991,-1.9539,-2.0662,-2.1953,-2.1877,-2.1786,-2.1769,-2.1967,-2.1097,-1.9763,0.0,0.0,-1.411,-1.3981,-1.3004,-1.1944,-1.1947,-1.1898,-1.1891,-1.2021,0.0,0.0,-1.314,-1.3877,0.0,0.0,0.0,0.0,0.0,0.0,0.0,0.0,0.0,0.0,0.0,0.0,0.0,0.0,0.0,0.0,0.0,0.0,-2.9414,-2.9355,-2.931,-2.9286,-2.9326,-2.939,-2.9372,-2.9304,-2.9302,-2.9197,-2.9017,-2.8858,-2.8761,-2.8737,-2.8757,-2.883,-2.8966,-2.9766,-3.0148,-3.0184,-3.1148,-3.1572,-3.1696,-3.2765,-3.3811,-3.4728,-3.4728,-3.4708,-3.4647,-3.4517,-3.434,-3.4245,-0.4899,-0.4907,-0.4897,-0.4908,-0.4904,-0.4902,-0.489,-0.5295,-0.5776,-0.6231,-0.7459,-0.8146,-0.7746,-0.8086,-0.8178,-0.7741,-0.7275,-0.6982,-0.6949,-0.6546,-0.6105,-0.5674,-0.565,-0.5451,-0.5005,-0.4992,-0.4998,-0.5008,-0.4972,-0.4931,-0.4912,-0.5717,-0.6486,-0.7239,-0.8009,-0.8757,-0.9493,0.0,-1.1506,-1.3073,-1.4562,0.0,-1.933,-2.0575,-2.1685,-2.2571,-2.2381,-2.2394,-2.2471,-2.2219,-2.1898,0.0,0.0,-1.7915,-1.6325,0.0,-1.4291,-1.3507,-1.3112,-1.295,-1.29,-1.2905,0.0,0.0,0.0,0.0,0.0,0.0,0.0,0.0,0.0,0.0,0.0,0.0,0.0,0.0,0.0,0.0,0.0,0.0,0.0,0.0,0.0,0.0,-2.878,-2.9209,-2.92,-2.9197,-2.9302,-2.9326,-2.9326,-2.9262,-2.9197,-2.9108,-2.8952,-2.8767,-2.8669,-2.8662,-2.8587,-2.8587,-2.8612,-2.9105,-2.9286,-2.9315,-3.0275,-3.0705,-3.0864,-3.2213,-3.2971,-3.3353,-3.422,-3.4517,-3.4473,-3.4316,-3.4197,-3.4124,-0.49,-0.4908,-0.4894,-0.4909,-0.4908,-0.4907,-0.4909,-0.5653,-0.6365,-0.6749,-0.8314,-0.9203,-0.8711,-0.9449,-0.9746,-0.922,-0.8797,-0.8497,-0.8353,-0.8018,-0.7519,-0.6837,-0.665,-0.6297,-0.5761,-0.5415,-0.5242,-0.5222,-0.5069,-0.5044,-0.5145,-0.596,-0.6717,-0.7457,-0.8196,-0.8944,-0.9681,0.0,0.0,-1.3507,0.0,-1.7559,-1.9197,-2.1286,-2.2439,-2.2893,-2.2894,-2.3054,-2.3237,-2.271,-2.2713,-2.2489,-2.0135,-1.9196,0.0,0.0,0.0,0.0,0.0,0.0,0.0,0.0,0.0,-1.3856,0.0,0.0,0.0,-1.483,0.0,0.0,0.0,0.0,0.0,0.0,0.0,0.0,0.0,0.0,0.0,0.0,0.0,0.0,0.0,0.0,-2.7613,-2.8864,-2.8765,-2.8725,-2.9,-2.9188,-2.9262,-2.9178,-2.9067,-2.8957,-2.8881,-2.8718,-2.8644,-2.8587,-2.8612,-2.8612,-2.8543,-2.8694,-2.8737,-2.8674,-2.9673,-3.0009,-3.0033,-3.1868,-3.2226,-3.1802,-3.345,-3.4093,-3.4069,-3.3883,-3.3919,-3.4049,-0.49,-0.49,-0.4893,-0.4894,-0.4908,-0.4907,-0.4909,-0.5682,-0.6843,-0.8405,-1.0125,-1.1446,-1.2062,-1.2914,-1.37,-1.4376,-1.2959,0.0,-1.1099,0.0,-0.8643,-0.8604,-0.787,-0.7771,-0.845,-0.694,-0.6121,-0.6071,-0.5342,-0.5334,-0.5977,-0.6791,-0.7568,-0.8287,-0.903,-0.9762,-1.0519,0.0,-1.2837,0.0,-1.6623,-1.821,0.0,-2.1702,-2.2815,-2.3367,-2.3725,-2.3946,-2.4091,0.0,-2.3602,-2.288,0.0,-2.0936,-1.886,-1.8591,0.0,0.0,0.0,0.0,0.0,0.0,-1.3776,0.0,0.0,0.0,-1.3868,-1.3868,0.0,0.0,0.0,0.0,0.0,0.0,0.0,0.0,0.0,0.0,0.0,0.0,0.0,0.0,0.0,0.0,0.0,-2.7959,-2.7359,-2.7206,-2.7941,-2.8809,-2.924,-2.913,-2.904,-2.8929,-2.881,-2.8637,-2.8562,-2.8587,-2.8662,-2.8712,-2.8761,-2.8975,-2.8929,-2.8748,-2.9691,-2.9569,-2.8876,-3.1329,-3.1847,-3.1237,-3.2477,-3.2976,-3.2952,-3.282,-3.3209,-3.3842,-0.4904,-0.49,-0.4904,-0.4907,-0.4896,-0.4912,-0.4944,-0.6143,-0.7857,-1.0102,-1.1058,-1.1991,-1.3303,0.0,0.0,0.0,0.0,-1.3712,0.0,0.0,-1.1054,-0.9596,-0.9185,-0.87,-0.8103,-0.7379,-0.6966,-0.6902,-0.6552,-0.6534,-0.6809,-0.7586,-0.8082,-0.8406,-0.961,-1.0756,-1.1871,0.0,-1.3941,0.0,0.0,0.0,0.0,-2.1281,-2.2693,-2.3633,-2.501,-2.4913,-2.4213,0.0,-2.4224,0.0,0.0,0.0,0.0,0.0,0.0,0.0,0.0,0.0,0.0,0.0,0.0,0.0,-1.3788,0.0,-1.3698,0.0,0.0,0.0,0.0,0.0,0.0,0.0,0.0,0.0,0.0,0.0,0.0,0.0,0.0,0.0,0.0,0.0,0.0,0.0,0.0,-2.5524,-2.6893,-2.7824,-2.8484,-2.891,-2.8929,-2.8881,-2.8743,-2.8612,-2.8562,-2.8587,-2.8587,-2.8637,-2.8687,-2.8761,-2.9016,-2.9421,-2.9817,-2.9966,-3.0044,-3.1526,-3.1699,-3.1039,-3.151,-3.2328,-3.3204,-3.315,-3.3077,-3.3003,-0.4928,-0.4918,-0.4899,-0.4919,-0.4925,-0.5104,-0.5636,-0.7191,-0.9157,-1.1516,-1.2242,0.0,-1.4824,-1.5234,0.0,0.0,-1.6298,-1.5744,0.0,0.0,-1.337,-1.1743,-1.1046,-1.0225,-0.9225,-0.8523,-0.8018,-0.7731,-0.7485,-0.7464,-0.7647,-0.8144,-0.8475,-0.8682,-1.0003,-1.1263,-1.2459,0.0,-1.4739,-1.6315,-1.7601,-1.8452,-1.923,-2.1458,-2.298,-2.412,-2.5915,-2.5715,-2.4624,-2.4879,-2.4452,0.0,-2.2743,0.0,0.0,0.0,0.0,0.0,-1.6884,0.0,0.0,0.0,0.0,0.0,0.0,0.0,0.0,0.0,0.0,0.0,0.0,0.0,0.0,0.0,0.0,0.0,0.0,0.0,0.0,0.0,0.0,0.0,0.0,0.0,0.0,0.0,0.0,0.0,-2.5226,-2.6549,-2.7629,-2.8421,-2.8682,-2.8767,-2.8694,-2.8587,-2.8536,-2.8562,-2.8536,-2.8562,-2.8637,-2.8662,-2.8971,-2.9551,-3.0013,-3.0333,-3.063,-3.1797,-3.1725,-3.0882,-3.107,-3.1794,-3.2723,-3.2809,-3.2774,-3.2702,-0.4983,-0.4938,-0.4919,-0.4978,-0.4996,-0.5557,-0.7262,-0.8999,-1.0727,0.0,0.0,0.0,0.0,0.0,0.0,0.0,0.0,-1.826,-1.7524,0.0,-1.5184,-1.5882,-1.3678,-1.2762,0.0,-1.1081,-0.9406,-0.8566,-0.7724,-0.7702,-0.8461,-0.8359,-0.8713,-0.95,-1.0263,-1.0983,-1.1735,-1.326,-1.5069,-1.7041,-1.779,-1.9464,-2.1625,0.0,-2.3967,-2.4999,-2.6017,0.0,0.0,-2.4743,-2.41,0.0,0.0,0.0,0.0,0.0,0.0,0.0,0.0,0.0,0.0,-1.6922,0.0,0.0,0.0,0.0,-1.3702,0.0,0.0,0.0,0.0,0.0,-1.2112,-1.0621,0.0,0.0,0.0,0.0,0.0,0.0,0.0,0.0,0.0,0.0,0.0,0.0,0.0,0.0,-2.253,-2.5056,-2.6777,-2.7536,-2.8227,-2.8644,-2.8694,-2.844,-2.8362,-2.8492,-2.8562,-2.8637,-2.8694,-2.8815,-2.8761,-2.8644,-3.0323,-3.0413,-2.9561,-3.2038,-3.2074,-3.0612,-3.1422,-3.1374,-3.0812,-3.1084,-3.2147,-3.3455,-0.5865,-0.5388,-0.4968,-0.4995,0.0,-0.5598,-0.7384,-0.9155,0.0,0.0,0.0,0.0,0.0,-1.8788,-1.9273,0.0,0.0,-1.9259,-1.8383,-1.7747,0.0,0.0,0.0,-1.4382,0.0,-1.2108,-1.0944,-1.0131,-0.9286,-0.8997,-0.9219,-0.9135,-0.9212,-0.9466,-1.0206,-1.147,0.0,0.0,0.0,0.0,0.0,-2.0849,-2.201,0.0,0.0,-2.4846,-2.5887,-2.5598,0.0,-2.4309,-2.3479,-2.2615,-2.2885,-2.2146,-2.1198,-2.1172,-2.0662,0.0,0.0,0.0,-1.9267,-1.8557,0.0,0.0,0.0,0.0,0.0,0.0,0.0,0.0,0.0,0.0,-1.3219,-1.1282,-1.059,-1.0036,0.0,0.0,0.0,0.0,0.0,0.0,0.0,0.0,0.0,0.0,0.0,0.0,0.0,-2.2529,-2.4441,-2.6381,-2.7241,-2.7933,-2.851,-2.8458,-2.8432,-2.8432,-2.8458,-2.8536,-2.8637,-2.8587,-2.8876,-2.9401,-2.9837,-3.0122,-3.0284,-3.0945,-3.0914,-3.0416,-3.0214,-3.0285,-3.0529,-3.0733,-3.0864,-3.0848,-0.6769,-0.5826,0.0,0.0,0.0,-0.6554,-0.8311,0.0,0.0,0.0,-1.5885,0.0,-1.9191,0.0,-1.9964,0.0,-2.0735,-2.0459,-1.9533,-1.9201,0.0,-1.7677,-1.7059,0.0,0.0,0.0,-1.2741,-1.1681,-1.0593,-0.9884,-0.957,-0.9491,-0.9439,-0.943,-1.0196,-1.147,-1.3141,0.0,-1.6424,0.0,0.0,-2.1712,0.0,0.0,-2.4438,-2.4418,0.0,-2.5002,-2.4252,-2.3907,-2.3157,-2.2404,-2.2685,-2.214,-2.1423,-2.1423,-2.1167,-2.107,-2.1888,-2.136,0.0,-2.0411,-1.9407,0.0,-1.7369,0.0,0.0,0.0,0.0,0.0,0.0,0.0,-1.3973,-1.2361,-1.1282,-1.0302,0.0,0.0,0.0,0.0,0.0,0.0,0.0,0.0,-1.1464,-1.247,0.0,0.0,0.0,0.0,-2.2265,-2.4504,-2.5667,-2.681,-2.7896,-2.7923,-2.8066,-2.8345,-2.8345,-2.8398,-2.8484,-2.8406,-2.8694,-2.9233,-2.9357,-2.9654,-3.0077,-3.0194,-3.011,-2.9852,-2.939,-2.9319,-2.9609,-3.0087,-3.0166,-2.9962,0.0,0.0,0.0,0.0,-0.6707,0.0,0.0,0.0,-1.4658,0.0,-1.7912,-1.92,-2.0002,-2.0823,-2.1265,-2.121,-2.1783,0.0,-2.0969,-2.0144,0.0,0.0,-1.9095,-1.8544,-1.9139,0.0,0.0,0.0,-1.153,-1.0312,-0.9546,-0.9448,-0.9403,-0.9439,-1.0208,0.0,-1.1836,-1.3982,-1.6115,-1.8336,-2.1121,-2.2019,-2.1923,-2.4235,0.0,-2.377,-2.4188,-2.4472,-2.4513,-2.3498,-2.3053,-2.2862,-2.2428,-2.2237,-2.2192,-2.2192,-2.2237,-2.2479,-2.327,-2.2445,-2.1574,-2.2351,0.0,0.0,0.0,0.0,-1.8276,0.0,0.0,0.0,0.0,0.0,0.0,-1.3631,-1.2226,-1.0719,0.0,0.0,0.0,0.0,0.0,0.0,0.0,-0.9681,-1.0132,-1.0096,-1.217,0.0,0.0,0.0,0.0,-2.2038,-2.3679,-2.5287,-2.6871,-2.6881,-2.7326,-2.8128,-2.8164,-2.8237,-2.83,-2.83,-2.8246,-2.8235,-2.8874,-2.906,-2.8999,-2.9695,-2.9554,-2.8928,-2.8928,-2.8564,-2.8103,-2.9076,-2.995,-3.0653,-0.8646,-0.7763,-0.7232,0.0,-0.8903,-0.9939,0.0,0.0,0.0,0.0,-1.8217,-1.9203,-1.9815,-2.0676,-2.1183,-2.1061,-2.1243,0.0,0.0,0.0,0.0,-2.0585,-1.9567,-1.9266,-1.9831,-1.7067,0.0,-1.4655,0.0,-1.0593,-1.0224,-0.9717,-0.9474,-0.9493,0.0,0.0,-1.1765,-1.2847,-1.5089,-1.8171,-2.0526,-2.1409,0.0,0.0,-2.2751,-2.2813,-2.4351,-2.4607,-2.4039,-2.2748,-2.2283,-2.2266,-2.2219,-2.2135,-2.2073,-2.2237,-2.2321,-2.2694,-2.412,-2.3425,-2.2476,-2.3268,-2.2598,-2.1464,0.0,0.0,0.0,0.0,0.0,0.0,0.0,0.0,0.0,-1.3871,-1.1738,-1.0279,0.0,0.0,0.0,0.0,0.0,0.0,0.0,0.0,-0.9526,-1.0059,0.0,0.0,0.0,0.0,0.0,-2.0192,-2.2324,-2.3989,-2.5198,-2.633,-2.6997,-2.7228,-2.7842,-2.8126,-2.8081,-2.8081,-2.8071,-2.8042,-2.8134,-2.8118,-2.8047,-2.8185,-2.8089,-2.7897,-2.7927,-2.7924,-2.7882,-2.8255,-2.8525,-2.8713,-0.9566,0.0,0.0,-0.9374,0.0,0.0,-1.2417,0.0,0.0,-1.774,-1.884,0.0,-2.0262,-2.1438,-2.2035,-2.1613,-2.2227,0.0,-2.154,0.0,0.0,-2.1509,-2.0724,-2.0733,-2.1606,-1.8621,0.0,-1.6335,0.0,0.0,-1.0615,-0.9852,-0.9492,-0.9466,0.0,-1.0289,-1.1831,-1.3813,-1.5956,-1.818,-2.044,0.0,0.0,-2.2355,-2.2704,-2.2794,-2.3939,-2.4058,-2.3498,-2.2755,-2.2748,-2.3076,-2.3169,-2.3182,-2.3097,-2.2926,-2.3119,-2.3619,-2.4648,-2.4041,-2.3275,-2.4115,-2.3495,-2.2409,-2.1473,-2.1601,-2.1803,0.0,0.0,0.0,0.0,0.0,0.0,-1.4358,-1.2547,0.0,0.0,0.0,0.0,0.0,0.0,0.0,0.0,0.0,0.0,0.0,0.0,0.0,0.0,0.0,0.0,-1.8814,-2.054,-2.2369,-2.432,-2.5279,-2.5906,-2.6206,-2.7083,-2.7483,-2.75,-2.778,-2.794,-2.7986,-2.7806,-2.7672,-2.76,-2.7526,-2.7483,-2.7452,-2.7526,-2.76,-2.7719,-2.7795,-2.7882,-2.8014,0.0,0.0,0.0,0.0,0.0,0.0,0.0,-1.508,0.0,-1.8696,0.0,-2.0369,-2.1028,-2.2497,-2.3178,-2.2486,0.0,-2.3764,-2.2256,-2.2683,-2.2902,-2.2697,-2.199,-2.2222,-2.3567,-2.0492,0.0,0.0,0.0,0.0,-1.1048,-1.0087,-0.9565,-0.9412,0.0,0.0,0.0,-1.5697,-1.753,-1.8289,-2.0538,-2.1335,-2.1356,-2.2897,-2.3294,-2.3042,-2.3165,-2.3143,-2.3029,-2.3053,-2.3547,-2.4143,-2.4188,-2.4235,-2.4177,-2.3602,-2.3874,-2.4466,-2.4866,-2.4265,-2.3807,-2.4844,-2.3932,-2.2733,-2.2541,-2.2541,-2.2423,-2.1903,-2.1371,0.0,0.0,0.0,0.0,0.0,0.0,0.0,0.0,0.0,0.0,0.0,0.0,0.0,0.0,0.0,0.0,0.0,0.0,0.0,0.0,0.0,0.0,0.0,-1.8741,0.0,-2.363,0.0,-2.4515,-2.5152,-2.6156,-2.6672,-2.6727,-2.7408,-2.776,-2.7882,-2.7647,-2.7496,-2.7404,-2.7359,-2.7345,-2.7345,-2.7452,-2.7526,-2.7557,-2.7587,-2.7736,-2.794,0.0,0.0,0.0,0.0,0.0,-1.5101,-1.572,-1.7152,-1.8707,-2.0241,-2.0602,-2.0977,-2.1583,-2.2609,-2.3194,-2.305,-2.3243,0.0,0.0,0.0,0.0,-2.2683,-2.199,-2.2202,-2.3481,-2.0642,-1.9254,0.0,0.0,-1.3545,-1.2496,-1.1072,-1.0077,-0.9501,0.0,0.0,-1.3672,-1.6025,0.0,-1.8202,-2.0255,-2.1073,-2.112,-2.1978,-2.2228,-2.2141,-2.2228,-2.2677,-2.316,-2.2572,-2.2512,-2.2671,-2.2699,-2.2682,-2.2665,-2.2558,-2.2666,-2.3096,-2.4457,-2.379,-2.3181,-2.5101,-2.4411,-2.3219,-2.3009,-2.3013,-2.2785,-2.1973,-2.1728,-2.1446,-2.0808,0.0,0.0,0.0,0.0,0.0,0.0,0.0,0.0,0.0,0.0,0.0,0.0,0.0,0.0,0.0,0.0,0.0,0.0,0.0,0.0,0.0,0.0,0.0,0.0,0.0,0.0,-2.433,-2.5651,-2.6295,-2.633,-2.6961,-2.7261,-2.7261,-2.723,-2.7085,-2.6923,-2.7038,-2.7055,-2.7072,-2.7345,-2.7438,-2.7438,-2.7513,-2.7557,-2.7617,0.0,0.0,0.0,0.0,0.0,0.0,0.0,-1.8424,0.0,-2.0652,-2.0802,-2.1216,-2.2294,-2.3231,-2.3614,-2.3289,-2.3577,-2.343,-2.2585,-2.2757,-2.2811,-2.2658,-2.2295,0.0,-2.3544,-2.1414,-2.0173,-1.9948,0.0,-1.4773,-1.3541,-1.1958,-1.1008,-1.0693,0.0,-1.3061,0.0,0.0,0.0,-1.9263,-2.056,-2.1309,-2.1714,-2.2068,-2.2147,-2.2049,-2.2118,-2.2428,-2.2794,-2.2752,-2.3334,-2.3951,-2.3562,-2.3427,-2.3359,-2.3028,-2.3197,-2.36,-2.4098,-2.3613,-2.3238,-2.4309,-2.3689,-2.276,-2.2551,-2.2504,-2.2391,-2.1893,-2.1797,-2.1681,-2.135,-2.0445,0.0,0.0,0.0,0.0,0.0,0.0,0.0,0.0,0.0,0.0,0.0,0.0,0.0,0.0,0.0,0.0,0.0,0.0,0.0,0.0,0.0,0.0,0.0,0.0,0.0,-2.3812,-2.5397,-2.6122,-2.6109,-2.6776,-2.7055,-2.7038,-2.6989,-2.6858,-2.6758,-2.6875,-2.6942,-2.6942,-2.7122,-2.7233,-2.731,-2.7324,-2.7404,-2.7483,0.0,-1.4589,0.0,0.0,-1.6081,0.0,-1.8369,-1.9087,-1.9814,-2.0663,-2.0689,-2.1179,-2.2572,-2.3362,-2.3562,-2.3042,-2.3503,-2.3341,-2.2159,-2.3125,-2.3406,-2.2628,-2.2738,-2.3004,-2.336,-2.2162,-2.1102,0.0,0.0,0.0,-1.4405,-1.3099,-1.2453,0.0,0.0,0.0,0.0,0.0,-1.9098,-2.0458,-2.1155,-2.1779,-2.231,-2.2377,-2.231,-2.2168,-2.2254,-2.2355,-2.2558,-2.2904,-2.3843,-2.4782,-2.4205,-2.4019,-2.39,-2.3384,-2.3621,-2.3994,-2.3727,-2.342,-2.3241,-2.3558,-2.2924,-2.2185,-2.2069,-2.1969,-2.1928,-2.1797,-2.1797,-2.1797,-2.1797,-2.1375,0.0,0.0,0.0,0.0,0.0,0.0,0.0,0.0,0.0,0.0,0.0,0.0,0.0,0.0,0.0,0.0,-0.9114,-0.997,0.0,0.0,0.0,-1.7593,-2.0556,0.0,-2.2655,0.0,-2.5145,-2.5908,-2.588,-2.6551,-2.6859,-2.6842,-2.6725,-2.6624,-2.6607,-2.6775,-2.6826,-2.6859,-2.6959,-2.7055,-2.7166,-2.7181,-2.7247,-2.7345,0.0,0.0,0.0,0.0,0.0,0.0,0.0,-1.9035,-1.9781,-2.06,-2.0554,-2.0784,-2.1714,-2.1948,-2.2,-2.1943,-2.195,-2.2136,-2.2591,-2.2632,-2.2623,-2.2517,-2.3217,-2.3289,-2.2623,-2.2416,-2.1867,0.0,0.0,-1.7363,-1.5199,-1.4932,0.0,0.0,0.0,0.0,0.0,-1.8529,-1.9745,-2.1189,-2.197,-2.2298,-2.231,-2.2377,-2.2231,-2.2044,-2.2152,-2.2605,-2.2999,-2.2346,-2.2291,-2.2529,-2.2502,-2.2456,-2.2428,-2.24,-2.2462,-2.2632,-2.334,-2.296,-2.2676,-2.3773,-2.2992,-2.2023,-2.2375,-2.2063,-2.1708,-2.1724,-2.1768,-2.1797,-2.1797,-2.1731,-2.1462,0.0,0.0,0.0,0.0,0.0,0.0,0.0,0.0,0.0,0.0,0.0,0.0,0.0,0.0,0.0,-0.8312,-0.9577,0.0,-1.2772,0.0,-1.7007,-1.9619,-2.1056,0.0,-2.324,-2.4738,-2.5462,-2.5495,-2.61,-2.6365,-2.6365,-2.6293,-2.6239,-2.6274,-2.6503,-2.6606,-2.664,-2.6909,-2.7007,-2.704,-2.707,-2.7135,-2.7135,0.0,0.0,0.0,0.0,0.0,0.0,0.0,-1.9277,-1.9546,-1.9991,-2.032,-2.0833,-2.1673,-2.1782,-2.1815,-2.1867,-2.1713,-2.1587,-2.151,-2.2131,-2.2298,-2.1853,-2.2995,-2.3468,-2.3106,-2.3062,-2.2646,0.0,0.0,-1.9179,-1.7327,-1.678,0.0,0.0,0.0,-1.725,-1.8555,-1.9789,-2.096,-2.199,-2.2286,-2.2432,-2.246,-2.2394,-2.2265,-2.2192,-2.2254,-2.2411,-2.2613,-2.2378,-2.2524,-2.2727,-2.2406,-2.2282,-2.2282,-2.2377,-2.2405,-2.25,-2.2873,-2.2598,-2.2343,-2.2735,-2.2302,-2.1774,-2.1823,-2.1769,-2.1694,-2.1694,-2.1768,-2.1797,-2.1797,-2.1797,-2.1578,0.0,0.0,0.0,0.0,0.0,0.0,0.0,0.0,-1.4933,0.0,0.0,0.0,0.0,0.0,0.0,0.0,0.0,0.0,-1.1794,0.0,-1.6116,-1.8524,-2.0693,-2.2391,-2.3632,-2.533,-2.6067,-2.5931,-2.6144,-2.6206,-2.6118,-2.6168,-2.622,-2.622,-2.645,-2.6554,-2.6554,-2.6759,-2.6859,-2.6942,-2.6975,-2.7023,-2.7103,-1.925,0.0,-1.9087,0.0,-1.8857,-1.9008,-1.9607,-1.9513,-1.942,-1.9546,-1.9993,-2.0489,-2.1009,-2.1048,-2.1083,-2.1166,-2.0998,-2.0893,-2.0888,-2.1658,-2.2008,-2.1686,-2.2873,0.0,-2.3227,-2.3392,-2.3146,-2.2368,-2.1729,0.0,-1.9053,0.0,0.0,0.0,-1.8141,-1.8931,-1.9647,-2.0755,-2.1708,-2.246,-2.246,-2.2487,-2.2515,-2.2405,-2.2366,-2.231,-2.231,-2.231,-2.231,-2.2405,-2.2603,-2.2811,-2.2462,-2.2338,-2.2338,-2.246,-2.2515,-2.2515,-2.2569,-2.2415,-2.2248,-2.2027,-2.1899,-2.1721,-2.1448,-2.1556,-2.1664,-2.1694,-2.1768,-2.1797,-2.1797,-2.1797,-2.1578,-2.0877,0.0,0.0,0.0,0.0,0.0,0.0,-1.6288,-1.5094,-1.3927,0.0,0.0,0.0,0.0,0.0,0.0,0.0,0.0,0.0,0.0,0.0,0.0,-2.0188,-2.2188,-2.3902,-2.5413,-2.6198,-2.6277,-2.6239,-2.6168,-2.6063,-2.6168,-2.622,-2.6203,-2.6364,-2.645,-2.652,-2.6623,-2.6759,-2.6842,-2.6893,-2.6975,-2.707,-2.0084,-1.9993,-1.9888,-1.9888,-1.9824,-1.9767,-1.9713,-1.9577,-1.9489,-1.9497,-1.9501,-1.9472,-1.9341,-1.9266,-1.9285,-1.9427,-1.9301,-1.9827,-2.12,-2.1323,-2.1621,0.0,0.0,-2.3124,-2.2533,-2.3155,-2.3169,-2.2512,0.0,0.0,-1.989,0.0,-1.9682,-2.0237,-2.0135,-2.0475,-2.1187,-2.1266,-2.1725,-2.2405,-2.2525,-2.2487,-2.2338,-2.2515,-2.2487,-2.231,-2.2394,-2.2366,-2.231,-2.231,-2.2163,-2.2073,-2.2388,-2.2422,-2.2338,-2.246,-2.2515,-2.2515,-2.2515,-2.2515,-2.2388,-2.2015,-2.194,-2.1911,-2.1509,-2.1495,-2.162,-2.1694,-2.1768,-2.1797,-2.1797,-2.1797,-2.1549,-2.0804,0.0,0.0,0.0,0.0,0.0,0.0,-1.5971,-1.4875,-1.4521,0.0,0.0,0.0,0.0,0.0,0.0,0.0,0.0,-1.2359,-1.3702,0.0,-1.8065,-1.9515,-2.1466,-2.3902,-2.4677,-2.5438,-2.622,-2.622,-2.622,-2.622,-2.622,-2.622,-2.6203,-2.6277,-2.6382,-2.6485,-2.6572,-2.6657,-2.6742,-2.6842,-2.6942,-2.7007,-2.006,-2.0443,-2.058,-1.9875,-2.0163,-2.0298,-1.9788,-1.9513,-1.9402,-1.9499,-1.9335,-1.9447,-2.0046,-2.0036,-1.9968,0.0,-2.03,-2.0691,0.0,-2.1628,-2.1953,-2.2224,-2.298,-2.3305,-2.3124,-2.3374,-2.3414,-2.3253,0.0,0.0,0.0,-2.0437,-2.0123,-2.0326,-2.0739,-2.1071,-2.1369,-2.1907,-2.2293,-2.2542,-2.2579,-2.2525,-2.2432,-2.246,-2.2432,-2.2366,-2.2377,-2.2394,-2.2394,-2.2487,-2.2388,-2.2304,-2.246,-2.2405,-2.2338,-2.246,-2.2515,-2.2515,-2.2515,-2.2343,-2.213,-2.194,-2.1735,-2.157,-2.1371,-2.1481,-2.165,-2.1738,-2.1797,-2.1797,-2.1797,-2.1797,-2.1715,-2.1483,-2.1508,0.0,0.0,0.0,0.0,0.0,-1.6632,-1.5659,0.0,-1.4847,0.0,0.0,0.0,0.0,0.0,0.0,0.0,0.0,-1.4177,0.0,-1.7876,-1.9441,-2.1388,-2.3718,-2.4592,-2.5386,-2.6063,-2.6168,-2.6168,-2.6063,-2.6168,-2.622,-2.6203,-2.6277,-2.633,-2.6382,-2.6537,-2.6606,-2.6623,-2.6708,-2.6859,-2.7007,-2.0059,-2.0446,-2.0687,-2.0391,-2.0421,-2.0458,-2.0282,-2.0034,-1.9893,-1.9973,-2.0071,-2.0328,-2.0891,-2.1007,0.0,-2.077,-2.0962,-2.1251,-2.1547,-2.1896,-2.2233,-2.2516,-2.3029,-2.336,-2.3448,0.0,0.0,-2.3629,-2.3476,-2.3065,-2.24,-2.1611,-2.1231,-2.1232,-2.1618,-2.1823,-2.191,-2.2337,-2.2525,-2.2569,-2.2542,-2.246,-2.2377,-2.2432,-2.2422,-2.2366,-2.2405,-2.2405,-2.2422,-2.2542,-2.2487,-2.2377,-2.2432,-2.2377,-2.2338,-2.246,-2.2515,-2.2487,-2.2443,-2.226,-2.2073,-2.1869,-2.1661,-2.1495,-2.1371,-2.1511,-2.1664,-2.1738,-2.1797,-2.1797,-2.1797,-2.1797,-2.1797,-2.1797,-2.1797,-2.1639,-2.1089,0.0,0.0,0.0,0.0,0.0,0.0,-1.6305,0.0,0.0,0.0,0.0,0.0,0.0,0.0,-1.4372,-1.5724,0.0,-1.8703,-1.9702,-2.1227,-2.3275,-2.446,-2.5386,-2.6079,-2.6168,-2.6168,-2.6079,-2.6168,-2.622,-2.6203,-2.6258,-2.6277,-2.633,-2.6503,-2.6589,-2.6606,-2.6674,-2.6808,-2.6959,-2.0088,-2.0184,0.0,0.0,-2.0754,0.0,-2.1142,-2.1025,-2.0882,-2.0867,-2.1408,-2.1786,-2.177,-2.2086,-2.2108,-2.166,0.0,0.0,0.0,-2.218,-2.2459,-2.306,-2.3168,-2.3289,-2.3471,-2.3494,-2.3544,-2.3656,-2.3407,-2.3217,-2.307,-2.2868,-2.2738,-2.2685,-2.2605,-2.2632,-2.2685,-2.2569,-2.2487,-2.2487,-2.2432,-2.231,-2.2242,-2.2405,-2.2422,-2.2338,-2.246,-2.246,-2.2405,-2.246,-2.2422,-2.231,-2.2377,-2.2338,-2.231,-2.2432,-2.2487,-2.2443,-2.2315,-2.226,-2.2147,-2.1784,-2.1694,-2.1617,-2.1448,-2.1556,-2.1694,-2.1724,-2.1768,-2.1797,-2.1797,-2.1797,-2.1781,-2.1797,-2.1748,-2.1378,-2.0515,0.0,0.0,0.0,0.0,0.0,0.0,-1.7145,-1.716,0.0,0.0,0.0,0.0,0.0,-1.6568,-1.7753,-1.8015,-1.8849,-2.0328,-2.0295,-2.1081,-2.2703,-2.4314,-2.544,-2.6101,-2.6151,-2.6168,-2.6184,-2.6168,-2.6168,-2.6168,-2.622,-2.6222,-2.6312,-2.645,-2.652,-2.6606,-2.664,-2.6759,-2.6893,0.0,0.0,-2.1703,-2.1247,-2.1966,-2.2417,-2.1894,-2.1699,-2.1623,-2.1559,-2.1604,-2.1844,-2.2313,-2.2285,-2.2376,-2.2762,-2.2653,-2.2604,-2.273,-2.2765,-2.2835,-2.2952,-2.3119,-2.3217,-2.3265,-2.3407,-2.343,-2.3336,-2.3151,-2.2995,-2.279,-2.2632,-2.2552,-2.2542,-2.2542,-2.2542,-2.2542,-2.246,-2.2432,-2.2405,-2.2422,-2.2366,-2.2282,-2.2394,-2.2405,-2.2394,-2.2405,-2.2405,-2.2405,-2.2405,-2.2366,-2.231,-2.231,-2.222,-2.2118,-2.2293,-2.2248,-2.2113,-2.2084,-2.1899,-2.1754,-2.165,-2.1511,-2.1402,-2.1542,-2.1573,-2.1664,-2.1768,-2.1797,-2.1797,-2.1797,-2.1797,-2.1721,-2.154,-2.1081,-2.0584,-2.0138,-1.9361,0.0,0.0,-1.8728,-1.8935,-1.9076,-1.9624,-1.9824,0.0,0.0,0.0,0.0,0.0,-1.9151,-1.8703,-1.9276,-2.0315,-2.1795,-2.123,-2.1503,-2.2573,-2.4247,-2.5055,-2.5149,-2.5779,-2.6043,-2.597,-2.6043,-2.6063,-2.6063,-2.6168,-2.6203,-2.6222,-2.6312,-2.6382,-2.6382,-2.6503,-2.6623,-2.6742,-2.0068,-2.1013,-2.1827,-2.1696,-2.2359,-2.2853,-2.2716,-2.2603,-2.2488,-2.2369,-2.2502,-2.2712,-2.3007,-2.2776,-2.2758,-2.3084,-2.3003,-2.2944,-2.2893,-2.2919,-2.2919,-2.2893,-2.3003,-2.3095,-2.3119,-2.3313,-2.3336,-2.3193,-2.2952,-2.2816,-2.2685,-2.2542,-2.246,-2.2515,-2.246,-2.246,-2.2487,-2.2432,-2.2405,-2.2377,-2.2338,-2.2282,-2.2254,-2.222,-2.2203,-2.2231,-2.2293,-2.231,-2.231,-2.2338,-2.2265,-2.2147,-2.2147,-2.2061,-2.1928,-2.2049,-2.2003,-2.1899,-2.184,-2.1724,-2.1589,-2.1481,-2.1402,-2.1402,-2.1559,-2.1603,-2.1664,-2.1797,-2.1797,-2.1797,-2.1797,-2.1691,-2.1472,-2.1024,-2.088,-2.0559,-1.9675,-1.9425,0.0,-1.8742,-1.9294,-1.9673,-1.9657,-2.0559,-2.1052,-2.0712,0.0,0.0,-2.0896,-2.0953,-2.0698,-2.007,-2.0825,-2.16,-2.2394,-2.1973,-2.2216,-2.3013,-2.357,-2.4211,-2.48,-2.4865,-2.5258,-2.5881,-2.5661,-2.573,-2.6026,-2.6132,-2.622,-2.6203,-2.6277,-2.6295,-2.633,-2.6434,-2.6537,-2.6589,-2.0123,-2.0769,-2.1576,-2.2391,-2.2571,-2.283,-2.3487,-2.3489,-2.3355,-2.3179,-2.3502,-2.3714,-2.3584,-2.3277,-2.3045,-2.297,-2.2902,-2.285,-2.2876,-2.2842,-2.2842,-2.2893,-2.2876,-2.2944,-2.2977,-2.3168,-2.3193,-2.3077,-2.2816,-2.2659,-2.2632,-2.246,-2.2422,-2.246,-2.2405,-2.2422,-2.246,-2.2405,-2.2377,-2.2377,-2.2254,-2.2214,-2.2185,-2.2044,-2.1998,-2.2027,-2.2123,-2.2168,-2.2168,-2.2209,-2.2118,-2.1998,-2.1969,-2.1899,-2.1768,-2.1768,-2.1768,-2.1708,-2.1603,-2.1589,-2.1511,-2.134,-2.134,-2.1417,-2.1542,-2.1634,-2.1708,-2.1738,-2.1721,-2.1738,-2.1691,-2.1509,-2.1111,-2.0397,-2.0675,-2.0517,-1.9145,0.0,-1.9571,-1.8914,-1.9514,-1.9956,-1.9878,-2.0842,-2.1448,-2.1448,-2.1617,0.0,0.0,-2.162,-2.1542,-2.1356,-2.2149,-2.2606,-2.2671,-2.2671,-2.2899,-2.342,-2.2769,-2.3242,-2.4585,-2.4009,-2.4514,-2.5828,-2.533,-2.5431,-2.599,-2.6132,-2.6168,-2.6203,-2.6241,-2.626,-2.626,-2.6364,-2.6415,-2.6415,-2.0626,-2.1367,-2.2129,-2.2952,-2.3574,-2.3988,-2.4008,-2.3989,-2.3933,-2.3855,-2.3705,-2.3584,-2.3463,-2.3182,-2.2927,-2.2764,-2.2738,-2.2764,-2.2816,-2.2816,-2.2816,-2.2816,-2.2868,-2.2902,-2.2919,-2.2995,-2.2902,-2.2605,-2.2569,-2.2487,-2.2366,-2.2254,-2.2271,-2.2338,-2.231,-2.231,-2.2338,-2.231,-2.231,-2.231,-2.2242,-2.2214,-2.2185,-2.2044,-2.1998,-2.1998,-2.2027,-2.2027,-2.1998,-2.1986,-2.1957,-2.1928,-2.184,-2.1738,-2.165,-2.165,-2.1511,-2.1419,-2.1559,-2.1497,-2.1356,-2.1325,-2.134,-2.1417,-2.1417,-2.1556,-2.1634,-2.1433,-2.1433,-2.1401,-2.1166,-2.1103,-2.0783,-1.9862,-1.9386,-1.9005,-1.8696,0.0,-1.8796,-1.939,-2.0242,-2.0815,-2.0799,-2.1366,-2.1721,-2.1721,-2.1768,-2.1738,-2.162,-2.1664,-2.1634,-2.1559,-2.2213,-2.2883,-2.342,-2.3369,-2.3091,-2.2589,-2.2475,-2.2864,-2.3726,-2.4145,-2.4843,-2.5637,-2.5603,-2.573,-2.5917,-2.599,-2.6115,-2.6168,-2.6099,-2.6046,-2.6046,-2.6007,-2.6026,-2.6099,-2.1384,-2.2102,-2.2741,-2.308,-2.3785,-2.4248,-2.4116,-2.4116,-2.4058,-2.3958,-2.3667,-2.3445,-2.3365,-2.3028,-2.2816,-2.2712,-2.2712,-2.2712,-2.2738,-2.2738,-2.2738,-2.2738,-2.279,-2.279,-2.279,-2.2642,-2.2535,-2.2443,-2.2315,-2.2203,-2.2147,-2.2118,-2.2118,-2.2147,-2.2147,-2.2163,-2.2242,-2.2242,-2.2242,-2.2225,-2.2135,-2.2077,-2.202,-2.1928,-2.1899,-2.1899,-2.194,-2.194,-2.194,-2.1869,-2.1797,-2.1708,-2.1601,-2.1481,-2.1341,-2.1435,-2.1388,-2.1309,-2.1419,-2.1388,-2.1309,-2.1309,-2.1309,-2.1371,-2.1386,-2.1339,-2.1324,-2.1309,-2.1198,-2.1119,-2.1039,-2.0926,-2.059,-1.9736,-1.9704,0.0,0.0,-1.9405,-1.9782,-2.0289,-2.0751,-2.1071,-2.1214,-2.157,-2.1797,-2.1797,-2.1797,-2.1768,-2.1664,-2.1724,-2.1708,-2.1664,-2.2276,-2.29,-2.3531,-2.3124,-2.2734,-2.2344,-2.2344,-2.2699,-2.3393,-2.37,-2.4495,-2.5584,-2.5289,-2.5395,-2.5791,-2.5917,-2.599,-2.6007,-2.577,-2.568,-2.5642,-2.5438,-2.5384,-2.5422,-2.1808,-2.2511,-2.3122,-2.3199,-2.3731,-2.4003,-2.3704,-2.3648,-2.3608,-2.3503,-2.324,-2.31,-2.3223,-2.2902,-2.2712,-2.2712,-2.2712,-2.2712,-2.2712,-2.2659,-2.2659,-2.2712,-2.2659,-2.2579,-2.248,-2.226,-2.2175,-2.2243,-2.2056,-2.1969,-2.1969,-2.1969,-2.1969,-2.1969,-2.1982,-2.2044,-2.2152,-2.2152,-2.2152,-2.2152,-2.2015,-2.194,-2.1882,-2.1827,-2.1797,-2.1827,-2.1869,-2.1869,-2.1869,-2.1797,-2.1678,-2.1542,-2.1417,-2.1262,-2.1135,-2.123,-2.1294,-2.1309,-2.1309,-2.1309,-2.1309,-2.1309,-2.1309,-2.1309,-2.1293,-2.1182,-2.1087,-2.1071,-2.0942,-2.0844,-2.0845,-2.0728,-2.0391,-1.9656,0.0,0.0,0.0,-2.0096,-2.0588,-2.091,-2.1039,-2.1166,-2.1386,-2.1631,-2.1797,-2.1797,-2.1797,-2.1768,-2.1708,-2.1738,-2.1738,-2.1694,-2.2276,-2.2818,-2.3237,-2.2702,-2.2458,-2.2568,-2.2407,-2.2762,-2.3568,-2.3568,-2.4313,-2.5584,-2.5106,-2.5228,-2.5701,-2.5791,-2.5844,-2.577,-2.5454,-2.5339,-2.5224,-2.4918,-2.4839,-2.4839,-2.1479,-2.2227,-2.2914,-2.3476,-2.361,-2.3325,-2.2376,-2.2247,-2.2247,-2.2225,-2.2101,-2.2258,-2.2958,-2.2842,-2.2712,-2.2712,-2.2712,-2.2712,-2.2712,-2.2542,-2.2515,-2.2685,-2.2515,-2.2248,-2.1869,-2.1969,-2.194,-2.184,-2.1811,-2.184,-2.1928,-2.184,-2.184,-2.1911,-2.1969,-2.1998,-2.2027,-2.2027,-2.2027,-2.1998,-2.194,-2.1882,-2.1882,-2.1827,-2.1797,-2.1797,-2.1827,-2.1827,-2.1797,-2.1738,-2.1587,-2.1386,-2.134,-2.1262,-2.1183,-2.1215,-2.1262,-2.1309,-2.1309,-2.1309,-2.1309,-2.1309,-2.134,-2.1324,-2.0991,-2.1103,-2.1103,-2.0579,-2.0595,-2.0644,-2.0407,-2.0339,-2.0122,-1.9427,0.0,0.0,-1.9335,-1.9656,-2.0083,-2.0648,-2.1119,-2.1386,-2.1386,-2.1631,-2.1797,-2.1797,-2.1797,-2.1768,-2.1708,-2.1708,-2.1664,-2.162,-2.2244,-2.2573,-2.2573,-2.2459,-2.2734,-2.3381,-2.2667,-2.3054,-2.4418,-2.4362,-2.4798,-2.5616,-2.5551,-2.561,-2.5701,-2.5701,-2.5589,-2.5416,-2.5317,-2.5123,-2.4815,-2.467,-2.463,-2.463,-2.1294,-2.1542,-2.1767,-2.195,-2.2,-2.185,-2.1483,-2.1409,-2.1586,-2.2038,-2.1984,-2.2181,-2.2908,-2.279,-2.2632,-2.2632,-2.2605,-2.2525,-2.247,-2.2388,-2.2332,-2.2271,-2.2118,-2.1945,-2.1797,-2.1768,-2.1724,-2.1664,-2.1664,-2.1694,-2.1708,-2.1694,-2.1694,-2.1724,-2.1738,-2.1797,-2.1869,-2.1869,-2.1869,-2.1869,-2.1882,-2.184,-2.1797,-2.1781,-2.1797,-2.1797,-2.1797,-2.1797,-2.1781,-2.1664,-2.1481,-2.1294,-2.1277,-2.1151,-2.0974,-2.1151,-2.1199,-2.1183,-2.1277,-2.1309,-2.1309,-2.1309,-2.1309,-2.1309,-2.1183,-2.1023,-2.0876,-2.0695,-2.0494,-2.0323,-2.0304,-2.0304,-2.0227,-1.9965,0.0,-2.0002,-2.0002,-2.0252,-2.0575,-2.0942,-2.1246,-2.1479,-2.1631,-2.1721,-2.1797,-2.1797,-2.1797,-2.1797,-2.1768,-2.1768,-2.1724,-2.162,-2.1835,-2.1935,-2.1824,-2.1746,-2.1843,-2.2085,-2.2749,-2.3298,-2.3797,-2.4701,-2.5319,-2.5616,-2.5616,-2.56,-2.5637,-2.5637,-2.547,-2.5185,-2.495,-2.4655,-2.4313,-2.4063,-2.3979,-2.3979,-2.0715,-2.0871,-2.0965,-2.0859,-2.088,-2.0809,-2.0498,-2.0463,-2.0723,-2.1429,-2.1435,-2.1781,-2.2738,-2.2632,-2.2497,-2.2497,-2.2415,-2.2287,-2.2231,-2.2147,-2.2061,-2.1911,-2.1811,-2.1738,-2.1631,-2.1556,-2.1542,-2.1542,-2.1542,-2.1542,-2.1542,-2.1542,-2.1542,-2.1542,-2.1589,-2.1634,-2.1738,-2.1738,-2.1738,-2.1738,-2.1797,-2.1738,-2.1664,-2.1708,-2.1738,-2.1738,-2.1738,-2.1738,-2.1708,-2.1542,-2.1325,-2.1103,-2.1055,-2.0893,-2.0761,-2.099,-2.1038,-2.1023,-2.1055,-2.1087,-2.1151,-2.1183,-2.1119,-2.1055,-2.1055,-2.0794,-2.0577,-2.0662,-2.0376,-2.0185,-2.0373,-2.0339,-2.0373,-2.0494,-2.0509,-2.0525,-2.0595,-2.0621,-2.0719,-2.0892,-2.1061,-2.1212,-2.142,-2.1635,-2.1768,-2.1738,-2.1768,-2.1768,-2.1768,-2.1768,-2.1738,-2.1664,-2.1634,-2.1603,-2.1495,-2.1402,-2.1422,-2.1617,-2.2686,-2.3236,-2.3409,-2.4446,-2.4899,-2.4899,-2.4899,-2.4954,-2.5072,-2.5072,-2.4955,-2.4775,-2.4533,-2.4245,-2.3909,-2.3681,-2.3595,-2.3595,-1.9594,-2.023,-2.0692,-2.0512,-2.0592,-2.0349,-1.944,-1.9292,-1.9528,-2.0213,-2.0316,-2.0874,-2.2344,-2.2388,-2.2287,-2.2287,-2.213,-2.1998,-2.1982,-2.1827,-2.1694,-2.1694,-2.1694,-2.1556,-2.1325,-2.1371,-2.1386,-2.1386,-2.1386,-2.1386,-2.1386,-2.1386,-2.1386,-2.1417,-2.1542,-2.1589,-2.1589,-2.1589,-2.1589,-2.1589,-2.1589,-2.1589,-2.1589,-2.1589,-2.1589,-2.1589,-2.1589,-2.1589,-2.1559,-2.1309,-2.1055,-2.0828,-2.0579,-2.0494,-2.0527,-2.0644,-2.0744,-2.0761,-2.0561,-2.0662,-2.0827,-2.0877,-2.0712,-2.0494,-2.0494,-2.0392,-2.0304,-2.0376,-2.0239,-2.022,-2.061,-2.0491,-2.046,-2.0894,-2.0811,-2.0761,-2.0959,-2.0568,-2.028,-2.028,-2.0488,-2.0574,-2.0591,-2.1249,-2.1648,-2.162,-2.1664,-2.1694,-2.1694,-2.1694,-2.1738,-2.1797,-2.1738,-2.1694,-2.1694,-2.1509,-2.1775,-2.2492,-2.2508,-2.285,-2.3497,-2.3513,-2.3428,-2.3291,-2.3291,-2.3515,-2.3907,-2.3869,-2.399,-2.4105,-2.4105,-2.3894,-2.3595,-2.3595,-2.3595,-2.3595,-1.8465,-1.8594,-1.8682,-1.8614,-1.8637,-1.8591,-1.8425,-1.8352,-1.8774,-2.012,-2.0274,-2.0806,-2.2344,-2.2298,-2.2141,-2.2084,-2.1899,-2.1691,-2.1509,-2.1356,-2.1278,-2.1278,-2.1356,-2.1371,-2.1309,-2.1309,-2.134,-2.134,-2.134,-2.134,-2.134,-2.134,-2.134,-2.134,-2.1388,-2.1419,-2.1464,-2.1464,-2.1464,-2.1464,-2.1542,-2.1542,-2.1464,-2.1542,-2.1589,-2.1589,-2.1589,-2.1481,-2.1309,-2.123,-2.0909,-2.0545,-2.0444,-2.0444,-2.0527,-2.0711,-2.0695,-2.0595,-2.0695,-2.0628,-2.0512,-2.0429,-2.0429,-2.0444,-2.0326,-2.0185,-2.0111,-2.0131,-1.9975,-1.994,-2.0061,-2.0061,-2.0012,-1.9774,-1.981,-1.9767,-1.948,-1.9538,-1.9609,-1.9649,-1.9761,-2.0003,-2.05,-2.0688,-2.0972,-2.1432,-2.1573,-2.165,-2.165,-2.165,-2.1634,-2.1664,-2.1634,-2.1634,-2.1694,-2.1603,-2.1578,-2.1664,-2.2232,-2.2573,-2.2683,-2.3167,-2.3342,-2.3291,-2.3099,-2.3068,-2.3201,-2.3054,-2.2901,-2.2799,-2.3234,-2.3212,-2.3011,-2.3374,-2.3566,-2.3595,-1.7833,-1.7789,-1.7704,-1.7704,-1.8019,-1.8149,-1.7951,-1.8133,-1.8744,-1.9974,-2.0102,-2.0637,-2.2079,-2.2015,-2.1823,-2.1691,-2.1495,-2.1309,-2.1151,-2.1071,-2.1054,-2.1119,-2.1183,-2.123,-2.1262,-2.1294,-2.1309,-2.1309,-2.1309,-2.1309,-2.1309,-2.1309,-2.1309,-2.1309,-2.1309,-2.1309,-2.1371,-2.1371,-2.1371,-2.1371,-2.145,-2.145,-2.1371,-2.145,-2.1481,-2.145,-2.134,-2.1214,-2.1071,-2.0828,-2.0512,-2.017,-2.017,-2.022,-2.0339,-2.046,-2.0426,-2.0357,-2.0342,-2.0342,-2.0273,-1.9945,-2.0015,-2.017,-2.007,-1.994,-1.9863,-1.997,-1.9884,-1.9797,-1.9904,-1.9904,-1.9854,-1.9767,-1.9822,-1.9829,-1.9701,-1.9441,-1.9272,-1.9272,-1.9328,-1.9491,-1.9861,-2.04,-2.0902,-2.1276,-2.1388,-2.1435,-2.1435,-2.1481,-2.1511,-2.1511,-2.1481,-2.1481,-2.1495,-2.1481,-2.145,-2.134,-2.1778,-2.194,-2.1858,-2.2176,-2.2284,-2.2266,-2.2027,-2.1956,-2.2061,-2.1929,-2.1911,-2.1931,-2.2299,-2.2289,-2.2159,-2.2461,-2.2636,-2.2693,-1.7566,-1.7589,-1.7589,-1.7589,-1.8246,-1.8535,-1.7867,-1.8316,-1.9,-1.9689,-1.9747,-2.0204,-2.145,-2.1502,-2.1368,-2.1118,-2.0893,-2.0778,-2.0861,-2.0861,-2.0925,-2.1038,-2.107,-2.1087,-2.1183,-2.123,-2.1294,-2.1294,-2.1294,-2.1294,-2.1294,-2.1294,-2.1294,-2.1294,-2.1294,-2.1294,-2.1294,-2.1294,-2.1294,-2.1294,-2.1294,-2.1294,-2.1277,-2.1294,-2.1294,-2.1262,-2.1007,-2.0861,-2.0763,-2.0239,-1.994,-1.9797,-1.9797,-1.9884,-2.0005,-2.0005,-2.0045,-2.0045,-1.9797,-1.9975,-2.0131,-1.956,-1.9545,-1.969,-1.9732,-1.9654,-1.9647,-1.9848,-1.9777,-1.9762,-1.996,-1.9818,-1.9839,-2.0335,-2.0403,-2.0423,-2.0687,-1.9739,-1.9018,-1.8993,-1.8965,-1.8924,-1.8991,-2.0316,-2.1183,-2.1183,-2.1183,-2.1183,-2.1183,-2.1309,-2.1355,-2.1355,-2.1277,-2.1214,-2.1135,-2.1166,-2.123,-2.1324,-2.123,-2.1119,-2.1006,-2.0843,-2.0695,-2.061,-2.041,-2.0452,-2.0663,-2.0663,-2.087,-2.1182,-2.1281,-2.1215,-2.1094,-2.1152,-2.1181,-2.1254,-1.7522,-1.7522,-1.7498,-1.7451,-1.7599,-1.7681,-1.7512,-1.7581,-1.7946,-1.8776,-1.8708,-1.8923,-1.9899,-2.0156,-2.0254,-2.0192,-2.0413,-2.0561,-2.0595,-2.0595,-2.0628,-2.0793,-2.0843,-2.0893,-2.0974,-2.1087,-2.1135,-2.1135,-2.1135,-2.1135,-2.1135,-2.1135,-2.1135,-2.1135,-2.1135,-2.1183,-2.1215,-2.1215,-2.1215,-2.1215,-2.1215,-2.1183,-2.1167,-2.1215,-2.1183,-2.1119,-2.0942,-2.073,-2.0429,-1.996,-1.9797,-1.9797,-1.9797,-1.9884,-2.0005,-2.0005,-2.0005,-1.999,-1.9955,-1.999,-1.999,-1.969,-1.9545,-1.945,-1.9435,-1.9413,-1.9339,-1.9288,-1.9325,-1.9398,-1.9472,-1.9487,-1.9381,-1.909,-1.9053,-1.8992,-1.8747,-1.8081,-1.7741,-1.7971,-1.777,-1.7932,-1.8765,-2.0083,-2.0893,-2.0974,-2.1054,-2.1119,-2.1135,-2.1039,-2.0991,-2.0991,-2.0828,-2.073,-2.073,-2.0548,-2.053,-2.0679,-2.0877,-2.0763,-2.0395,-2.0308,-2.0189,-2.0054,-1.9803,-1.9713,-1.9701,-1.9515,-1.9505,-1.9642,-2.0177,-2.0381,-2.04,-2.0802,-2.1032,-2.1143,-1.7467,-1.7443,-1.7419,-1.7371,-1.7626,-1.7708,-1.7395,-1.7502,-1.7795,-1.8257,-1.8123,-1.8366,-1.9399,-1.9621,-1.983,-2.0081,-2.0291,-2.0441,-2.0441,-2.0441,-2.0509,-2.061,-2.0628,-2.0695,-2.0794,-2.081,-2.0892,-2.1006,-2.0974,-2.0974,-2.1006,-2.0974,-2.0974,-2.1006,-2.1006,-2.1006,-2.1006,-2.1023,-2.1023,-2.1006,-2.0909,-2.0843,-2.081,-2.0843,-2.081,-2.0744,-2.0579,-2.0326,-2.003,-1.9782,-1.9726,-1.9797,-1.9797,-1.9848,-1.9884,-1.9884,-1.9884,-1.9884,-1.9741,-1.9777,-1.9812,-1.9508,-1.9347,-1.931,-1.9288,-1.9265,-1.9176,-1.9101,-1.9213,-1.9302,-1.9213,-1.9228,-1.9185,-1.8992,-1.901,-1.8912,-1.8434,-1.7913,-1.75,-1.7355,-1.7453,-1.8084,-1.9389,-2.0139,-2.0595,-2.0613,-2.0711,-2.0711,-2.0561,-2.0563,-2.0563,-2.053,-2.0376,-2.0273,-2.0154,-2.007,-1.9945,-1.9854,-2.0208,-2.0243,-2.0,-1.9839,-1.9732,-1.9666,-1.9406,-1.9273,-1.9176,-1.9078,-1.8988,-1.8979,-1.9349,-1.944,-1.9458,-1.9764,-2.0079,-2.0378,-1.7395,-1.7371,-1.7346,-1.7281,-1.7731,-1.7911,-1.7289,-1.7536,-1.776,-1.7733,-1.7543,-1.7864,-1.8968,-1.9294,-1.9632,-2.0208,-2.0235,-2.027,-2.032,-2.0339,-2.0373,-2.046,-2.046,-2.0543,-2.0644,-2.0543,-2.0628,-2.0877,-2.0794,-2.0778,-2.0828,-2.0778,-2.0778,-2.0828,-2.0828,-2.0811,-2.0794,-2.0844,-2.0811,-2.0728,-2.0561,-2.0444,-2.0426,-2.0376,-2.0376,-2.0342,-2.017,-1.994,-1.969,-1.969,-1.9726,-1.9762,-1.9762,-1.9762,-1.9762,-1.9762,-1.9762,-1.9726,-1.9523,-1.9545,-1.9581,-1.925,-1.9161,-1.9184,-1.9288,-1.9176,-1.9101,-1.9101,-1.9176,-1.9228,-1.9101,-1.9029,-1.8993,-1.9104,-1.9097,-1.8983,-1.8673,-1.8167,-1.7664,-1.7075,-1.756,-1.849,-1.9825,-2.0089,-2.0185,-2.022,-2.0273,-2.0204,-1.999,-2.005,-2.012,-2.003,-1.9955,-1.9812,-1.9654,-1.966,-1.9479,-1.9101,-1.9479,-1.966,-1.966,-1.9406,-1.9295,-1.9273,-1.9101,-1.9003,-1.8917,-1.8917,-1.8865,-1.876,-1.876,-1.8697,-1.8673,-1.8673,-1.8999,-1.9397,-1.7306,-1.7306,-1.7298,-1.7224,-1.728,-1.7205,-1.6831,-1.6827,-1.6813,-1.6631,-1.644,-1.6637,-1.7407,-1.8451,-1.933,-1.998,-2.0041,-2.0025,-2.0041,-2.0115,-2.0185,-2.0304,-2.0373,-2.0441,-2.0527,-2.0441,-2.0525,-2.0726,-2.0595,-2.0561,-2.0545,-2.0561,-2.0561,-2.0545,-2.0545,-2.0595,-2.0711,-2.0711,-2.0628,-2.0444,-2.041,-2.0308,-2.017,-2.0224,-2.0273,-2.0289,-2.015,-1.994,-1.969,-1.969,-1.9726,-1.9726,-1.9726,-1.9726,-1.9726,-1.9726,-1.9726,-1.9726,-1.969,-1.9545,-1.9413,-1.9376,-1.9191,-1.9093,-1.9339,-1.9228,-1.9101,-1.9101,-1.9101,-1.9101,-1.9101,-1.868,-1.8332,-1.8368,-1.7873,-1.7704,-1.82,-1.7724,-1.7338,-1.7418,-1.759,-1.7981,-1.8525,-1.9188,-1.966,-1.9859,-1.9874,-1.9874,-1.9839,-1.9823,-1.9839,-1.9762,-1.9596,-1.945,-1.945,-1.9288,-1.9176,-1.9101,-1.9116,-1.9093,-1.9093,-1.895,-1.8836,-1.8774,-1.875,-1.8673,-1.8556,-1.8556,-1.8556,-1.8556,-1.8556,-1.8556,-1.8517,-1.8517,-1.8574,-1.8644,-1.7248,-1.7248,-1.7224,-1.7149,-1.7016,-1.6882,-1.6722,-1.6501,-1.6328,-1.6246,-1.5983,-1.6232,-1.7363,-1.8646,-1.9567,-1.9854,-1.9955,-2.0005,-2.0005,-2.0025,-2.0061,-2.0146,-2.02,-2.0289,-2.0407,-2.0339,-2.0423,-2.0525,-2.0441,-2.0407,-2.0441,-2.0407,-2.0407,-2.0441,-2.0441,-2.0441,-2.0475,-2.0407,-2.0289,-2.015,-2.001,-1.9869,-1.9726,-1.9833,-1.9797,-1.9762,-1.9812,-1.9741,-1.9632,-1.969,-1.969,-1.969,-1.969,-1.969,-1.969,-1.969,-1.969,-1.969,-1.9545,-1.9487,-1.9376,-1.9265,-1.9153,-1.9116,-1.9302,-1.9302,-1.9213,-1.9265,-1.9176,-1.9101,-1.9055,-1.8838,-1.8613,-1.8561,-1.8302,-1.8086,-1.8079,-1.784,-1.7687,-1.7757,-1.7806,-1.8054,-1.8681,-1.9075,-1.931,-1.9406,-1.9406,-1.9369,-1.9258,-1.9258,-1.9273,-1.9302,-1.9205,-1.9168,-1.9168,-1.9093,-1.9003,-1.8936,-1.8851,-1.8865,-1.8889,-1.8812,-1.8567,-1.8293,-1.8293,-1.8175,-1.7935,-1.7935,-1.7935,-1.7975,-1.8135,-1.8214,-1.8214,-1.8016,-1.7935,-1.7935]}]]